| time (UTC) | temp F | wind direction | speed MPH | gust MPH | rain 1hr in | rain 24hr in | rain mn in | humidity % | barometer mb |
| 20260507205311 | 59 | 219 | 8.0 | 15.0 | 0.00 | 1.06 | 1.06 | 64 | 1005.1 |
| 20260507205211 | 59 | 223 | 5.0 | 15.0 | 0.00 | 1.06 | 1.06 | 64 | 1005.2 |
| 20260507205111 | 59 | 216 | 9.0 | 15.0 | 0.00 | 1.06 | 1.06 | 64 | 1005.2 |
| 20260507205011 | 59 | 217 | 8.0 | 14.0 | 0.00 | 1.06 | 1.06 | 64 | 1005.4 |
| 20260507204911 | 59 | 210 | 8.0 | 14.0 | 0.00 | 1.06 | 1.06 | 64 | 1005.3 |
| 20260507204811 | 59 | 205 | 7.0 | 14.0 | 0.00 | 1.06 | 1.06 | 64 | 1005.4 |
| 20260507204711 | 59 | 210 | 6.0 | 14.0 | 0.00 | 1.06 | 1.06 | 64 | 1005.2 |
| 20260507204632 | 60 | 210 | 5.0 | 14.0 | 0.00 | 1.06 | 1.06 | 64 | 1005.4 |
| 20260507204511 | 59 | 212 | 6.0 | 14.0 | 0.00 | 1.06 | 1.06 | 64 | 1005.4 |
| 20260507204411 | 59 | 213 | 6.0 | 14.0 | 0.00 | 1.06 | 1.06 | 64 | 1005.4 |
| 20260507204311 | 59 | 207 | 8.0 | 14.0 | 0.00 | 1.06 | 1.06 | 64 | 1005.3 |
| 20260507204211 | 59 | 211 | 6.0 | 16.0 | 0.00 | 1.06 | 1.06 | 64 | 1005.3 |
| 20260507204111 | 60 | 212 | 8.0 | 16.0 | 0.00 | 1.06 | 1.06 | 64 | 1005.4 |
| 20260507204011 | 60 | 217 | 6.0 | 16.0 | 0.00 | 1.06 | 1.06 | 64 | 1005.4 |
| 20260507203911 | 60 | 222 | 5.0 | 16.0 | 0.00 | 1.06 | 1.06 | 64 | 1005.4 |
| 20260507203811 | 60 | 225 | 4.0 | 16.0 | 0.00 | 1.06 | 1.06 | 64 | 1005.4 |
| 20260507203711 | 60 | 220 | 4.0 | 16.0 | 0.00 | 1.06 | 1.06 | 64 | 1005.5 |
| 20260507203611 | 60 | 224 | 6.0 | 16.0 | 0.00 | 1.06 | 1.06 | 64 | 1005.3 |
| 20260507203511 | 60 | 220 | 6.0 | 16.0 | 0.00 | 1.06 | 1.06 | 64 | 1005.3 |
| 20260507203411 | 60 | 219 | 5.0 | 16.0 | 0.00 | 1.06 | 1.06 | 63 | 1005.5 |
| 20260507203311 | 60 | 225 | 5.0 | 16.0 | 0.00 | 1.06 | 1.06 | 63 | 1005.5 |
| 20260507203211 | 60 | 232 | 10.0 | 16.0 | 0.00 | 1.06 | 1.06 | 63 | 1005.4 |
| 20260507203111 | 60 | 228 | 4.0 | 20.0 | 0.00 | 1.06 | 1.06 | 63 | 1005.4 |
| 20260507203011 | 60 | 232 | 4.0 | 20.0 | 0.00 | 1.06 | 1.06 | 63 | 1005.4 |
| 20260507202911 | 60 | 231 | 4.0 | 20.0 | 0.00 | 1.06 | 1.06 | 63 | 1005.4 |
| 20260507202832 | 60 | 232 | 7.0 | 20.0 | 0.00 | 1.06 | 1.06 | 62 | 1005.5 |
| 20260507202711 | 60 | 232 | 9.0 | 20.0 | 0.00 | 1.06 | 1.06 | 62 | 1005.3 |
| 20260507202611 | 60 | 232 | 8.0 | 20.0 | 0.00 | 1.06 | 1.06 | 62 | 1005.5 |
| 20260507202511 | 60 | 237 | 5.0 | 20.0 | 0.00 | 1.06 | 1.06 | 62 | 1005.5 |
| 20260507202411 | 60 | 237 | 9.0 | 20.0 | 0.00 | 1.06 | 1.06 | 61 | 1005.3 |
| 20260507202311 | 60 | 230 | 8.0 | 20.0 | 0.00 | 1.06 | 1.06 | 61 | 1005.4 |
| 20260507202211 | 60 | 223 | 12.0 | 20.0 | 0.00 | 1.06 | 1.06 | 62 | 1005.2 |
| 20260507202111 | 60 | 228 | 8.0 | 18.0 | 0.00 | 1.06 | 1.06 | 63 | 1005.2 |
| 20260507202011 | 60 | 223 | 4.0 | 17.0 | 0.00 | 1.06 | 1.06 | 63 | 1005.5 |
| 20260507201911 | 60 | 221 | 4.0 | 17.0 | 0.00 | 1.06 | 1.06 | 63 | 1005.3 |
| 20260507201811 | 60 | 223 | 5.0 | 17.0 | 0.00 | 1.06 | 1.06 | 62 | 1005.0 |
| 20260507201711 | 60 | 229 | 6.0 | 17.0 | 0.00 | 1.06 | 1.06 | 62 | 1005.1 |
| 20260507201611 | 60 | 222 | 7.0 | 17.0 | 0.00 | 1.06 | 1.06 | 62 | 1005.2 |
| 20260507201510 | 60 | 217 | 7.0 | 17.0 | 0.00 | 1.06 | 1.06 | 62 | 1005.1 |
| 20260507201432 | 60 | 218 | 7.0 | 17.0 | 0.00 | 1.06 | 1.06 | 62 | 1005.3 |
| 20260507201310 | 60 | 219 | 8.0 | 17.0 | 0.00 | 1.06 | 1.06 | 62 | 1005.2 |
| 20260507201232 | 60 | 214 | 8.0 | 17.0 | 0.00 | 1.06 | 1.06 | 62 | 1005.1 |
| 20260507201111 | 60 | 210 | 8.0 | 16.0 | 0.00 | 1.06 | 1.06 | 62 | 1005.0 |
| 20260507201032 | 60 | 207 | 6.0 | 16.0 | 0.00 | 1.06 | 1.06 | 62 | 1005.0 |
| 20260507200911 | 60 | 212 | 8.0 | 16.0 | 0.00 | 1.06 | 1.06 | 61 | 1005.1 |
| 20260507200811 | 60 | 205 | 9.0 | 16.0 | 0.00 | 1.06 | 1.06 | 61 | 1005.1 |
| 20260507200711 | 60 | 202 | 8.0 | 16.0 | 0.00 | 1.06 | 1.06 | 61 | 1005.0 |
| 20260507200632 | 60 | 202 | 11.0 | 16.0 | 0.00 | 1.06 | 1.06 | 61 | 1005.2 |
| 20260507200511 | 60 | 202 | 6.0 | 14.0 | 0.00 | 1.06 | 1.06 | 62 | 1005.3 |
| 20260507200411 | 60 | 201 | 8.0 | 14.0 | 0.00 | 1.06 | 1.06 | 62 | 1005.4 |
| 20260507200311 | 60 | 201 | 6.0 | 14.0 | 0.00 | 1.06 | 1.06 | 62 | 1005.3 |
| 20260507200210 | 60 | 202 | 7.0 | 14.0 | 0.00 | 1.06 | 1.06 | 62 | 1005.4 |
| 20260507200111 | 60 | 200 | 5.0 | 14.0 | 0.00 | 1.06 | 1.06 | 62 | 1005.3 |
| 20260507200032 | 60 | 197 | 9.0 | 21.0 | 0.00 | 1.06 | 1.06 | 61 | 1005.3 |
| 20260507195911 | 60 | 190 | 5.0 | 21.0 | 0.00 | 1.06 | 1.06 | 62 | 1005.3 |
| 20260507195811 | 60 | 191 | 4.0 | 21.0 | 0.00 | 1.06 | 1.06 | 62 | 1005.3 |
| 20260507195710 | 60 | 191 | 5.0 | 21.0 | 0.00 | 1.06 | 1.06 | 61 | 1005.2 |
| 20260507195632 | 60 | 190 | 7.0 | 21.0 | 0.00 | 1.06 | 1.06 | 61 | 1005.3 |
| 20260507195511 | 60 | 201 | 8.0 | 21.0 | 0.00 | 1.06 | 1.06 | 61 | 1005.1 |
| 20260507195411 | 60 | 197 | 7.0 | 21.0 | 0.00 | 1.06 | 1.06 | 61 | 1005.3 |
| 20260507195311 | 60 | 190 | 6.0 | 21.0 | 0.00 | 1.06 | 1.06 | 60 | 1005.3 |
| 20260507195211 | 60 | 191 | 8.0 | 21.0 | 0.00 | 1.06 | 1.06 | 60 | 1005.1 |
| 20260507195132 | 60 | 195 | 7.0 | 21.0 | 0.00 | 1.06 | 1.06 | 60 | 1005.1 |
| 20260507195011 | 60 | 207 | 11.0 | 21.0 | 0.00 | 1.06 | 1.06 | 60 | 1005.2 |
| 20260507194911 | 60 | 213 | 9.0 | 21.0 | 0.00 | 1.06 | 1.06 | 60 | 1005.2 |
| 20260507194811 | 60 | 209 | 8.0 | 21.0 | 0.00 | 1.06 | 1.06 | 60 | 1005.0 |
| 20260507194732 | 60 | 203 | 7.0 | 21.0 | 0.00 | 1.06 | 1.06 | 60 | 1005.3 |
| 20260507194611 | 60 | 206 | 8.0 | 21.0 | 0.00 | 1.06 | 1.06 | 60 | 1005.0 |
| 20260507194511 | 60 | 198 | 11.0 | 21.0 | 0.00 | 1.06 | 1.06 | 60 | 1005.0 |
| 20260507194411 | 61 | 197 | 12.0 | 21.0 | 0.00 | 1.06 | 1.06 | 60 | 1005.0 |
| 20260507194310 | 61 | 209 | 12.0 | 21.0 | 0.00 | 1.06 | 1.06 | 60 | 1004.9 |
| 20260507194232 | 61 | 214 | 8.0 | 20.0 | 0.00 | 1.06 | 1.06 | 60 | 1005.0 |
| 20260507194111 | 61 | 210 | 9.0 | 20.0 | 0.00 | 1.06 | 1.06 | 60 | 1004.8 |
| 20260507194011 | 61 | 204 | 8.0 | 20.0 | 0.00 | 1.06 | 1.06 | 60 | 1005.0 |
| 20260507193911 | 61 | 197 | 8.0 | 20.0 | 0.00 | 1.06 | 1.06 | 60 | 1004.9 |
| 20260507193811 | 61 | 202 | 10.0 | 20.0 | 0.00 | 1.06 | 1.06 | 59 | 1004.9 |
| 20260507193711 | 61 | 201 | 11.0 | 20.0 | 0.00 | 1.06 | 1.06 | 59 | 1004.9 |
| 20260507193611 | 61 | 195 | 9.0 | 20.0 | 0.00 | 1.06 | 1.06 | 59 | 1004.8 |
| 20260507193511 | 61 | 195 | 9.0 | 24.0 | 0.00 | 1.06 | 1.06 | 59 | 1004.8 |
| 20260507193411 | 61 | 194 | 10.0 | 24.0 | 0.00 | 1.06 | 1.06 | 59 | 1004.8 |
| 20260507193311 | 61 | 197 | 8.0 | 24.0 | 0.00 | 1.06 | 1.06 | 59 | 1004.8 |
| 20260507193211 | 61 | 190 | 10.0 | 24.0 | 0.00 | 1.06 | 1.06 | 59 | 1004.9 |
| 20260507193111 | 61 | 186 | 11.0 | 24.0 | 0.00 | 1.06 | 1.06 | 59 | 1004.6 |
| 20260507193011 | 61 | 188 | 11.0 | 24.0 | 0.00 | 1.06 | 1.06 | 59 | 1004.8 |
| 20260507192911 | 61 | 198 | 7.0 | 24.0 | 0.00 | 1.06 | 1.06 | 60 | 1004.5 |
| 20260507192811 | 61 | 194 | 10.0 | 24.0 | 0.00 | 1.06 | 1.06 | 60 | 1004.6 |
| 20260507192711 | 61 | 196 | 8.0 | 24.0 | 0.00 | 1.06 | 1.06 | 60 | 1004.8 |
| 20260507192611 | 61 | 199 | 9.0 | 24.0 | 0.00 | 1.06 | 1.06 | 59 | 1004.5 |
| 20260507192511 | 61 | 198 | 12.0 | 24.0 | 0.00 | 1.06 | 1.06 | 59 | 1004.4 |
| 20260507192411 | 62 | 201 | 8.0 | 20.0 | 0.00 | 1.06 | 1.06 | 59 | 1004.5 |
| 20260507192310 | 62 | 199 | 9.0 | 20.0 | 0.00 | 1.06 | 1.06 | 59 | 1004.4 |
| 20260507192232 | 62 | 200 | 9.0 | 18.0 | 0.00 | 1.06 | 1.06 | 59 | 1004.4 |
| 20260507192110 | 62 | 203 | 11.0 | 24.0 | 0.00 | 1.06 | 1.06 | 59 | 1004.2 |
| 20260507192011 | 62 | 204 | 8.0 | 24.0 | 0.00 | 1.06 | 1.06 | 59 | 1004.1 |
| 20260507191932 | 62 | 197 | 11.0 | 24.0 | 0.00 | 1.06 | 1.06 | 59 | 1004.3 |
| 20260507191811 | 62 | 204 | 5.0 | 24.0 | 0.00 | 1.06 | 1.06 | 59 | 1003.9 |
| 20260507191711 | 62 | 206 | 7.0 | 24.0 | 0.00 | 1.06 | 1.06 | 59 | 1003.9 |
| 20260507191611 | 62 | 208 | 9.0 | 24.0 | 0.00 | 1.06 | 1.06 | 59 | 1004.0 |
| 20260507191511 | 62 | 205 | 11.0 | 24.0 | 0.00 | 1.06 | 1.06 | 58 | 1003.7 |
| 20260507191411 | 62 | 200 | 10.0 | 24.0 | 0.00 | 1.06 | 1.06 | 58 | 1003.7 |
| 20260507191311 | 62 | 197 | 8.0 | 24.0 | 0.00 | 1.06 | 1.06 | 58 | 1003.6 |
| 20260507191210 | 61 | 193 | 8.0 | 24.0 | 0.00 | 1.06 | 1.06 | 58 | 1003.6 |
| 20260507191132 | 61 | 191 | 16.0 | 24.0 | 0.00 | 1.06 | 1.06 | 57 | 1003.5 |
| 20260507191010 | 61 | 195 | 8.0 | 24.0 | 0.00 | 1.06 | 1.06 | 58 | 1003.4 |
| 20260507190911 | 61 | 200 | 12.0 | 24.0 | 0.00 | 1.06 | 1.06 | 58 | 1003.5 |
| 20260507190811 | 61 | 196 | 9.0 | 24.0 | 0.00 | 1.06 | 1.06 | 58 | 1003.5 |
| 20260507190710 | 61 | 195 | 11.0 | 24.0 | 0.00 | 1.06 | 1.06 | 58 | 1003.6 |
| 20260507190610 | 62 | 193 | 8.0 | 24.0 | 0.00 | 1.06 | 1.06 | 59 | 1003.6 |
| 20260507190510 | 62 | 198 | 8.0 | 24.0 | 0.00 | 1.06 | 1.06 | 59 | 1003.5 |
| 20260507190411 | 62 | 205 | 14.0 | 24.0 | 0.00 | 1.06 | 1.06 | 58 | 1003.4 |
| 20260507190311 | 62 | 204 | 16.0 | 24.0 | 0.00 | 1.06 | 1.06 | 57 | 1003.6 |
| 20260507190211 | 62 | 207 | 13.0 | 23.0 | 0.00 | 1.06 | 1.06 | 57 | 1003.3 |
| 20260507190111 | 62 | 208 | 8.0 | 23.0 | 0.00 | 1.06 | 1.06 | 58 | 1003.3 |
| 20260507190011 | 62 | 208 | 12.0 | 23.0 | 0.00 | 1.06 | 1.06 | 57 | 1003.4 |
| 20260507185911 | 62 | 203 | 12.0 | 23.0 | 0.00 | 1.06 | 1.06 | 57 | 1003.3 |
| 20260507185811 | 62 | 198 | 8.0 | 23.0 | 0.00 | 1.06 | 1.06 | 57 | 1003.4 |
| 20260507185711 | 62 | 195 | 10.0 | 23.0 | 0.00 | 1.06 | 1.06 | 57 | 1003.6 |
| 20260507185610 | 62 | 195 | 15.0 | 23.0 | 0.00 | 1.06 | 1.06 | 57 | 1003.5 |
| 20260507185510 | 62 | 196 | 10.0 | 25.0 | 0.00 | 1.06 | 1.06 | 57 | 1003.5 |
| 20260507185411 | 62 | 193 | 13.0 | 25.0 | 0.00 | 1.06 | 1.06 | 57 | 1003.4 |
| 20260507185311 | 62 | 198 | 13.0 | 25.0 | 0.00 | 1.06 | 1.06 | 57 | 1003.4 |
| 20260507185232 | 62 | 194 | 7.0 | 25.0 | 0.00 | 1.06 | 1.06 | 58 | 1003.4 |
| 20260507185111 | 62 | 195 | 7.0 | 25.0 | 0.00 | 1.06 | 1.06 | 58 | 1003.5 |
| 20260507185010 | 62 | 192 | 8.0 | 25.0 | 0.00 | 1.06 | 1.06 | 58 | 1003.3 |
| 20260507184910 | 62 | 193 | 11.0 | 25.0 | 0.00 | 1.06 | 1.06 | 58 | 1003.4 |
| 20260507184811 | 62 | 201 | 10.0 | 25.0 | 0.00 | 1.06 | 1.06 | 58 | 1003.3 |
| 20260507184710 | 62 | 206 | 14.0 | 25.0 | 0.00 | 1.06 | 1.06 | 57 | 1003.2 |
| 20260507184611 | 62 | 207 | 15.0 | 25.0 | 0.00 | 1.06 | 1.06 | 58 | 1003.1 |
| 20260507184532 | 62 | 203 | 15.0 | 25.0 | 0.00 | 1.06 | 1.06 | 58 | 1003.1 |
| 20260507184410 | 62 | 201 | 10.0 | 22.0 | 0.00 | 1.06 | 1.06 | 59 | 1003.0 |
| 20260507184332 | 62 | 204 | 8.0 | 24.0 | 0.00 | 1.06 | 1.06 | 59 | 1003.0 |
| 20260507184232 | 62 | 202 | 11.0 | 24.0 | 0.00 | 1.06 | 1.06 | 59 | 1003.1 |
| 20260507184111 | 61 | 205 | 12.0 | 24.0 | 0.00 | 1.06 | 1.06 | 59 | 1002.9 |
| 20260507184010 | 61 | 206 | 8.0 | 24.0 | 0.00 | 1.06 | 1.06 | 60 | 1003.1 |
| 20260507183910 | 61 | 207 | 8.0 | 24.0 | 0.00 | 1.06 | 1.06 | 60 | 1002.8 |
| 20260507183832 | 61 | 207 | 13.0 | 24.0 | 0.00 | 1.06 | 1.06 | 59 | 1002.8 |
| 20260507183732 | 61 | 205 | 9.0 | 24.0 | 0.00 | 1.06 | 1.06 | 60 | 1002.9 |
| 20260507183610 | 61 | 199 | 10.0 | 24.0 | 0.00 | 1.06 | 1.06 | 60 | 1002.9 |
| 20260507183510 | 61 | 206 | 10.0 | 24.0 | 0.00 | 1.06 | 1.06 | 60 | 1002.9 |
| 20260507183410 | 61 | 207 | 14.0 | 24.0 | 0.00 | 1.06 | 1.06 | 59 | 1002.9 |
| 20260507183310 | 61 | 202 | 9.0 | 18.0 | 0.00 | 1.06 | 1.06 | 60 | 1002.9 |
| 20260507183210 | 61 | 211 | 11.0 | 18.0 | 0.00 | 1.06 | 1.06 | 60 | 1003.1 |
| 20260507183110 | 61 | 219 | 10.0 | 18.0 | 0.00 | 1.06 | 1.06 | 61 | 1003.3 |
| 20260507183011 | 60 | 222 | 4.0 | 18.0 | 0.00 | 1.06 | 1.06 | 62 | 1003.7 |
| 20260507182910 | 60 | 224 | 5.0 | 18.0 | 0.00 | 1.06 | 1.06 | 62 | 1003.8 |
| 20260507182811 | 60 | 223 | 5.0 | 18.0 | 0.00 | 1.06 | 1.06 | 62 | 1003.8 |
| 20260507182711 | 60 | 223 | 10.0 | 18.0 | 0.00 | 1.06 | 1.06 | 62 | 1003.6 |
| 20260507182611 | 60 | 227 | 8.0 | 18.0 | 0.00 | 1.06 | 1.06 | 62 | 1004.0 |
| 20260507182531 | 60 | 222 | 8.0 | 18.0 | 0.00 | 1.06 | 1.06 | 62 | 1004.0 |
| 20260507182411 | 60 | 220 | 6.0 | 18.0 | 0.00 | 1.06 | 1.06 | 63 | 1004.2 |
| 20260507182332 | 60 | 216 | 8.0 | 18.0 | 0.00 | 1.06 | 1.06 | 63 | 1004.1 |
| 20260507182232 | 60 | 215 | 7.0 | 18.0 | 0.00 | 1.06 | 1.06 | 63 | 1004.1 |
| 20260507182111 | 60 | 204 | 8.0 | 16.0 | 0.00 | 1.06 | 1.06 | 63 | 1004.1 |
| 20260507182011 | 60 | 200 | 8.0 | 16.0 | 0.00 | 1.06 | 1.06 | 64 | 1003.9 |
| 20260507181932 | 60 | 201 | 3.0 | 16.0 | 0.00 | 1.06 | 1.06 | 64 | 1003.9 |
| 20260507181811 | 60 | 200 | 7.0 | 16.0 | 0.00 | 1.06 | 1.06 | 63 | 1003.9 |
| 20260507181711 | 60 | 199 | 9.0 | 16.0 | 0.00 | 1.06 | 1.06 | 63 | 1004.0 |
| 20260507181632 | 61 | 198 | 8.0 | 16.0 | 0.00 | 1.06 | 1.06 | 63 | 1004.1 |
| 20260507181510 | 61 | 199 | 8.0 | 16.0 | 0.00 | 1.06 | 1.06 | 63 | 1004.1 |
| 20260507181410 | 61 | 202 | 8.0 | 16.0 | 0.00 | 1.06 | 1.06 | 62 | 1004.2 |
| 20260507181310 | 60 | 206 | 8.0 | 16.0 | 0.00 | 1.06 | 1.06 | 63 | 1004.1 |
| 20260507181210 | 60 | 214 | 10.0 | 16.0 | 0.00 | 1.06 | 1.06 | 63 | 1004.1 |
| 20260507181110 | 60 | 222 | 6.0 | 15.0 | 0.00 | 1.06 | 1.06 | 63 | 1004.2 |
| 20260507181011 | 60 | 228 | 8.0 | 15.0 | 0.00 | 1.06 | 1.06 | 63 | 1004.3 |
| 20260507180932 | 60 | 226 | 8.0 | 15.0 | 0.00 | 1.06 | 1.06 | 63 | 1004.3 |
| 20260507180810 | 60 | 225 | 5.0 | 15.0 | 0.00 | 1.06 | 1.06 | 64 | 1004.2 |
| 20260507180710 | 60 | 226 | 6.0 | 15.0 | 0.00 | 1.06 | 1.06 | 65 | 1004.1 |
| 20260507180611 | 59 | 232 | 6.0 | 15.0 | 0.00 | 1.06 | 1.06 | 65 | 1004.4 |
| 20260507180511 | 59 | 228 | 7.0 | 15.0 | 0.00 | 1.06 | 1.06 | 64 | 1004.2 |
| 20260507180411 | 59 | 233 | 8.0 | 15.0 | 0.00 | 1.06 | 1.06 | 65 | 1004.1 |
| 20260507180331 | 59 | 235 | 8.0 | 15.0 | 0.00 | 1.06 | 1.06 | 65 | 1004.2 |
| 20260507180211 | 59 | 230 | 7.0 | 13.0 | 0.00 | 1.06 | 1.06 | 66 | 1004.2 |
| 20260507180111 | 59 | 226 | 6.0 | 13.0 | 0.00 | 1.06 | 1.06 | 66 | 1004.3 |
| 20260507180011 | 59 | 221 | 6.0 | 13.0 | 0.00 | 1.06 | 1.06 | 66 | 1004.2 |
| 20260507175932 | 59 | 230 | 6.0 | 13.0 | 0.00 | 1.06 | 1.06 | 66 | 1004.4 |
| 20260507175832 | 59 | 240 | 7.0 | 13.0 | 0.00 | 1.06 | 1.06 | 66 | 1004.4 |
| 20260507175710 | 59 | 249 | 5.0 | 11.0 | 0.00 | 1.06 | 1.06 | 66 | 1004.5 |
| 20260507175610 | 59 | 247 | 6.0 | 11.0 | 0.00 | 1.06 | 1.06 | 66 | 1004.6 |
| 20260507175510 | 59 | 253 | 4.0 | 14.0 | 0.00 | 1.06 | 1.06 | 66 | 1004.9 |
| 20260507175432 | 59 | 250 | 4.0 | 14.0 | 0.00 | 1.06 | 1.06 | 66 | 1005.1 |
| 20260507175310 | 59 | 247 | 4.0 | 14.0 | 0.00 | 1.06 | 1.06 | 66 | 1005.2 |
| 20260507175210 | 59 | 252 | 4.0 | 14.0 | 0.00 | 1.06 | 1.06 | 66 | 1005.1 |
| 20260507175110 | 59 | 251 | 7.0 | 14.0 | 0.00 | 1.06 | 1.06 | 66 | 1005.2 |
| 20260507175032 | 59 | 251 | 4.0 | 14.0 | 0.00 | 1.06 | 1.06 | 66 | 1005.2 |
| 20260507174910 | 59 | 245 | 4.0 | 14.0 | 0.00 | 1.06 | 1.06 | 66 | 1005.4 |
| 20260507174810 | 59 | 245 | 4.0 | 14.0 | 0.00 | 1.06 | 1.06 | 66 | 1005.4 |
| 20260507174710 | 59 | 246 | 5.0 | 14.0 | 0.00 | 1.06 | 1.06 | 65 | 1005.5 |
| 20260507174611 | 59 | 243 | 7.0 | 14.0 | 0.00 | 1.06 | 1.06 | 66 | 1005.5 |
| 20260507174511 | 59 | 241 | 7.0 | 14.0 | 0.00 | 1.06 | 1.06 | 66 | 1005.5 |
| 20260507174410 | 59 | 248 | 6.0 | 16.0 | 0.00 | 1.06 | 1.06 | 66 | 1005.6 |
| 20260507174311 | 59 | 246 | 4.0 | 16.0 | 0.00 | 1.06 | 1.06 | 66 | 1005.6 |
| 20260507174211 | 59 | 241 | 5.0 | 16.0 | 0.00 | 1.06 | 1.06 | 66 | 1005.6 |
| 20260507174110 | 59 | 241 | 6.0 | 16.0 | 0.00 | 1.06 | 1.06 | 66 | 1005.7 |
| 20260507174010 | 59 | 246 | 4.0 | 16.0 | 0.00 | 1.06 | 1.06 | 66 | 1005.4 |
| 20260507173910 | 59 | 244 | 4.0 | 16.0 | 0.00 | 1.06 | 1.06 | 66 | 1005.5 |
| 20260507173810 | 59 | 246 | 5.0 | 16.0 | 0.00 | 1.06 | 1.06 | 66 | 1005.3 |
| 20260507173710 | 58 | 249 | 6.0 | 16.0 | 0.00 | 1.06 | 1.06 | 66 | 1005.3 |
| 20260507173610 | 58 | 254 | 7.0 | 16.0 | 0.00 | 1.06 | 1.06 | 66 | 1005.5 |
| 20260507173510 | 58 | 249 | 5.0 | 16.0 | 0.00 | 1.06 | 1.06 | 66 | 1005.6 |
| 20260507173410 | 58 | 245 | 6.0 | 18.0 | 0.00 | 1.06 | 1.06 | 67 | 1005.8 |
| 20260507173310 | 58 | 245 | 7.0 | 18.0 | 0.00 | 1.06 | 1.06 | 67 | 1005.6 |
| 20260507173210 | 58 | 250 | 5.0 | 18.0 | 0.00 | 1.06 | 1.06 | 67 | 1005.7 |
| 20260507173110 | 58 | 244 | 4.0 | 18.0 | 0.00 | 1.06 | 1.06 | 67 | 1005.6 |
| 20260507173011 | 58 | 235 | 5.0 | 18.0 | 0.00 | 1.06 | 1.06 | 67 | 1005.8 |
| 20260507172910 | 58 | 241 | 5.0 | 18.0 | 0.00 | 1.06 | 1.06 | 67 | 1005.7 |
| 20260507172810 | 58 | 241 | 7.0 | 18.0 | 0.00 | 1.06 | 1.06 | 67 | 1005.8 |
| 20260507172711 | 58 | 232 | 4.0 | 18.0 | 0.00 | 1.06 | 1.06 | 67 | 1005.8 |
| 20260507172632 | 58 | 230 | 8.0 | 18.0 | 0.00 | 1.06 | 1.06 | 67 | 1005.7 |
| 20260507172510 | 58 | 233 | 6.0 | 18.0 | 0.00 | 1.06 | 1.06 | 67 | 1005.9 |
| 20260507172411 | 58 | 234 | 9.0 | 18.0 | 0.00 | 1.06 | 1.06 | 67 | 1005.8 |
| 20260507172310 | 58 | 239 | 4.0 | 14.0 | 0.00 | 1.06 | 1.06 | 67 | 1006.0 |
| 20260507172210 | 58 | 239 | 6.0 | 14.0 | 0.00 | 1.06 | 1.06 | 67 | 1005.9 |
| 20260507172111 | 58 | 241 | 6.0 | 14.0 | 0.00 | 1.06 | 1.06 | 67 | 1006.0 |
| 20260507172010 | 58 | 243 | 6.0 | 14.0 | 0.00 | 1.06 | 1.06 | 67 | 1005.9 |
| 20260507171910 | 58 | 247 | 5.0 | 14.0 | 0.00 | 1.06 | 1.06 | 67 | 1006.0 |
| 20260507171810 | 58 | 245 | 4.0 | 14.0 | 0.00 | 1.06 | 1.06 | 68 | 1005.8 |
| 20260507171710 | 58 | 247 | 6.0 | 15.0 | 0.00 | 1.06 | 1.06 | 68 | 1006.0 |
| 20260507171610 | 58 | 253 | 8.0 | 15.0 | 0.00 | 1.06 | 1.06 | 68 | 1006.0 |
| 20260507171510 | 58 | 254 | 9.0 | 15.0 | 0.00 | 1.06 | 1.06 | 68 | 1006.0 |
| 20260507171410 | 58 | 255 | 4.0 | 15.0 | 0.00 | 1.06 | 1.06 | 68 | 1006.1 |
| 20260507171311 | 58 | 255 | 7.0 | 15.0 | 0.00 | 1.06 | 1.06 | 68 | 1006.0 |
| 20260507171232 | 58 | 251 | 8.0 | 15.0 | 0.00 | 1.06 | 1.06 | 68 | 1006.0 |
| 20260507171132 | 58 | 256 | 8.0 | 15.0 | 0.00 | 1.06 | 1.06 | 68 | 1006.3 |
| 20260507171014 | 58 | 260 | 6.0 | 15.0 | 0.00 | 1.06 | 1.06 | 68 | 1006.1 |
| 20260507170911 | 58 | 260 | 7.0 | 15.0 | 0.00 | 1.06 | 1.06 | 68 | 1006.1 |
| 20260507170832 | 58 | 260 | 7.0 | 15.0 | 0.00 | 1.06 | 1.06 | 68 | 1006.3 |
| 20260507170711 | 58 | 259 | 8.0 | 15.0 | 0.00 | 1.06 | 1.06 | 68 | 1006.2 |
| 20260507170610 | 58 | 253 | 6.0 | 15.0 | 0.00 | 1.06 | 1.06 | 69 | 1006.3 |
| 20260507170510 | 58 | 256 | 6.0 | 15.0 | 0.00 | 1.06 | 1.06 | 69 | 1006.5 |
| 20260507170432 | 58 | 252 | 6.0 | 15.0 | 0.00 | 1.06 | 1.06 | 69 | 1006.5 |
| 20260507170310 | 58 | 248 | 5.0 | 15.0 | 0.00 | 1.06 | 1.06 | 69 | 1006.6 |
| 20260507170232 | 58 | 245 | 5.0 | 15.0 | 0.00 | 1.06 | 1.06 | 70 | 1006.5 |
| 20260507170110 | 58 | 248 | 8.0 | 15.0 | 0.00 | 1.06 | 1.06 | 70 | 1006.5 |
| 20260507170011 | 58 | 243 | 5.0 | 15.0 | 0.00 | 1.06 | 1.06 | 70 | 1006.6 |
| 20260507165910 | 58 | 235 | 4.0 | 15.0 | 0.00 | 1.06 | 1.06 | 70 | 1006.7 |
| 20260507165810 | 58 | 231 | 4.0 | 15.0 | 0.00 | 1.06 | 1.06 | 70 | 1006.6 |
| 20260507165710 | 58 | 231 | 8.0 | 15.0 | 0.00 | 1.06 | 1.06 | 69 | 1006.7 |
| 20260507165610 | 58 | 244 | 4.0 | 13.0 | 0.00 | 1.06 | 1.06 | 70 | 1006.6 |
| 20260507165510 | 58 | 236 | 4.0 | 13.0 | 0.00 | 1.06 | 1.06 | 70 | 1006.8 |
| 20260507165410 | 58 | 246 | 8.0 | 17.0 | 0.00 | 1.06 | 1.06 | 69 | 1006.5 |
| 20260507165310 | 58 | 248 | 5.0 | 17.0 | 0.00 | 1.06 | 1.06 | 69 | 1006.5 |
| 20260507165210 | 58 | 255 | 5.0 | 17.0 | 0.00 | 1.06 | 1.06 | 69 | 1006.5 |
| 20260507165110 | 58 | 245 | 4.0 | 17.0 | 0.00 | 1.06 | 1.06 | 69 | 1006.4 |
| 20260507165032 | 58 | 246 | 4.0 | 17.0 | 0.00 | 1.06 | 1.06 | 69 | 1006.4 |
| 20260507164910 | 58 | 249 | 5.0 | 17.0 | 0.00 | 1.06 | 1.06 | 69 | 1006.1 |
| 20260507164810 | 58 | 243 | 8.0 | 17.0 | 0.00 | 1.06 | 1.06 | 69 | 1006.4 |
| 20260507164731 | 58 | 239 | 4.0 | 17.0 | 0.00 | 1.06 | 1.06 | 69 | 1006.1 |
| 20260507164632 | 58 | 242 | 5.0 | 17.0 | 0.00 | 1.06 | 1.06 | 69 | 1006.0 |
| 20260507164532 | 58 | 241 | 4.0 | 17.0 | 0.00 | 1.06 | 1.06 | 69 | 1006.0 |
| 20260507164410 | 58 | 245 | 6.0 | 17.0 | 0.00 | 1.06 | 1.06 | 70 | 1006.0 |
| 20260507164310 | 58 | 238 | 7.0 | 16.0 | 0.00 | 1.06 | 1.06 | 70 | 1005.9 |
| 20260507164210 | 58 | 238 | 7.0 | 16.0 | 0.00 | 1.06 | 1.06 | 70 | 1006.0 |
| 20260507164110 | 58 | 243 | 5.0 | 16.0 | 0.00 | 1.06 | 1.06 | 70 | 1006.0 |
| 20260507164011 | 58 | 244 | 5.0 | 16.0 | 0.00 | 1.06 | 1.06 | 70 | 1006.1 |
| 20260507163910 | 58 | 249 | 6.0 | 16.0 | 0.00 | 1.06 | 1.06 | 70 | 1006.1 |
| 20260507163811 | 58 | 247 | 6.0 | 16.0 | 0.00 | 1.06 | 1.06 | 70 | 1006.2 |
| 20260507163710 | 58 | 256 | 6.0 | 16.0 | 0.00 | 1.06 | 1.06 | 70 | 1006.3 |
| 20260507163610 | 58 | 260 | 9.0 | 16.0 | 0.00 | 1.06 | 1.06 | 70 | 1006.2 |
| 20260507163532 | 58 | 259 | 5.0 | 13.0 | 0.00 | 1.06 | 1.06 | 70 | 1006.2 |
| 20260507163410 | 58 | 255 | 8.0 | 13.0 | 0.00 | 1.06 | 1.06 | 70 | 1006.0 |
| 20260507163310 | 58 | 258 | 7.0 | 13.0 | 0.00 | 1.06 | 1.06 | 71 | 1006.1 |
| 20260507163210 | 58 | 251 | 4.0 | 13.0 | 0.00 | 1.06 | 1.06 | 71 | 1006.3 |
| 20260507163132 | 58 | 247 | 3.0 | 13.0 | 0.00 | 1.06 | 1.06 | 71 | 1006.1 |
| 20260507163011 | 58 | 251 | 5.0 | 13.0 | 0.00 | 1.06 | 1.06 | 71 | 1006.2 |
| 20260507162932 | 58 | 250 | 5.0 | 13.0 | 0.00 | 1.06 | 1.06 | 71 | 1006.2 |
| 20260507162810 | 58 | 262 | 7.0 | 13.0 | 0.00 | 1.06 | 1.06 | 72 | 1006.0 |
| 20260507162711 | 58 | 264 | 4.0 | 11.0 | 0.00 | 1.06 | 1.06 | 72 | 1006.0 |
| 20260507162611 | 58 | 255 | 7.0 | 11.0 | 0.00 | 1.06 | 1.06 | 72 | 1005.9 |
| 20260507162510 | 58 | 259 | 4.0 | 11.0 | 0.00 | 1.06 | 1.06 | 72 | 1005.9 |
| 20260507162410 | 58 | 256 | 4.0 | 11.0 | 0.00 | 1.06 | 1.06 | 73 | 1005.7 |
| 20260507162310 | 58 | 255 | 6.0 | 11.0 | 0.00 | 1.06 | 1.06 | 73 | 1005.7 |
| 20260507162232 | 58 | 256 | 4.0 | 11.0 | 0.00 | 1.06 | 1.06 | 73 | 1005.6 |
| 20260507162132 | 58 | 260 | 5.0 | 11.0 | 0.00 | 1.06 | 1.06 | 73 | 1005.6 |
| 20260507162010 | 58 | 253 | 4.0 | 11.0 | 0.00 | 1.06 | 1.06 | 74 | 1005.4 |
| 20260507161910 | 58 | 254 | 4.0 | 13.0 | 0.00 | 1.06 | 1.06 | 74 | 1005.3 |
| 20260507161810 | 58 | 250 | 4.0 | 13.0 | 0.00 | 1.06 | 1.06 | 74 | 1005.5 |
| 20260507161710 | 58 | 252 | 6.0 | 13.0 | 0.00 | 1.06 | 1.06 | 74 | 1005.5 |
| 20260507161611 | 58 | 249 | 7.0 | 13.0 | 0.00 | 1.06 | 1.06 | 74 | 1005.4 |
| 20260507161511 | 58 | 248 | 4.0 | 13.0 | 0.00 | 1.06 | 1.06 | 74 | 1005.4 |
| 20260507161432 | 57 | 244 | 3.0 | 13.0 | 0.00 | 1.06 | 1.06 | 74 | 1005.5 |
| 20260507161311 | 57 | 239 | 4.0 | 13.0 | 0.00 | 1.06 | 1.06 | 74 | 1005.3 |
| 20260507161210 | 57 | 231 | 4.0 | 13.0 | 0.00 | 1.06 | 1.06 | 74 | 1005.4 |
| 20260507161111 | 57 | 232 | 4.0 | 13.0 | 0.00 | 1.06 | 1.06 | 74 | 1005.4 |
| 20260507161032 | 57 | 231 | 4.0 | 13.0 | 0.00 | 1.06 | 1.06 | 74 | 1005.5 |
| 20260507160911 | 57 | 231 | 6.0 | 13.0 | 0.00 | 1.06 | 1.06 | 73 | 1005.3 |
| 20260507160811 | 57 | 231 | 6.0 | 14.0 | 0.00 | 1.06 | 1.06 | 73 | 1005.5 |
| 20260507160711 | 57 | 235 | 4.0 | 15.0 | 0.00 | 1.06 | 1.06 | 73 | 1005.3 |
| 20260507160611 | 57 | 244 | 4.0 | 15.0 | 0.00 | 1.06 | 1.06 | 73 | 1005.1 |
| 20260507160510 | 57 | 243 | 4.0 | 15.0 | 0.00 | 1.06 | 1.06 | 73 | 1005.1 |
| 20260507160411 | 57 | 248 | 4.0 | 15.0 | 0.00 | 1.06 | 1.06 | 73 | 1005.0 |
| 20260507160311 | 57 | 243 | 4.0 | 15.0 | 0.00 | 1.06 | 1.06 | 73 | 1005.1 |
| 20260507160212 | 57 | 244 | 2.0 | 15.0 | 0.00 | 1.06 | 1.06 | 72 | 1004.7 |
| 20260507160111 | 57 | 236 | 6.0 | 15.0 | 0.00 | 1.06 | 1.06 | 72 | 1005.0 |
| 20260507160011 | 57 | 236 | 5.0 | 15.0 | 0.00 | 1.06 | 1.06 | 72 | 1004.9 |
| 20260507155911 | 57 | 233 | 7.0 | 15.0 | 0.00 | 1.06 | 1.06 | 71 | 1004.9 |
| 20260507155831 | 57 | 231 | 6.0 | 15.0 | 0.00 | 1.06 | 1.06 | 71 | 1004.9 |
| 20260507155710 | 57 | 222 | 3.0 | 11.0 | 0.00 | 1.06 | 1.06 | 71 | 1004.9 |
| 20260507155610 | 57 | 216 | 4.0 | 11.0 | 0.00 | 1.06 | 1.06 | 71 | 1004.8 |
| 20260507155532 | 57 | 211 | 5.0 | 11.0 | 0.00 | 1.06 | 1.06 | 71 | 1004.6 |
| 20260507155410 | 57 | 211 | 5.0 | 11.0 | 0.00 | 1.06 | 1.06 | 71 | 1004.5 |
| 20260507155310 | 58 | 217 | 6.0 | 11.0 | 0.00 | 1.06 | 1.06 | 70 | 1004.6 |
| 20260507155232 | 58 | 217 | 4.0 | 11.0 | 0.00 | 1.06 | 1.06 | 70 | 1004.6 |
| 20260507155131 | 58 | 227 | 5.0 | 13.0 | 0.00 | 1.06 | 1.06 | 70 | 1004.5 |
| 20260507155010 | 58 | 221 | 4.0 | 13.0 | 0.00 | 1.06 | 1.06 | 70 | 1004.5 |
| 20260507154910 | 58 | 219 | 4.0 | 13.0 | 0.00 | 1.06 | 1.06 | 70 | 1004.4 |
| 20260507154810 | 58 | 220 | 5.0 | 13.0 | 0.00 | 1.06 | 1.06 | 69 | 1004.5 |
| 20260507154710 | 58 | 216 | 6.0 | 13.0 | 0.00 | 1.06 | 1.06 | 70 | 1004.6 |
| 20260507154611 | 58 | 214 | 6.0 | 13.0 | 0.00 | 1.06 | 1.06 | 69 | 1004.5 |
| 20260507154510 | 58 | 213 | 4.0 | 13.0 | 0.00 | 1.06 | 1.06 | 69 | 1004.8 |
| 20260507154410 | 58 | 210 | 4.0 | 13.0 | 0.00 | 1.06 | 1.06 | 69 | 1005.0 |
| 20260507154310 | 58 | 213 | 6.0 | 13.0 | 0.00 | 1.06 | 1.06 | 69 | 1005.1 |
| 20260507154211 | 58 | 211 | 5.0 | 15.0 | 0.00 | 1.06 | 1.06 | 69 | 1005.0 |
| 20260507154110 | 58 | 202 | 4.0 | 15.0 | 0.00 | 1.06 | 1.06 | 69 | 1005.2 |
| 20260507154032 | 58 | 206 | 6.0 | 15.0 | 0.00 | 1.06 | 1.06 | 69 | 1005.1 |
| 20260507153910 | 58 | 209 | 5.0 | 15.0 | 0.00 | 1.06 | 1.06 | 69 | 1005.4 |
| 20260507153810 | 58 | 207 | 4.0 | 15.0 | 0.00 | 1.06 | 1.06 | 69 | 1005.4 |
| 20260507153732 | 58 | 212 | 4.0 | 15.0 | 0.00 | 1.06 | 1.06 | 69 | 1005.4 |
| 20260507153610 | 58 | 229 | 5.0 | 15.0 | 0.00 | 1.06 | 1.06 | 69 | 1005.4 |
| 20260507153510 | 58 | 237 | 5.0 | 15.0 | 0.00 | 1.06 | 1.06 | 69 | 1005.7 |
| 20260507153410 | 58 | 244 | 7.0 | 15.0 | 0.00 | 1.06 | 1.06 | 69 | 1005.7 |
| 20260507153310 | 58 | 233 | 5.0 | 15.0 | 0.00 | 1.06 | 1.06 | 69 | 1005.7 |
| 20260507153232 | 58 | 234 | 10.0 | 15.0 | 0.00 | 1.06 | 1.06 | 69 | 1005.7 |
| 20260507153110 | 58 | 250 | 6.0 | 11.0 | 0.00 | 1.06 | 1.06 | 69 | 1005.9 |
| 20260507153033 | 58 | 248 | 4.0 | 11.0 | 0.00 | 1.06 | 1.06 | 69 | 1005.9 |
| 20260507152910 | 58 | 240 | 3.0 | 11.0 | 0.00 | 1.06 | 1.06 | 69 | 1006.2 |
| 20260507152832 | 58 | 245 | 3.0 | 11.0 | 0.00 | 1.06 | 1.06 | 69 | 1006.3 |
| 20260507152710 | 58 | 233 | 4.0 | 11.0 | 0.00 | 1.06 | 1.06 | 69 | 1006.4 |
| 20260507152632 | 58 | 230 | 4.0 | 11.0 | 0.00 | 1.06 | 1.06 | 69 | 1006.6 |
| 20260507152511 | 58 | 223 | 5.0 | 11.0 | 0.00 | 1.06 | 1.06 | 69 | 1006.9 |
| 20260507152411 | 58 | 219 | 3.0 | 11.0 | 0.00 | 1.06 | 1.06 | 69 | 1006.8 |
| 20260507152311 | 58 | 220 | 4.0 | 11.0 | 0.00 | 1.06 | 1.06 | 69 | 1006.6 |
| 20260507152211 | 58 | 228 | 5.0 | 11.0 | 0.00 | 1.06 | 1.06 | 69 | 1006.9 |
| 20260507152110 | 58 | 220 | 4.0 | 11.0 | 0.00 | 1.06 | 1.06 | 70 | 1007.0 |
| 20260507152010 | 58 | 226 | 4.0 | 11.0 | 0.00 | 1.06 | 1.06 | 70 | 1006.8 |
| 20260507151910 | 58 | 232 | 6.0 | 11.0 | 0.00 | 1.06 | 1.06 | 70 | 1006.9 |
| 20260507151810 | 58 | 227 | 3.0 | 11.0 | 0.00 | 1.06 | 1.06 | 70 | 1007.1 |
| 20260507151732 | 58 | 229 | 3.0 | 11.0 | 0.00 | 1.06 | 1.06 | 70 | 1007.1 |
| 20260507151611 | 58 | 240 | 4.0 | 11.0 | 0.00 | 1.06 | 1.06 | 70 | 1007.1 |
| 20260507151511 | 58 | 240 | 6.0 | 11.0 | 0.00 | 1.06 | 1.06 | 70 | 1007.1 |
| 20260507151410 | 58 | 243 | 5.0 | 11.0 | 0.00 | 1.06 | 1.06 | 71 | 1007.3 |
| 20260507151310 | 58 | 244 | 5.0 | 11.0 | 0.00 | 1.06 | 1.06 | 71 | 1007.2 |
| 20260507151211 | 58 | 245 | 3.0 | 11.0 | 0.00 | 1.06 | 1.06 | 71 | 1007.3 |
| 20260507151111 | 58 | 242 | 4.0 | 11.0 | 0.00 | 1.06 | 1.06 | 72 | 1007.2 |
| 20260507151010 | 58 | 252 | 4.0 | 11.0 | 0.00 | 1.06 | 1.06 | 72 | 1007.4 |
| 20260507150911 | 58 | 262 | 4.0 | 11.0 | 0.00 | 1.06 | 1.06 | 72 | 1007.3 |
| 20260507150810 | 58 | 268 | 4.0 | 11.0 | 0.00 | 1.06 | 1.06 | 72 | 1007.5 |
| 20260507150711 | 58 | 265 | 4.0 | 11.0 | 0.00 | 1.06 | 1.06 | 72 | 1007.5 |
| 20260507150610 | 58 | 252 | 4.0 | 11.0 | 0.00 | 1.06 | 1.06 | 72 | 1007.6 |
| 20260507150531 | 58 | 252 | 4.0 | 11.0 | 0.00 | 1.06 | 1.06 | 72 | 1007.6 |
| 20260507150410 | 58 | 251 | 6.0 | 11.0 | 0.00 | 1.06 | 1.06 | 72 | 1007.8 |
| 20260507150332 | 58 | 252 | 4.0 | 11.0 | 0.00 | 1.06 | 1.06 | 72 | 1007.7 |
| 20260507150210 | 58 | 256 | 6.0 | 11.0 | 0.00 | 1.06 | 1.06 | 73 | 1007.8 |
| 20260507150110 | 58 | 264 | 4.0 | 11.0 | 0.00 | 1.06 | 1.06 | 73 | 1007.8 |
| 20260507150011 | 58 | 254 | 7.0 | 11.0 | 0.00 | 1.06 | 1.06 | 73 | 1007.8 |
| 20260507145910 | 58 | 248 | 5.0 | 11.0 | 0.00 | 1.06 | 1.06 | 73 | 1007.7 |
| 20260507145810 | 58 | 247 | 3.0 | 11.0 | 0.00 | 1.06 | 1.06 | 74 | 1007.6 |
| 20260507145710 | 58 | 248 | 7.0 | 11.0 | 0.00 | 1.06 | 1.06 | 74 | 1007.7 |
| 20260507145610 | 58 | 248 | 3.0 | 11.0 | 0.00 | 1.06 | 1.06 | 74 | 1007.6 |
| 20260507145510 | 58 | 254 | 3.0 | 11.0 | 0.00 | 1.06 | 1.06 | 74 | 1007.5 |
| 20260507145411 | 58 | 252 | 4.0 | 11.0 | 0.00 | 1.06 | 1.06 | 74 | 1007.6 |
| 20260507145310 | 58 | 248 | 3.0 | 11.0 | 0.00 | 1.06 | 1.06 | 74 | 1007.8 |
| 20260507145211 | 58 | 244 | 5.0 | 11.0 | 0.00 | 1.06 | 1.06 | 74 | 1007.6 |
| 20260507145110 | 58 | 233 | 5.0 | 11.0 | 0.00 | 1.06 | 1.06 | 74 | 1007.7 |
| 20260507145010 | 58 | 233 | 6.0 | 11.0 | 0.00 | 1.06 | 1.06 | 73 | 1007.7 |
| 20260507144910 | 58 | 229 | 6.0 | 11.0 | 0.00 | 1.06 | 1.06 | 73 | 1007.5 |
| 20260507144810 | 58 | 229 | 5.0 | 11.0 | 0.00 | 1.06 | 1.06 | 73 | 1007.5 |
| 20260507144710 | 58 | 221 | 5.0 | 13.0 | 0.00 | 1.06 | 1.06 | 73 | 1007.5 |
| 20260507144632 | 58 | 223 | 4.0 | 13.0 | 0.00 | 1.06 | 1.06 | 72 | 1007.3 |
| 20260507144510 | 58 | 208 | 3.0 | 13.0 | 0.00 | 1.06 | 1.06 | 72 | 1007.2 |
| 20260507144410 | 58 | 204 | 5.0 | 15.0 | 0.00 | 1.06 | 1.06 | 71 | 1006.8 |
| 20260507144310 | 58 | 203 | 6.0 | 15.0 | 0.00 | 1.06 | 1.06 | 71 | 1006.8 |
| 20260507144210 | 58 | 205 | 3.0 | 17.0 | 0.00 | 1.06 | 1.06 | 71 | 1006.6 |
| 20260507144110 | 58 | 209 | 3.0 | 17.0 | 0.00 | 1.06 | 1.06 | 71 | 1006.6 |
| 20260507144010 | 58 | 205 | 5.0 | 17.0 | 0.00 | 1.06 | 1.06 | 71 | 1006.5 |
| 20260507143910 | 58 | 202 | 6.0 | 17.0 | 0.00 | 1.06 | 1.06 | 70 | 1006.2 |
| 20260507143832 | 58 | 203 | 7.0 | 17.0 | 0.00 | 1.06 | 1.06 | 70 | 1006.2 |
| 20260507143710 | 58 | 202 | 7.0 | 17.0 | 0.00 | 1.06 | 1.06 | 70 | 1005.9 |
| 20260507143610 | 58 | 202 | 5.0 | 17.0 | 0.00 | 1.06 | 1.06 | 70 | 1005.9 |
| 20260507143510 | 58 | 210 | 7.0 | 17.0 | 0.00 | 1.06 | 1.06 | 70 | 1005.7 |
| 20260507143410 | 58 | 218 | 9.0 | 17.0 | 0.00 | 1.06 | 1.06 | 70 | 1005.6 |
| 20260507143311 | 58 | 219 | 9.0 | 17.0 | 0.00 | 1.06 | 1.06 | 70 | 1005.6 |
| 20260507143210 | 58 | 219 | 8.0 | 17.0 | 0.00 | 1.06 | 1.06 | 70 | 1005.6 |
| 20260507143110 | 58 | 221 | 8.0 | 16.0 | 0.00 | 1.06 | 1.06 | 70 | 1005.6 |
| 20260507143011 | 58 | 222 | 8.0 | 16.0 | 0.00 | 1.06 | 1.06 | 70 | 1005.4 |
| 20260507142910 | 58 | 225 | 9.0 | 16.0 | 0.00 | 1.06 | 1.06 | 70 | 1005.7 |
| 20260507142810 | 58 | 232 | 8.0 | 16.0 | 0.00 | 1.06 | 1.06 | 71 | 1005.7 |
| 20260507142710 | 58 | 232 | 7.0 | 16.0 | 0.00 | 1.06 | 1.06 | 71 | 1006.0 |
| 20260507142610 | 58 | 227 | 5.0 | 16.0 | 0.00 | 1.06 | 1.06 | 71 | 1005.8 |
| 20260507142510 | 58 | 222 | 7.0 | 16.0 | 0.00 | 1.06 | 1.06 | 71 | 1006.0 |
| 20260507142410 | 58 | 215 | 7.0 | 16.0 | 0.00 | 1.06 | 1.06 | 71 | 1005.8 |
| 20260507142310 | 58 | 209 | 8.0 | 16.0 | 0.00 | 1.06 | 1.06 | 71 | 1005.9 |
| 20260507142232 | 58 | 207 | 8.0 | 16.0 | 0.00 | 1.06 | 1.06 | 72 | 1005.8 |
| 20260507142132 | 58 | 201 | 8.0 | 16.0 | 0.00 | 1.06 | 1.06 | 72 | 1005.8 |
| 20260507142011 | 58 | 208 | 8.0 | 16.0 | 0.00 | 1.06 | 1.06 | 71 | 1005.7 |
| 20260507141910 | 58 | 200 | 8.0 | 16.0 | 0.00 | 1.06 | 1.06 | 72 | 1005.5 |
| 20260507141810 | 58 | 195 | 7.0 | 16.0 | 0.00 | 1.06 | 1.06 | 71 | 1005.3 |
| 20260507141710 | 58 | 199 | 10.0 | 16.0 | 0.00 | 1.06 | 1.06 | 71 | 1005.5 |
| 20260507141610 | 58 | 207 | 6.0 | 15.0 | 0.00 | 1.06 | 1.06 | 71 | 1005.7 |
| 20260507141510 | 58 | 214 | 6.0 | 17.0 | 0.00 | 1.06 | 1.06 | 71 | 1005.9 |
| 20260507141410 | 58 | 213 | 6.0 | 17.0 | 0.00 | 1.06 | 1.06 | 71 | 1006.2 |
| 20260507141310 | 58 | 216 | 6.0 | 17.0 | 0.00 | 1.06 | 1.06 | 71 | 1006.2 |
| 20260507141210 | 58 | 218 | 7.0 | 17.0 | 0.00 | 1.06 | 1.06 | 71 | 1006.1 |
| 20260507141110 | 59 | 213 | 5.0 | 17.0 | 0.00 | 1.06 | 1.06 | 71 | 1006.2 |
| 20260507141010 | 59 | 196 | 8.0 | 17.0 | 0.00 | 1.06 | 1.06 | 70 | 1006.1 |
| 20260507140911 | 59 | 195 | 6.0 | 17.0 | 0.00 | 1.06 | 1.06 | 70 | 1006.0 |
| 20260507140810 | 59 | 203 | 5.0 | 17.0 | 0.00 | 1.06 | 1.06 | 70 | 1005.8 |
| 20260507140710 | 59 | 192 | 5.0 | 18.0 | 0.00 | 1.06 | 1.06 | 70 | 1005.7 |
| 20260507140610 | 59 | 182 | 7.0 | 18.0 | 0.00 | 1.06 | 1.06 | 70 | 1005.6 |
| 20260507140510 | 59 | 179 | 8.0 | 18.0 | 0.00 | 1.06 | 1.06 | 70 | 1005.6 |
| 20260507140410 | 59 | 182 | 10.0 | 18.0 | 0.00 | 1.06 | 1.06 | 71 | 1005.5 |
| 20260507140310 | 59 | 189 | 4.0 | 18.0 | 0.00 | 1.06 | 1.06 | 71 | 1005.6 |
| 20260507140232 | 59 | 192 | 7.0 | 18.0 | 0.00 | 1.06 | 1.06 | 71 | 1005.5 |
| 20260507140132 | 59 | 201 | 8.0 | 18.0 | 0.00 | 1.06 | 1.06 | 71 | 1005.6 |
| 20260507140011 | 59 | 213 | 9.0 | 18.0 | 0.00 | 1.06 | 1.06 | 71 | 1005.7 |
| 20260507135910 | 59 | 214 | 7.0 | 18.0 | 0.00 | 1.06 | 1.06 | 71 | 1005.7 |
| 20260507135810 | 59 | 199 | 11.0 | 18.0 | 0.00 | 1.06 | 1.06 | 71 | 1005.7 |
| 20260507135710 | 59 | 201 | 4.0 | 16.0 | 0.00 | 1.06 | 1.06 | 71 | 1005.9 |
| 20260507135610 | 59 | 204 | 8.0 | 16.0 | 0.00 | 1.06 | 1.06 | 72 | 1005.7 |
| 20260507135510 | 59 | 204 | 6.0 | 16.0 | 0.00 | 1.06 | 1.06 | 72 | 1005.8 |
| 20260507135410 | 59 | 196 | 7.0 | 16.0 | 0.00 | 1.06 | 1.06 | 72 | 1005.7 |
| 20260507135310 | 59 | 193 | 6.0 | 18.0 | 0.00 | 1.06 | 1.06 | 72 | 1005.8 |
| 20260507135232 | 59 | 192 | 8.0 | 18.0 | 0.00 | 1.06 | 1.06 | 72 | 1005.5 |
| 20260507135110 | 59 | 187 | 7.0 | 18.0 | 0.00 | 1.06 | 1.06 | 73 | 1005.5 |
| 20260507135010 | 59 | 190 | 7.0 | 18.0 | 0.00 | 1.06 | 1.06 | 73 | 1005.5 |
| 20260507134910 | 59 | 195 | 5.0 | 18.0 | 0.00 | 1.06 | 1.06 | 73 | 1005.4 |
| 20260507134810 | 59 | 197 | 9.0 | 18.0 | 0.00 | 1.06 | 1.06 | 73 | 1005.4 |
| 20260507134710 | 59 | 194 | 6.0 | 18.0 | 0.00 | 1.06 | 1.06 | 73 | 1005.2 |
| 20260507134610 | 59 | 194 | 8.0 | 18.0 | 0.00 | 1.06 | 1.06 | 73 | 1005.3 |
| 20260507134510 | 59 | 194 | 5.0 | 18.0 | 0.00 | 1.06 | 1.06 | 73 | 1005.1 |
| 20260507134431 | 59 | 198 | 7.0 | 18.0 | 0.00 | 1.06 | 1.06 | 73 | 1005.1 |
| 20260507134310 | 59 | 200 | 11.0 | 18.0 | 0.00 | 1.06 | 1.06 | 73 | 1005.2 |
| 20260507134210 | 59 | 196 | 6.0 | 17.0 | 0.00 | 1.06 | 1.06 | 73 | 1005.1 |
| 20260507134110 | 59 | 197 | 6.0 | 17.0 | 0.00 | 1.06 | 1.06 | 73 | 1005.0 |
| 20260507134010 | 59 | 198 | 11.0 | 17.0 | 0.00 | 1.06 | 1.06 | 73 | 1005.1 |
| 20260507133910 | 59 | 199 | 9.0 | 17.0 | 0.00 | 1.06 | 1.06 | 73 | 1005.0 |
| 20260507133831 | 59 | 202 | 8.0 | 17.0 | 0.00 | 1.06 | 1.06 | 74 | 1005.1 |
| 20260507133710 | 59 | 206 | 7.0 | 17.0 | 0.00 | 1.06 | 1.06 | 74 | 1005.1 |
| 20260507133610 | 59 | 205 | 8.0 | 17.0 | 0.00 | 1.06 | 1.06 | 74 | 1005.3 |
| 20260507133510 | 59 | 200 | 8.0 | 17.0 | 0.00 | 1.06 | 1.06 | 74 | 1005.2 |
| 20260507133410 | 59 | 195 | 8.0 | 15.0 | 0.00 | 1.06 | 1.06 | 74 | 1005.4 |
| 20260507133310 | 59 | 196 | 8.0 | 17.0 | 0.00 | 1.06 | 1.06 | 74 | 1005.3 |
| 20260507133210 | 59 | 193 | 8.0 | 17.0 | 0.00 | 1.06 | 1.06 | 74 | 1005.4 |
| 20260507133110 | 59 | 192 | 8.0 | 17.0 | 0.00 | 1.06 | 1.06 | 75 | 1005.6 |
| 20260507133011 | 59 | 190 | 4.0 | 17.0 | 0.00 | 1.06 | 1.06 | 75 | 1005.6 |
| 20260507132911 | 59 | 189 | 4.0 | 17.0 | 0.00 | 1.06 | 1.06 | 75 | 1005.5 |
| 20260507132810 | 59 | 189 | 4.0 | 17.0 | 0.00 | 1.06 | 1.06 | 75 | 1005.6 |
| 20260507132731 | 59 | 192 | 8.0 | 17.0 | 0.00 | 1.06 | 1.06 | 75 | 1005.7 |
| 20260507132610 | 59 | 191 | 8.0 | 17.0 | 0.00 | 1.06 | 1.06 | 75 | 1005.6 |
| 20260507132510 | 58 | 193 | 6.0 | 17.0 | 0.00 | 1.06 | 1.06 | 75 | 1005.7 |
| 20260507132432 | 58 | 191 | 4.0 | 17.0 | 0.00 | 1.06 | 1.06 | 75 | 1005.5 |
| 20260507132310 | 58 | 190 | 9.0 | 17.0 | 0.00 | 1.06 | 1.06 | 75 | 1005.7 |
| 20260507132211 | 58 | 196 | 9.0 | 17.0 | 0.00 | 1.06 | 1.06 | 75 | 1005.6 |
| 20260507132110 | 58 | 204 | 7.0 | 13.0 | 0.00 | 1.06 | 1.06 | 75 | 1005.6 |
| 20260507132032 | 58 | 210 | 8.0 | 16.0 | 0.00 | 1.06 | 1.06 | 75 | 1005.7 |
| 20260507131910 | 59 | 218 | 4.0 | 16.0 | 0.00 | 1.06 | 1.06 | 75 | 1005.8 |
| 20260507131810 | 59 | 222 | 6.0 | 16.0 | 0.00 | 1.06 | 1.06 | 75 | 1005.9 |
| 20260507131710 | 59 | 220 | 6.0 | 16.0 | 0.00 | 1.06 | 1.06 | 75 | 1005.9 |
| 20260507131610 | 59 | 228 | 4.0 | 16.0 | 0.00 | 1.06 | 1.06 | 75 | 1005.9 |
| 20260507131510 | 59 | 238 | 6.0 | 16.0 | 0.00 | 1.06 | 1.06 | 75 | 1006.0 |
| 20260507131411 | 59 | 243 | 4.0 | 16.0 | 0.00 | 1.06 | 1.06 | 75 | 1006.1 |
| 20260507131310 | 59 | 244 | 8.0 | 16.0 | 0.00 | 1.06 | 1.06 | 75 | 1006.2 |
| 20260507131231 | 59 | 248 | 8.0 | 16.0 | 0.00 | 1.06 | 1.06 | 75 | 1006.3 |
| 20260507131111 | 59 | 241 | 8.0 | 16.0 | 0.00 | 1.06 | 1.06 | 75 | 1006.0 |
| 20260507131032 | 59 | 236 | 9.0 | 16.0 | 0.00 | 1.06 | 1.06 | 75 | 1006.2 |
| 20260507130910 | 59 | 230 | 4.0 | 11.0 | 0.00 | 1.06 | 1.06 | 76 | 1006.3 |
| 20260507130810 | 59 | 227 | 5.0 | 11.0 | 0.00 | 1.06 | 1.06 | 76 | 1006.5 |
| 20260507130711 | 59 | 231 | 2.0 | 11.0 | 0.00 | 1.06 | 1.06 | 76 | 1006.4 |
| 20260507130610 | 59 | 235 | 7.0 | 11.0 | 0.00 | 1.06 | 1.06 | 76 | 1006.3 |
| 20260507130534 | 59 | 234 | 8.0 | 11.0 | 0.00 | 1.06 | 1.06 | 76 | 1006.3 |
| 20260507130410 | 59 | 240 | 4.0 | 11.0 | 0.00 | 1.06 | 1.06 | 76 | 1006.4 |
| 20260507130310 | 59 | 234 | 5.0 | 11.0 | 0.00 | 1.06 | 1.06 | 76 | 1006.4 |
| 20260507130210 | 59 | 227 | 4.0 | 11.0 | 0.00 | 1.06 | 1.06 | 77 | 1006.4 |
| 20260507130110 | 59 | 220 | 4.0 | 11.0 | 0.00 | 1.06 | 1.06 | 77 | 1006.4 |
| 20260507130011 | 59 | 221 | 4.0 | 11.0 | 0.00 | 1.06 | 1.06 | 77 | 1006.2 |
| 20260507125910 | 59 | 222 | 2.0 | 11.0 | 0.00 | 1.06 | 1.06 | 78 | 1006.2 |
| 20260507125810 | 59 | 230 | 2.0 | 11.0 | 0.00 | 1.06 | 1.06 | 78 | 1006.0 |
| 20260507125732 | 59 | 231 | 2.0 | 11.0 | 0.00 | 1.06 | 1.06 | 78 | 1006.0 |
| 20260507125610 | 59 | 219 | 4.0 | 11.0 | 0.00 | 1.06 | 1.06 | 78 | 1006.0 |
| 20260507125510 | 59 | 217 | 5.0 | 11.0 | 0.00 | 1.06 | 1.06 | 77 | 1005.7 |
| 20260507125410 | 59 | 219 | 8.0 | 11.0 | 0.00 | 1.06 | 1.06 | 78 | 1005.8 |
| 20260507125310 | 59 | 227 | 4.0 | 11.0 | 0.00 | 1.06 | 1.06 | 78 | 1005.8 |
| 20260507125210 | 59 | 235 | 6.0 | 11.0 | 0.00 | 1.06 | 1.06 | 78 | 1005.9 |
| 20260507125132 | 59 | 244 | 4.0 | 9.0 | 0.00 | 1.06 | 1.06 | 78 | 1005.7 |
| 20260507125011 | 59 | 247 | 2.0 | 11.0 | 0.00 | 1.06 | 1.06 | 78 | 1005.6 |
| 20260507124911 | 59 | 244 | 3.0 | 11.0 | 0.00 | 1.06 | 1.06 | 78 | 1005.8 |
| 20260507124810 | 59 | 235 | 4.0 | 11.0 | 0.00 | 1.06 | 1.06 | 78 | 1005.6 |
| 20260507124710 | 59 | 236 | 4.0 | 11.0 | 0.00 | 1.06 | 1.06 | 78 | 1005.9 |
| 20260507124610 | 59 | 234 | 4.0 | 16.0 | 0.00 | 1.06 | 1.06 | 78 | 1005.5 |
| 20260507124510 | 59 | 226 | 4.0 | 16.0 | 0.00 | 1.06 | 1.06 | 78 | 1005.5 |
| 20260507124410 | 59 | 220 | 4.0 | 16.0 | 0.00 | 1.06 | 1.06 | 78 | 1005.4 |
| 20260507124310 | 59 | 214 | 4.0 | 16.0 | 0.00 | 1.06 | 1.06 | 78 | 1005.7 |
| 20260507124211 | 59 | 210 | 5.0 | 16.0 | 0.00 | 1.06 | 1.06 | 77 | 1005.3 |
| 20260507124110 | 59 | 206 | 7.0 | 16.0 | 0.00 | 1.06 | 1.06 | 77 | 1005.4 |
| 20260507124010 | 59 | 203 | 4.0 | 16.0 | 0.00 | 1.06 | 1.06 | 77 | 1005.3 |
| 20260507123911 | 59 | 203 | 6.0 | 16.0 | 0.00 | 1.06 | 1.06 | 77 | 1005.3 |
| 20260507123810 | 59 | 203 | 5.0 | 16.0 | 0.00 | 1.06 | 1.06 | 77 | 1005.5 |
| 20260507123732 | 59 | 201 | 5.0 | 16.0 | 0.00 | 1.06 | 1.06 | 77 | 1005.5 |
| 20260507123610 | 59 | 195 | 11.0 | 16.0 | 0.00 | 1.06 | 1.06 | 76 | 1005.3 |
| 20260507123510 | 59 | 194 | 5.0 | 15.0 | 0.00 | 1.06 | 1.06 | 77 | 1005.2 |
| 20260507123431 | 59 | 193 | 5.0 | 15.0 | 0.00 | 1.06 | 1.06 | 76 | 1005.2 |
| 20260507123310 | 59 | 192 | 6.0 | 15.0 | 0.00 | 1.06 | 1.06 | 76 | 1004.9 |
| 20260507123210 | 59 | 184 | 8.0 | 15.0 | 0.00 | 1.06 | 1.06 | 76 | 1005.1 |
| 20260507123110 | 59 | 182 | 9.0 | 15.0 | 0.00 | 1.06 | 1.06 | 76 | 1004.9 |
| 20260507123011 | 59 | 178 | 8.0 | 15.0 | 0.00 | 1.06 | 1.06 | 76 | 1004.6 |
| 20260507122910 | 59 | 176 | 9.0 | 15.0 | 0.00 | 1.06 | 1.06 | 76 | 1004.8 |
| 20260507122810 | 59 | 173 | 9.0 | 16.0 | 0.00 | 1.06 | 1.06 | 76 | 1004.7 |
| 20260507122710 | 59 | 174 | 8.0 | 16.0 | 0.00 | 1.06 | 1.06 | 76 | 1004.4 |
| 20260507122611 | 59 | 176 | 6.0 | 16.0 | 0.00 | 1.06 | 1.06 | 76 | 1004.8 |
| 20260507122510 | 59 | 176 | 7.0 | 16.0 | 0.00 | 1.06 | 1.06 | 76 | 1004.8 |
| 20260507122410 | 59 | 177 | 8.0 | 16.0 | 0.00 | 1.06 | 1.06 | 76 | 1004.8 |
| 20260507122310 | 59 | 175 | 8.0 | 18.0 | 0.00 | 1.06 | 1.06 | 76 | 1004.6 |
| 20260507122232 | 59 | 178 | 8.0 | 18.0 | 0.00 | 1.06 | 1.06 | 76 | 1004.4 |
| 20260507122110 | 59 | 181 | 8.0 | 18.0 | 0.00 | 1.06 | 1.06 | 77 | 1004.2 |
| 20260507122010 | 59 | 185 | 8.0 | 18.0 | 0.00 | 1.06 | 1.06 | 77 | 1004.3 |
| 20260507121932 | 59 | 184 | 6.0 | 18.0 | 0.00 | 1.06 | 1.06 | 77 | 1004.3 |
| 20260507121810 | 59 | 183 | 8.0 | 18.0 | 0.00 | 1.06 | 1.06 | 77 | 1004.4 |
| 20260507121732 | 59 | 181 | 8.0 | 18.0 | 0.00 | 1.06 | 1.06 | 77 | 1004.4 |
| 20260507121610 | 59 | 179 | 9.0 | 18.0 | 0.00 | 1.06 | 1.06 | 77 | 1004.2 |
| 20260507121510 | 59 | 181 | 8.0 | 18.0 | 0.00 | 1.06 | 1.06 | 77 | 1004.4 |
| 20260507121410 | 59 | 183 | 13.0 | 18.0 | 0.00 | 1.06 | 1.06 | 78 | 1004.1 |
| 20260507121310 | 59 | 189 | 7.0 | 17.0 | 0.00 | 1.06 | 1.06 | 78 | 1004.3 |
| 20260507121231 | 59 | 189 | 7.0 | 17.0 | 0.00 | 1.06 | 1.06 | 78 | 1003.9 |
| 20260507121110 | 59 | 189 | 8.0 | 17.0 | 0.00 | 1.06 | 1.06 | 78 | 1004.0 |
| 20260507121010 | 59 | 189 | 9.0 | 17.0 | 0.00 | 1.06 | 1.06 | 78 | 1004.0 |
| 20260507120910 | 59 | 195 | 8.0 | 17.0 | 0.00 | 1.06 | 1.06 | 79 | 1004.0 |
| 20260507120832 | 59 | 197 | 7.0 | 17.0 | 0.00 | 1.06 | 1.06 | 79 | 1004.4 |
| 20260507120710 | 59 | 201 | 5.0 | 17.0 | 0.00 | 1.06 | 1.06 | 79 | 1004.4 |
| 20260507120632 | 60 | 201 | 8.0 | 17.0 | 0.00 | 1.06 | 1.06 | 79 | 1004.5 |
| 20260507120510 | 60 | 201 | 8.0 | 15.0 | 0.00 | 1.06 | 1.06 | 79 | 1004.4 |
| 20260507120410 | 60 | 197 | 7.0 | 11.0 | 0.00 | 1.06 | 1.06 | 79 | 1004.5 |
| 20260507120310 | 60 | 192 | 7.0 | 11.0 | 0.00 | 1.06 | 1.06 | 79 | 1004.3 |
| 20260507120210 | 60 | 192 | 8.0 | 11.0 | 0.00 | 1.06 | 1.06 | 78 | 1004.6 |
| 20260507120110 | 60 | 190 | 5.0 | 13.0 | 0.00 | 1.06 | 1.06 | 78 | 1004.6 |
| 20260507120011 | 60 | 191 | 7.0 | 13.0 | 0.00 | 1.06 | 1.06 | 78 | 1004.5 |
| 20260507115910 | 60 | 185 | 7.0 | 13.0 | 0.00 | 1.06 | 1.06 | 78 | 1004.7 |
| 20260507115810 | 60 | 185 | 6.0 | 13.0 | 0.00 | 1.06 | 1.06 | 78 | 1004.4 |
| 20260507115710 | 60 | 187 | 6.0 | 13.0 | 0.00 | 1.06 | 1.06 | 78 | 1004.5 |
| 20260507115610 | 60 | 194 | 5.0 | 13.0 | 0.00 | 1.06 | 1.06 | 78 | 1004.4 |
| 20260507115510 | 60 | 197 | 8.0 | 13.0 | 0.00 | 1.06 | 1.06 | 78 | 1004.3 |
| 20260507115410 | 60 | 202 | 6.0 | 13.0 | 0.00 | 1.06 | 1.06 | 78 | 1004.4 |
| 20260507115332 | 60 | 203 | 6.0 | 13.0 | 0.00 | 1.06 | 1.06 | 78 | 1004.4 |
| 20260507115211 | 60 | 207 | 4.0 | 13.0 | 0.00 | 1.06 | 1.06 | 77 | 1004.5 |
| 20260507115110 | 60 | 205 | 8.0 | 15.0 | 0.00 | 1.06 | 1.06 | 77 | 1004.8 |
| 20260507115010 | 60 | 202 | 6.0 | 15.0 | 0.00 | 1.06 | 1.06 | 78 | 1005.3 |
| 20260507114910 | 60 | 202 | 4.0 | 15.0 | 0.00 | 1.06 | 1.06 | 78 | 1005.4 |
| 20260507114810 | 60 | 195 | 4.0 | 15.0 | 0.00 | 1.06 | 1.06 | 78 | 1005.3 |
| 20260507114710 | 60 | 192 | 5.0 | 15.0 | 0.00 | 1.06 | 1.06 | 78 | 1005.5 |
| 20260507114610 | 60 | 186 | 4.0 | 15.0 | 0.00 | 1.06 | 1.06 | 78 | 1005.5 |
| 20260507114510 | 60 | 182 | 6.0 | 15.0 | 0.00 | 1.06 | 1.06 | 78 | 1005.4 |
| 20260507114410 | 60 | 174 | 7.0 | 15.0 | 0.00 | 1.06 | 1.06 | 78 | 1005.2 |
| 20260507114310 | 60 | 172 | 3.0 | 15.0 | 0.00 | 1.06 | 1.06 | 79 | 1004.9 |
| 20260507114210 | 60 | 170 | 4.0 | 15.0 | 0.00 | 1.06 | 1.06 | 79 | 1004.5 |
| 20260507114110 | 60 | 172 | 8.0 | 15.0 | 0.00 | 1.06 | 1.06 | 79 | 1004.4 |
| 20260507114010 | 60 | 170 | 5.0 | 14.0 | 0.00 | 1.06 | 1.06 | 79 | 1004.2 |
| 20260507113932 | 60 | 168 | 6.0 | 14.0 | 0.00 | 1.06 | 1.06 | 79 | 1004.0 |
| 20260507113810 | 60 | 171 | 3.0 | 14.0 | 0.00 | 1.06 | 1.06 | 80 | 1003.9 |
| 20260507113710 | 60 | 172 | 6.0 | 14.0 | 0.00 | 1.06 | 1.06 | 80 | 1003.8 |
| 20260507113610 | 60 | 169 | 6.0 | 14.0 | 0.00 | 1.06 | 1.06 | 80 | 1003.8 |
| 20260507113510 | 60 | 167 | 5.0 | 13.0 | 0.00 | 1.06 | 1.06 | 80 | 1003.7 |
| 20260507113410 | 60 | 168 | 8.0 | 13.0 | 0.00 | 1.06 | 1.06 | 80 | 1003.7 |
| 20260507113310 | 60 | 166 | 6.0 | 13.0 | 0.00 | 1.06 | 1.06 | 80 | 1003.7 |
| 20260507113210 | 60 | 167 | 7.0 | 13.0 | 0.00 | 1.06 | 1.06 | 80 | 1003.5 |
| 20260507113110 | 60 | 169 | 8.0 | 13.0 | 0.00 | 1.06 | 1.06 | 79 | 1003.6 |
| 20260507113011 | 61 | 170 | 7.0 | 13.0 | 0.00 | 1.06 | 1.06 | 79 | 1003.9 |
| 20260507112910 | 61 | 173 | 10.0 | 13.0 | 0.00 | 1.06 | 1.06 | 79 | 1003.9 |
| 20260507112810 | 61 | 171 | 6.0 | 13.0 | 0.00 | 1.06 | 1.06 | 79 | 1003.8 |
| 20260507112710 | 61 | 174 | 5.0 | 13.0 | 0.00 | 1.06 | 1.06 | 78 | 1003.9 |
| 20260507112610 | 61 | 176 | 8.0 | 13.0 | 0.00 | 1.06 | 1.06 | 78 | 1004.1 |
| 20260507112510 | 61 | 178 | 5.0 | 11.0 | 0.00 | 1.06 | 1.06 | 78 | 1004.4 |
| 20260507112410 | 61 | 176 | 4.0 | 11.0 | 0.00 | 1.06 | 1.06 | 78 | 1004.4 |
| 20260507112310 | 61 | 179 | 4.0 | 11.0 | 0.00 | 1.06 | 1.06 | 78 | 1004.5 |
| 20260507112210 | 61 | 181 | 7.0 | 11.0 | 0.00 | 1.06 | 1.06 | 78 | 1004.4 |
| 20260507112110 | 61 | 183 | 5.0 | 11.0 | 0.00 | 1.06 | 1.06 | 79 | 1004.4 |
| 20260507112010 | 61 | 191 | 4.0 | 11.0 | 0.00 | 1.06 | 1.06 | 79 | 1004.6 |
| 20260507111910 | 61 | 197 | 6.0 | 11.0 | 0.00 | 1.06 | 1.06 | 79 | 1004.3 |
| 20260507111810 | 61 | 196 | 5.0 | 17.0 | 0.00 | 1.06 | 1.06 | 79 | 1004.3 |
| 20260507111710 | 61 | 194 | 4.0 | 17.0 | 0.00 | 1.06 | 1.06 | 79 | 1004.3 |
| 20260507111610 | 61 | 193 | 4.0 | 17.0 | 0.00 | 1.06 | 1.06 | 79 | 1004.2 |
| 20260507111510 | 61 | 189 | 4.0 | 18.0 | 0.00 | 1.06 | 1.06 | 79 | 1004.1 |
| 20260507111410 | 61 | 189 | 5.0 | 18.0 | 0.00 | 1.06 | 1.06 | 79 | 1004.1 |
| 20260507111312 | 61 | 184 | 6.0 | 18.0 | 0.00 | 1.06 | 1.06 | 79 | 1004.3 |
| 20260507111210 | 61 | 184 | 6.0 | 18.0 | 0.00 | 1.06 | 1.06 | 79 | 1004.3 |
| 20260507111110 | 61 | 181 | 5.0 | 18.0 | 0.00 | 1.06 | 1.06 | 79 | 1004.4 |
| 20260507111010 | 61 | 182 | 6.0 | 22.0 | 0.00 | 1.06 | 1.06 | 79 | 1004.1 |
| 20260507110911 | 61 | 182 | 5.0 | 23.0 | 0.00 | 1.06 | 1.06 | 79 | 1004.0 |
| 20260507110810 | 61 | 186 | 10.0 | 23.0 | 0.00 | 1.06 | 1.06 | 79 | 1003.8 |
| 20260507110710 | 61 | 179 | 8.0 | 23.0 | 0.00 | 1.06 | 1.06 | 79 | 1003.8 |
| 20260507110610 | 61 | 175 | 11.0 | 23.0 | 0.00 | 1.06 | 1.06 | 80 | 1003.0 |
| 20260507110510 | 61 | 173 | 11.0 | 23.0 | 0.00 | 1.06 | 1.06 | 81 | 1003.0 |
| 20260507110410 | 61 | 171 | 8.0 | 23.0 | 0.00 | 1.06 | 1.06 | 81 | 1002.7 |
| 20260507110310 | 61 | 171 | 9.0 | 23.0 | 0.00 | 1.06 | 1.06 | 81 | 1002.6 |
| 20260507110210 | 61 | 167 | 11.0 | 23.0 | 0.00 | 1.06 | 1.06 | 81 | 1002.0 |
| 20260507110110 | 61 | 170 | 13.0 | 23.0 | 0.00 | 1.06 | 1.06 | 81 | 1002.0 |
| 20260507110011 | 61 | 166 | 12.0 | 23.0 | 0.00 | 1.06 | 1.06 | 81 | 1001.8 |
| 20260507105910 | 61 | 165 | 14.0 | 23.0 | 0.00 | 1.06 | 1.06 | 81 | 1001.5 |
| 20260507105810 | 61 | 165 | 11.0 | 23.0 | 0.00 | 1.06 | 1.06 | 81 | 1001.5 |
| 20260507105710 | 61 | 170 | 11.0 | 23.0 | 0.00 | 1.06 | 1.06 | 81 | 1001.6 |
| 20260507105610 | 62 | 174 | 13.0 | 23.0 | 0.00 | 1.06 | 1.06 | 81 | 1001.6 |
| 20260507105532 | 62 | 179 | 12.0 | 23.0 | 0.00 | 1.06 | 1.06 | 81 | 1001.5 |
| 20260507105410 | 62 | 184 | 10.0 | 23.0 | 0.00 | 1.06 | 1.06 | 81 | 1001.8 |
| 20260507105310 | 62 | 185 | 11.0 | 23.0 | 0.00 | 1.06 | 1.06 | 81 | 1002.0 |
| 20260507105210 | 62 | 187 | 11.0 | 23.0 | 0.00 | 1.06 | 1.06 | 81 | 1001.9 |
| 20260507105131 | 62 | 190 | 15.0 | 23.0 | 0.00 | 1.06 | 1.06 | 81 | 1002.1 |
| 20260507105010 | 62 | 188 | 17.0 | 25.0 | 0.00 | 1.06 | 1.06 | 82 | 1002.6 |
| 20260507104910 | 62 | 183 | 11.0 | 25.0 | 0.00 | 1.06 | 1.06 | 83 | 1002.5 |
| 20260507104810 | 62 | 177 | 11.0 | 25.0 | 0.00 | 1.06 | 1.06 | 83 | 1002.5 |
| 20260507104710 | 62 | 177 | 13.0 | 25.0 | 0.00 | 1.06 | 1.06 | 83 | 1002.6 |
| 20260507104610 | 62 | 176 | 13.0 | 25.0 | 0.00 | 1.06 | 1.06 | 84 | 1002.6 |
| 20260507104510 | 62 | 172 | 11.0 | 25.0 | 0.00 | 1.06 | 1.06 | 85 | 1002.7 |
| 20260507104410 | 62 | 176 | 9.0 | 25.0 | 0.00 | 1.06 | 1.06 | 85 | 1002.6 |
| 20260507104310 | 62 | 175 | 10.0 | 25.0 | 0.00 | 1.06 | 1.06 | 85 | 1002.5 |
| 20260507104210 | 62 | 180 | 15.0 | 25.0 | 0.00 | 1.06 | 1.06 | 86 | 1002.3 |
| 20260507104110 | 62 | 179 | 14.0 | 25.0 | 0.00 | 1.06 | 1.06 | 86 | 1002.3 |
| 20260507104010 | 62 | 183 | 9.0 | 23.0 | 0.00 | 1.06 | 1.06 | 87 | 1002.1 |
| 20260507103910 | 62 | 187 | 9.0 | 27.0 | 0.00 | 1.06 | 1.06 | 87 | 1002.1 |
| 20260507103810 | 62 | 190 | 11.0 | 27.0 | 0.00 | 1.06 | 1.06 | 87 | 1001.7 |
| 20260507103731 | 62 | 192 | 11.0 | 27.0 | 0.00 | 1.06 | 1.06 | 87 | 1001.7 |
| 20260507103610 | 62 | 193 | 13.0 | 27.0 | 0.00 | 1.06 | 1.06 | 87 | 1001.3 |
| 20260507103510 | 62 | 195 | 11.0 | 27.0 | 0.00 | 1.06 | 1.06 | 88 | 1001.5 |
| 20260507103410 | 62 | 194 | 14.0 | 27.0 | 0.00 | 1.06 | 1.06 | 88 | 1001.0 |
| 20260507103310 | 62 | 196 | 15.0 | 27.0 | 0.00 | 1.06 | 1.06 | 88 | 1000.8 |
| 20260507103231 | 62 | 194 | 14.0 | 27.0 | 0.00 | 1.06 | 1.06 | 88 | 1000.6 |
| 20260507103110 | 62 | 196 | 12.0 | 36.0 | 0.00 | 1.06 | 1.06 | 89 | 1000.6 |
| 20260507103033 | 62 | 198 | 15.0 | 36.0 | 0.00 | 1.06 | 1.06 | 89 | 1000.6 |
| 20260507102910 | 62 | 198 | 14.0 | 36.0 | 0.00 | 1.06 | 1.06 | 89 | 1000.1 |
| 20260507102810 | 63 | 196 | 15.0 | 36.0 | 0.00 | 1.06 | 1.06 | 90 | 1000.1 |
| 20260507102732 | 63 | 195 | 15.0 | 36.0 | 0.00 | 1.06 | 1.06 | 90 | 1000.1 |
| 20260507102610 | 63 | 194 | 16.0 | 36.0 | 0.00 | 1.06 | 1.06 | 90 | 1000.0 |
| 20260507102510 | 63 | 194 | 15.0 | 36.0 | 0.00 | 1.06 | 1.06 | 90 | 999.9 |
| 20260507102410 | 63 | 193 | 15.0 | 36.0 | 0.00 | 1.06 | 1.06 | 90 | 999.9 |
| 20260507102310 | 63 | 197 | 16.0 | 36.0 | 0.00 | 1.06 | 1.06 | 90 | 1000.0 |
| 20260507102210 | 63 | 195 | 15.0 | 36.0 | 0.00 | 1.06 | 1.06 | 90 | 999.8 |
| 20260507102110 | 63 | 195 | 20.0 | 36.0 | 0.00 | 1.06 | 1.06 | 90 | 999.9 |
| 20260507102010 | 63 | 193 | 15.0 | 27.0 | 0.00 | 1.06 | 1.06 | 90 | 1000.0 |
| 20260507101910 | 63 | 193 | 15.0 | 29.0 | 0.00 | 1.06 | 1.06 | 90 | 1000.1 |
| 20260507101831 | 63 | 194 | 15.0 | 29.0 | 0.00 | 1.06 | 1.06 | 90 | 1000.1 |
| 20260507101710 | 63 | 196 | 15.0 | 29.0 | 0.00 | 1.06 | 1.06 | 90 | 1000.2 |
| 20260507101610 | 63 | 198 | 15.0 | 29.0 | 0.00 | 1.06 | 1.06 | 90 | 1000.5 |
| 20260507101510 | 63 | 198 | 13.0 | 29.0 | 0.00 | 1.06 | 1.06 | 90 | 1000.4 |
| 20260507101410 | 63 | 197 | 17.0 | 29.0 | 0.00 | 1.06 | 1.06 | 90 | 1000.8 |
| 20260507101310 | 63 | 195 | 8.0 | 29.0 | 0.00 | 1.06 | 1.06 | 90 | 1001.0 |
| 20260507101210 | 63 | 198 | 16.0 | 29.0 | 0.00 | 1.06 | 1.06 | 90 | 1001.0 |
| 20260507101110 | 64 | 194 | 15.0 | 29.0 | 0.00 | 1.06 | 1.06 | 90 | 1001.2 |
| 20260507101010 | 64 | 188 | 15.0 | 29.0 | 0.00 | 1.06 | 1.06 | 90 | 1001.1 |
| 20260507100910 | 64 | 187 | 17.0 | 29.0 | 0.00 | 1.06 | 1.06 | 90 | 1001.1 |
| 20260507100810 | 64 | 186 | 14.0 | 29.0 | 0.00 | 1.06 | 1.06 | 90 | 1001.2 |
| 20260507100710 | 64 | 185 | 17.0 | 29.0 | 0.00 | 1.06 | 1.06 | 90 | 1001.4 |
| 20260507100632 | 64 | 185 | 15.0 | 29.0 | 0.00 | 1.06 | 1.06 | 90 | 1001.3 |
| 20260507100510 | 64 | 187 | 20.0 | 29.0 | 0.00 | 1.06 | 1.06 | 90 | 1001.4 |
| 20260507100410 | 64 | 187 | 15.0 | 25.0 | 0.00 | 1.06 | 1.06 | 90 | 1001.4 |
| 20260507100332 | 64 | 185 | 15.0 | 24.0 | 0.00 | 1.06 | 1.06 | 90 | 1001.4 |
| 20260507100231 | 64 | 181 | 15.0 | 24.0 | 0.00 | 1.06 | 1.06 | 90 | 1001.6 |
| 20260507100110 | 64 | 190 | 14.0 | 24.0 | 0.00 | 1.06 | 1.06 | 90 | 1001.8 |
| 20260507100011 | 64 | 200 | 13.0 | 22.0 | 0.00 | 1.06 | 1.06 | 90 | 1001.9 |
| 20260507095910 | 64 | 206 | 12.0 | 24.0 | 0.00 | 1.06 | 1.06 | 90 | 1001.8 |
| 20260507095832 | 64 | 206 | 11.0 | 24.0 | 0.00 | 1.06 | 1.06 | 90 | 1001.8 |
| 20260507095710 | 64 | 206 | 15.0 | 24.0 | 0.00 | 1.06 | 1.06 | 90 | 1002.1 |
| 20260507095631 | 64 | 204 | 15.0 | 24.0 | 0.00 | 1.06 | 1.06 | 90 | 1001.9 |
| 20260507095510 | 64 | 201 | 9.0 | 24.0 | 0.00 | 1.06 | 1.06 | 90 | 1002.1 |
| 20260507095432 | 64 | 200 | 11.0 | 24.0 | 0.00 | 1.06 | 1.06 | 90 | 1002.1 |
| 20260507095310 | 64 | 202 | 14.0 | 24.0 | 0.00 | 1.06 | 1.06 | 90 | 1002.2 |
| 20260507095210 | 64 | 201 | 11.0 | 24.0 | 0.00 | 1.06 | 1.06 | 90 | 1002.0 |
| 20260507095110 | 64 | 192 | 10.0 | 24.0 | 0.00 | 1.06 | 1.06 | 90 | 1002.0 |
| 20260507095010 | 64 | 183 | 15.0 | 27.0 | 0.00 | 1.06 | 1.06 | 90 | 1002.1 |
| 20260507094910 | 64 | 180 | 16.0 | 27.0 | 0.00 | 1.06 | 1.06 | 90 | 1002.1 |
| 20260507094810 | 64 | 180 | 11.0 | 27.0 | 0.00 | 1.06 | 1.06 | 91 | 1001.9 |
| 20260507094710 | 64 | 179 | 11.0 | 27.0 | 0.00 | 1.06 | 1.06 | 90 | 1001.9 |
| 20260507094610 | 64 | 184 | 9.0 | 27.0 | 0.00 | 1.06 | 1.06 | 90 | 1001.9 |
| 20260507094510 | 64 | 185 | 8.0 | 27.0 | 0.00 | 1.06 | 1.06 | 90 | 1001.7 |
| 20260507094410 | 64 | 188 | 12.0 | 27.0 | 0.00 | 1.06 | 1.06 | 90 | 1001.7 |
| 20260507094310 | 64 | 186 | 11.0 | 27.0 | 0.00 | 1.06 | 1.06 | 90 | 1001.6 |
| 20260507094231 | 64 | 184 | 11.0 | 27.0 | 0.00 | 1.06 | 1.06 | 90 | 1001.7 |
| 20260507094110 | 64 | 184 | 13.0 | 27.0 | 0.00 | 1.06 | 1.06 | 91 | 1001.7 |
| 20260507094010 | 64 | 188 | 13.0 | 27.0 | 0.00 | 1.06 | 1.06 | 91 | 1001.6 |
| 20260507093910 | 64 | 190 | 10.0 | 25.0 | 0.00 | 1.06 | 1.06 | 91 | 1001.8 |
| 20260507093810 | 64 | 190 | 14.0 | 25.0 | 0.00 | 1.06 | 1.06 | 91 | 1001.6 |
| 20260507093731 | 64 | 190 | 14.0 | 25.0 | 0.00 | 1.06 | 1.06 | 91 | 1001.6 |
| 20260507093610 | 64 | 188 | 14.0 | 25.0 | 0.00 | 1.06 | 1.06 | 91 | 1001.5 |
| 20260507093510 | 64 | 187 | 11.0 | 25.0 | 0.00 | 1.06 | 1.06 | 91 | 1001.6 |
| 20260507093410 | 64 | 184 | 14.0 | 25.0 | 0.00 | 1.06 | 1.06 | 91 | 1001.8 |
| 20260507093310 | 64 | 184 | 15.0 | 25.0 | 0.00 | 1.06 | 1.06 | 91 | 1001.6 |
| 20260507093210 | 64 | 184 | 14.0 | 24.0 | 0.00 | 1.06 | 1.06 | 91 | 1001.7 |
| 20260507093110 | 64 | 182 | 11.0 | 22.0 | 0.00 | 1.06 | 1.06 | 91 | 1001.7 |
| 20260507093032 | 64 | 183 | 13.0 | 22.0 | 0.00 | 1.06 | 1.06 | 91 | 1001.5 |
| 20260507092910 | 64 | 182 | 12.0 | 22.0 | 0.00 | 1.06 | 1.06 | 91 | 1001.6 |
| 20260507092810 | 64 | 187 | 9.0 | 22.0 | 0.00 | 1.06 | 1.06 | 91 | 1001.6 |
| 20260507092710 | 64 | 191 | 13.0 | 22.0 | 0.00 | 1.06 | 1.06 | 91 | 1001.6 |
| 20260507092631 | 64 | 189 | 8.0 | 22.0 | 0.00 | 1.06 | 1.06 | 91 | 1001.7 |
| 20260507092510 | 64 | 184 | 12.0 | 22.0 | 0.00 | 1.06 | 1.06 | 91 | 1001.7 |
| 20260507092410 | 64 | 186 | 11.0 | 21.0 | 0.00 | 1.06 | 1.06 | 91 | 1001.9 |
| 20260507092331 | 64 | 187 | 8.0 | 21.0 | 0.00 | 1.06 | 1.06 | 91 | 1002.2 |
| 20260507092231 | 64 | 186 | 9.0 | 21.0 | 0.00 | 1.06 | 1.06 | 91 | 1002.2 |
| 20260507092110 | 64 | 191 | 8.0 | 22.0 | 0.00 | 1.06 | 1.06 | 91 | 1002.5 |
| 20260507092010 | 64 | 186 | 11.0 | 22.0 | 0.00 | 1.06 | 1.06 | 91 | 1002.5 |
| 20260507091910 | 64 | 186 | 10.0 | 22.0 | 0.00 | 1.06 | 1.06 | 91 | 1002.6 |
| 20260507091810 | 64 | 183 | 8.0 | 22.0 | 0.00 | 1.06 | 1.06 | 91 | 1002.8 |
| 20260507091710 | 64 | 178 | 9.0 | 22.0 | 0.00 | 1.06 | 1.06 | 91 | 1002.6 |
| 20260507091610 | 64 | 176 | 8.0 | 22.0 | 0.00 | 1.06 | 1.06 | 92 | 1002.8 |
| 20260507091531 | 64 | 178 | 10.0 | 22.0 | 0.00 | 1.06 | 1.06 | 92 | 1002.6 |
| 20260507091410 | 64 | 181 | 11.0 | 22.0 | 0.00 | 1.06 | 1.06 | 92 | 1002.4 |
| 20260507091310 | 64 | 180 | 9.0 | 22.0 | 0.00 | 1.06 | 1.06 | 92 | 1002.7 |
| 20260507091210 | 64 | 182 | 11.0 | 22.0 | 0.00 | 1.06 | 1.06 | 92 | 1002.5 |
| 20260507091131 | 64 | 182 | 13.0 | 20.0 | 0.00 | 1.06 | 1.06 | 92 | 1002.6 |
| 20260507091010 | 64 | 186 | 10.0 | 20.0 | 0.00 | 1.06 | 1.06 | 92 | 1002.5 |
| 20260507090910 | 64 | 186 | 12.0 | 27.0 | 0.00 | 1.06 | 1.06 | 93 | 1002.7 |
| 20260507090810 | 64 | 182 | 8.0 | 27.0 | 0.00 | 1.06 | 1.06 | 93 | 1002.6 |
| 20260507090710 | 64 | 183 | 9.0 | 27.0 | 0.00 | 1.06 | 1.06 | 93 | 1002.7 |
| 20260507090610 | 64 | 186 | 7.0 | 27.0 | 0.00 | 1.06 | 1.06 | 93 | 1002.9 |
| 20260507090510 | 64 | 185 | 9.0 | 27.0 | 0.00 | 1.06 | 1.06 | 93 | 1003.2 |
| 20260507090410 | 64 | 182 | 8.0 | 27.0 | 0.00 | 1.06 | 1.06 | 93 | 1003.2 |
| 20260507090310 | 64 | 183 | 7.0 | 27.0 | 0.00 | 1.06 | 1.06 | 94 | 1003.5 |
| 20260507090210 | 64 | 186 | 8.0 | 27.0 | 0.00 | 1.06 | 1.06 | 94 | 1003.4 |
| 20260507090110 | 64 | 188 | 8.0 | 27.0 | 0.00 | 1.06 | 1.06 | 94 | 1003.6 |
| 20260507090011 | 64 | 188 | 11.0 | 27.0 | 0.00 | 1.06 | 1.06 | 95 | 1003.5 |
| 20260507085910 | 64 | 187 | 12.0 | 27.0 | 0.00 | 1.06 | 1.06 | 95 | 1003.7 |
| 20260507085810 | 64 | 190 | 6.0 | 22.0 | 0.00 | 1.06 | 1.06 | 95 | 1003.6 |
| 20260507085731 | 64 | 190 | 6.0 | 22.0 | 0.00 | 1.06 | 1.06 | 95 | 1003.6 |
| 20260507085610 | 64 | 194 | 12.0 | 22.0 | 0.00 | 1.06 | 1.06 | 96 | 1003.7 |
| 20260507085510 | 64 | 195 | 8.0 | 15.0 | 0.00 | 1.06 | 1.06 | 96 | 1003.8 |
| 20260507085410 | 64 | 197 | 8.0 | 15.0 | 0.00 | 1.06 | 1.06 | 96 | 1003.7 |
| 20260507085331 | 64 | 197 | 8.0 | 15.0 | 0.00 | 1.06 | 1.06 | 96 | 1003.7 |
| 20260507085210 | 64 | 192 | 8.0 | 11.0 | 0.00 | 1.06 | 1.06 | 96 | 1003.7 |
| 20260507085131 | 64 | 187 | 2.0 | 11.0 | 0.00 | 1.06 | 1.06 | 96 | 1003.9 |
| 20260507085032 | 64 | 191 | 4.0 | 11.0 | 0.00 | 1.06 | 1.06 | 96 | 1003.8 |
| 20260507084910 | 64 | 198 | 5.0 | 11.0 | 0.00 | 1.06 | 1.06 | 96 | 1003.6 |
| 20260507084810 | 64 | 195 | 4.0 | 11.0 | 0.00 | 1.06 | 1.06 | 97 | 1003.7 |
| 20260507084710 | 64 | 194 | 3.0 | 11.0 | 0.00 | 1.06 | 1.06 | 97 | 1003.9 |
| 20260507084610 | 64 | 192 | 7.0 | 11.0 | 0.00 | 1.06 | 1.06 | 97 | 1003.7 |
| 20260507084510 | 64 | 192 | 4.0 | 9.0 | 0.00 | 1.06 | 1.06 | 97 | 1003.7 |
| 20260507084410 | 64 | 192 | 4.0 | 9.0 | 0.00 | 1.06 | 1.06 | 97 | 1003.5 |
| 20260507084331 | 64 | 191 | 4.0 | 9.0 | 0.00 | 1.06 | 1.06 | 97 | 1003.6 |
| 20260507084210 | 64 | 187 | 2.0 | 9.0 | 0.00 | 1.06 | 1.06 | 97 | 1003.6 |
| 20260507084110 | 64 | 183 | 3.0 | 9.0 | 0.00 | 1.06 | 1.06 | 97 | 1003.7 |
| 20260507084010 | 64 | 178 | 3.0 | 9.0 | 0.00 | 1.06 | 1.06 | 97 | 1003.4 |
| 20260507083910 | 64 | 177 | 4.0 | 9.0 | 0.00 | 1.06 | 1.06 | 97 | 1003.5 |
| 20260507083810 | 64 | 173 | 5.0 | 9.0 | 0.00 | 1.06 | 1.06 | 97 | 1003.5 |
| 20260507083710 | 64 | 172 | 4.0 | 7.0 | 0.00 | 1.06 | 1.06 | 97 | 1003.5 |
| 20260507083610 | 64 | 177 | 4.0 | 7.0 | 0.00 | 1.06 | 1.06 | 97 | 1003.6 |
| 20260507083510 | 64 | 177 | 4.0 | 7.0 | 0.00 | 1.06 | 1.06 | 97 | 1003.7 |
| 20260507083410 | 64 | 173 | 3.0 | 7.0 | 0.00 | 1.06 | 1.06 | 97 | 1003.7 |
| 20260507083331 | 64 | 173 | 3.0 | 7.0 | 0.00 | 1.06 | 1.06 | 97 | 1003.7 |
| 20260507083210 | 64 | 178 | 2.0 | 7.0 | 0.00 | 1.06 | 1.06 | 98 | 1003.5 |
| 20260507083110 | 64 | 181 | 2.0 | 8.0 | 0.00 | 1.06 | 1.06 | 98 | 1003.4 |
| 20260507083011 | 64 | 177 | 3.0 | 8.0 | 0.00 | 1.06 | 1.06 | 98 | 1003.4 |
| 20260507082910 | 64 | 173 | 3.0 | 9.0 | 0.00 | 1.06 | 1.06 | 98 | 1003.2 |
| 20260507082810 | 64 | 169 | 4.0 | 9.0 | 0.00 | 1.06 | 1.06 | 98 | 1003.5 |
| 20260507082710 | 64 | 172 | 2.0 | 9.0 | 0.00 | 1.06 | 1.06 | 98 | 1003.2 |
| 20260507082631 | 64 | 175 | 4.0 | 9.0 | 0.00 | 1.06 | 1.06 | 98 | 1003.0 |
| 20260507082510 | 64 | 178 | 2.0 | 11.0 | 0.00 | 1.06 | 1.06 | 98 | 1003.0 |
| 20260507082431 | 64 | 178 | 3.0 | 14.0 | 0.00 | 1.06 | 1.06 | 98 | 1002.9 |
| 20260507082310 | 64 | 179 | 4.0 | 14.0 | 0.00 | 1.06 | 1.06 | 98 | 1002.8 |
| 20260507082210 | 64 | 176 | 3.0 | 14.0 | 0.00 | 1.06 | 1.06 | 98 | 1002.6 |
| 20260507082131 | 64 | 177 | 3.0 | 14.0 | 0.00 | 1.06 | 1.06 | 98 | 1002.6 |
| 20260507082031 | 64 | 181 | 4.0 | 14.0 | 0.00 | 1.06 | 1.06 | 98 | 1002.7 |
| 20260507081910 | 64 | 181 | 5.0 | 14.0 | 0.00 | 1.06 | 1.06 | 98 | 1002.6 |
| 20260507081810 | 64 | 183 | 4.0 | 14.0 | 0.00 | 1.06 | 1.06 | 98 | 1002.6 |
| 20260507081710 | 64 | 181 | 5.0 | 14.0 | 0.00 | 1.06 | 1.06 | 98 | 1002.7 |
| 20260507081610 | 64 | 172 | 4.0 | 14.0 | 0.00 | 1.06 | 1.06 | 98 | 1002.7 |
| 20260507081510 | 65 | 166 | 7.0 | 14.0 | 0.00 | 1.06 | 1.06 | 98 | 1002.5 |
| 20260507081410 | 65 | 162 | 5.0 | 14.0 | 0.00 | 1.06 | 1.06 | 98 | 1002.4 |
| 20260507081310 | 65 | 161 | 6.0 | 14.0 | 0.00 | 1.06 | 1.06 | 98 | 1002.5 |
| 20260507081210 | 65 | 160 | 5.0 | 14.0 | 0.00 | 1.06 | 1.06 | 99 | 1002.5 |
| 20260507081110 | 65 | 155 | 4.0 | 14.0 | 0.00 | 1.06 | 1.06 | 99 | 1002.5 |
| 20260507081010 | 65 | 154 | 5.0 | 14.0 | 0.00 | 1.06 | 1.06 | 99 | 1002.6 |
| 20260507080910 | 65 | 157 | 4.0 | 14.0 | 0.00 | 1.06 | 1.06 | 99 | 1002.4 |
| 20260507080810 | 65 | 158 | 4.0 | 14.0 | 0.00 | 1.06 | 1.06 | 99 | 1002.3 |
| 20260507080710 | 65 | 160 | 3.0 | 14.0 | 0.00 | 1.06 | 1.06 | 99 | 1002.2 |
| 20260507080610 | 65 | 164 | 5.0 | 14.0 | 0.00 | 1.06 | 1.06 | 99 | 1002.3 |
| 20260507080510 | 65 | 165 | 6.0 | 14.0 | 0.00 | 1.06 | 1.06 | 99 | 1002.6 |
| 20260507080410 | 65 | 169 | 7.0 | 11.0 | 0.00 | 1.06 | 1.06 | 99 | 1002.5 |
| 20260507080310 | 65 | 168 | 5.0 | 11.0 | 0.00 | 1.06 | 1.06 | 99 | 1002.7 |
| 20260507080231 | 65 | 170 | 4.0 | 11.0 | 0.00 | 1.06 | 1.06 | 99 | 1002.9 |
| 20260507080110 | 65 | 175 | 4.0 | 11.0 | 0.00 | 1.06 | 1.06 | 99 | 1003.1 |
| 20260507080011 | 65 | 173 | 6.0 | 11.0 | 0.00 | 1.06 | 1.06 | 99 | 1003.4 |
| 20260507075910 | 65 | 166 | 4.0 | 7.0 | 0.00 | 1.06 | 1.06 | 99 | 1003.2 |
| 20260507075810 | 65 | 163 | 2.0 | 6.0 | 0.00 | 1.06 | 1.06 | 99 | 1003.2 |
| 20260507075710 | 65 | 162 | 3.0 | 6.0 | 0.00 | 1.06 | 1.06 | 99 | 1002.9 |
| 20260507075610 | 65 | 157 | 2.0 | 7.0 | 0.00 | 1.06 | 1.06 | 99 | 1002.9 |
| 20260507075510 | 65 | 156 | 3.0 | 7.0 | 0.00 | 1.06 | 1.06 | 99 | 1002.6 |
| 20260507075410 | 65 | 159 | 2.0 | 7.0 | 0.00 | 1.06 | 1.06 | 99 | 1002.5 |
| 20260507075310 | 65 | 159 | 3.0 | 8.0 | 0.00 | 1.06 | 1.06 | 99 | 1002.7 |
| 20260507075210 | 65 | 159 | 3.0 | 8.0 | 0.00 | 1.06 | 1.06 | 99 | 1002.5 |
| 20260507075110 | 65 | 156 | 4.0 | 8.0 | 0.00 | 1.06 | 1.06 | 99 | 1002.4 |
| 20260507075010 | 65 | 155 | 4.0 | 9.0 | 0.00 | 1.06 | 1.06 | 99 | 1002.4 |
| 20260507074910 | 65 | 157 | 3.0 | 11.0 | 0.00 | 1.06 | 1.06 | 99 | 1002.4 |
| 20260507074810 | 65 | 155 | 3.0 | 11.0 | 0.00 | 1.06 | 1.06 | 99 | 1002.2 |
| 20260507074710 | 65 | 157 | 4.0 | 11.0 | 0.00 | 1.06 | 1.06 | 99 | 1002.2 |
| 20260507074610 | 65 | 160 | 5.0 | 11.0 | 0.00 | 1.06 | 1.06 | 99 | 1002.1 |
| 20260507074510 | 65 | 161 | 4.0 | 11.0 | 0.00 | 1.06 | 1.06 | 99 | 1002.1 |
| 20260507074410 | 65 | 159 | 4.0 | 11.0 | 0.00 | 1.06 | 1.06 | 99 | 1002.2 |
| 20260507074310 | 65 | 162 | 4.0 | 11.0 | 0.00 | 1.06 | 1.06 | 99 | 1002.0 |
| 20260507074231 | 65 | 162 | 5.0 | 11.0 | 0.00 | 1.06 | 1.06 | 99 | 1002.1 |
| 20260507074110 | 65 | 166 | 5.0 | 11.0 | 0.00 | 1.06 | 1.06 | 99 | 1001.9 |
| 20260507074010 | 65 | 167 | 5.0 | 11.0 | 0.00 | 1.06 | 1.06 | 99 | 1001.9 |
| 20260507073910 | 65 | 168 | 7.0 | 11.0 | 0.00 | 1.06 | 1.06 | 99 | 1002.1 |
| 20260507073810 | 65 | 168 | 5.0 | 9.0 | 0.00 | 1.06 | 1.06 | 99 | 1002.0 |
| 20260507073731 | 65 | 167 | 5.0 | 9.0 | 0.00 | 1.06 | 1.06 | 99 | 1002.0 |
| 20260507073610 | 65 | 166 | 5.0 | 9.0 | 0.00 | 1.06 | 1.06 | 99 | 1002.3 |
| 20260507073510 | 65 | 163 | 4.0 | 8.0 | 0.00 | 1.06 | 1.06 | 99 | 1002.2 |
| 20260507073431 | 65 | 162 | 4.0 | 8.0 | 0.00 | 1.06 | 1.06 | 99 | 1002.4 |
| 20260507073331 | 65 | 161 | 5.0 | 8.0 | 0.00 | 1.06 | 1.06 | 99 | 1002.1 |
| 20260507073210 | 65 | 159 | 5.0 | 8.0 | 0.00 | 1.06 | 1.06 | 99 | 1002.0 |
| 20260507073131 | 65 | 154 | 4.0 | 8.0 | 0.00 | 1.06 | 1.06 | 99 | 1002.2 |
| 20260507073032 | 65 | 155 | 3.0 | 8.0 | 0.00 | 1.06 | 1.06 | 99 | 1002.2 |
| 20260507072931 | 65 | 155 | 5.0 | 8.0 | 0.00 | 1.06 | 1.06 | 99 | 1002.3 |
| 20260507072811 | 65 | 160 | 4.0 | 8.0 | 0.00 | 1.06 | 1.06 | 99 | 1002.4 |
| 20260507072710 | 65 | 159 | 3.0 | 9.0 | 0.00 | 1.06 | 1.06 | 99 | 1002.3 |
| 20260507072610 | 65 | 159 | 4.0 | 9.0 | 0.00 | 1.06 | 1.06 | 99 | 1002.3 |
| 20260507072510 | 65 | 163 | 3.0 | 9.0 | 0.00 | 1.06 | 1.06 | 99 | 1002.2 |
| 20260507072410 | 65 | 164 | 2.0 | 9.0 | 0.00 | 1.06 | 1.06 | 99 | 1002.0 |
| 20260507072310 | 65 | 163 | 4.0 | 9.0 | 0.00 | 1.06 | 1.06 | 99 | 1002.1 |
| 20260507072231 | 65 | 164 | 4.0 | 9.0 | 0.00 | 1.06 | 1.06 | 99 | 1001.9 |
| 20260507072110 | 65 | 167 | 4.0 | 9.0 | 0.00 | 1.06 | 1.06 | 99 | 1002.1 |
| 20260507072010 | 65 | 165 | 4.0 | 9.0 | 0.00 | 1.06 | 1.06 | 99 | 1002.0 |
| 20260507071910 | 65 | 169 | 4.0 | 11.0 | 0.00 | 1.06 | 1.06 | 99 | 1002.0 |
| 20260507071810 | 65 | 171 | 6.0 | 11.0 | 0.00 | 1.06 | 1.06 | 99 | 1002.0 |
| 20260507071731 | 65 | 172 | 6.0 | 11.0 | 0.00 | 1.06 | 1.06 | 99 | 1002.0 |
| 20260507071610 | 65 | 173 | 5.0 | 11.0 | 0.00 | 1.06 | 1.06 | 99 | 1001.9 |
| 20260507071510 | 65 | 173 | 4.0 | 11.0 | 0.00 | 1.06 | 1.06 | 99 | 1001.7 |
| 20260507071410 | 65 | 172 | 5.0 | 11.0 | 0.00 | 1.06 | 1.06 | 99 | 1001.7 |
| 20260507071310 | 65 | 170 | 4.0 | 11.0 | 0.00 | 1.06 | 1.06 | 99 | 1001.7 |
| 20260507071210 | 65 | 169 | 4.0 | 11.0 | 0.00 | 1.06 | 1.06 | 99 | 1001.8 |
| 20260507071110 | 65 | 170 | 5.0 | 11.0 | 0.00 | 1.06 | 1.06 | 99 | 1001.9 |
| 20260507071031 | 65 | 171 | 5.0 | 11.0 | 0.00 | 1.06 | 1.06 | 99 | 1001.8 |
| 20260507070931 | 65 | 173 | 5.0 | 11.0 | 0.00 | 1.06 | 1.06 | 99 | 1002.1 |
| 20260507070810 | 65 | 175 | 4.0 | 11.0 | 0.00 | 1.06 | 1.06 | 99 | 1002.2 |
| 20260507070731 | 65 | 175 | 4.0 | 11.0 | 0.00 | 1.06 | 1.06 | 99 | 1002.1 |
| 20260507070610 | 65 | 175 | 8.0 | 11.0 | 0.00 | 1.06 | 1.06 | 99 | 1002.1 |
| 20260507070510 | 65 | 177 | 6.0 | 11.0 | 0.00 | 1.06 | 1.06 | 99 | 1002.1 |
| 20260507070410 | 65 | 179 | 4.0 | 11.0 | 0.00 | 1.06 | 1.06 | 99 | 1002.1 |
| 20260507070310 | 65 | 184 | 5.0 | 11.0 | 0.00 | 1.07 | 1.06 | 99 | 1002.1 |
| 20260507070210 | 65 | 187 | 4.0 | 11.0 | 0.00 | 1.07 | 1.06 | 99 | 1002.1 |
| 20260507070110 | 65 | 187 | 4.0 | 11.0 | 0.00 | 1.07 | 1.06 | 99 | 1002.0 |
| 20260507070013 | 65 | 187 | 5.0 | 11.0 | 0.00 | 1.09 | 1.06 | 99 | 1002.1 |
| 20260507065910 | 65 | 191 | 4.0 | 8.0 | 0.00 | 1.10 | 1.06 | 99 | 1002.0 |
| 20260507065810 | 65 | 188 | 3.0 | 7.0 | 0.00 | 1.10 | 1.06 | 99 | 1002.0 |
| 20260507065710 | 65 | 188 | 3.0 | 7.0 | 0.00 | 1.10 | 1.06 | 99 | 1002.1 |
| 20260507065631 | 65 | 190 | 3.0 | 7.0 | 0.00 | 1.10 | 1.06 | 99 | 1002.0 |
| 20260507065510 | 65 | 183 | 4.0 | 7.0 | 0.00 | 1.10 | 1.06 | 99 | 1002.2 |
| 20260507065410 | 65 | 183 | 4.0 | 7.0 | 0.00 | 1.10 | 1.06 | 99 | 1002.0 |
| 20260507065310 | 65 | 180 | 2.0 | 7.0 | 0.00 | 1.10 | 1.06 | 99 | 1002.0 |
| 20260507065210 | 65 | 177 | 3.0 | 7.0 | 0.00 | 1.10 | 1.06 | 99 | 1002.1 |
| 20260507065110 | 65 | 176 | 4.0 | 7.0 | 0.00 | 1.10 | 1.06 | 99 | 1002.0 |
| 20260507065031 | 65 | 176 | 2.0 | 7.0 | 0.00 | 1.10 | 1.06 | 99 | 1002.0 |
| 20260507064910 | 65 | 172 | 4.0 | 7.0 | 0.00 | 1.10 | 1.06 | 99 | 1001.9 |
| 20260507064810 | 65 | 176 | 2.0 | 7.0 | 0.00 | 1.10 | 1.06 | 99 | 1002.0 |
| 20260507064710 | 65 | 175 | 4.0 | 7.0 | 0.00 | 1.10 | 1.06 | 99 | 1002.0 |
| 20260507064610 | 65 | 178 | 0.0 | 7.0 | 0.00 | 1.10 | 1.06 | 99 | 1002.0 |
| 20260507064510 | 65 | 176 | 0.0 | 7.0 | 0.00 | 1.10 | 1.06 | 99 | 1002.2 |
| 20260507064410 | 65 | 175 | 0.0 | 7.0 | 0.00 | 1.10 | 1.06 | 99 | 1001.9 |
| 20260507064310 | 65 | 175 | 2.0 | 7.0 | 0.00 | 1.10 | 1.06 | 99 | 1001.9 |
| 20260507064210 | 65 | 172 | 4.0 | 7.0 | 0.00 | 1.10 | 1.06 | 99 | 1001.9 |
| 20260507064110 | 65 | 169 | 2.0 | 7.0 | 0.00 | 1.10 | 1.06 | 99 | 1001.9 |
| 20260507064031 | 65 | 166 | 4.0 | 7.0 | 0.00 | 1.10 | 1.06 | 99 | 1001.7 |
| 20260507063910 | 65 | 159 | 2.0 | 6.0 | 0.00 | 1.10 | 1.06 | 99 | 1001.7 |
| 20260507063810 | 65 | 154 | 4.0 | 6.0 | 0.00 | 1.10 | 1.06 | 99 | 1001.7 |
| 20260507063710 | 65 | 149 | 2.0 | 6.0 | 0.00 | 1.10 | 1.06 | 99 | 1001.6 |
| 20260507063610 | 65 | 151 | 2.0 | 6.0 | 0.00 | 1.10 | 1.06 | 99 | 1001.7 |
| 20260507063510 | 65 | 152 | 3.0 | 6.0 | 0.00 | 1.10 | 1.06 | 99 | 1001.6 |
| 20260507063431 | 65 | 153 | 2.0 | 6.0 | 0.00 | 1.10 | 1.06 | 99 | 1001.4 |
| 20260507063310 | 65 | 157 | 3.0 | 7.0 | 0.00 | 1.10 | 1.06 | 99 | 1001.5 |
| 20260507063210 | 65 | 164 | 3.0 | 8.0 | 0.00 | 1.10 | 1.06 | 99 | 1001.3 |
| 20260507063110 | 65 | 172 | 3.0 | 8.0 | 0.00 | 1.10 | 1.06 | 99 | 1001.4 |
| 20260507063011 | 65 | 175 | 2.0 | 8.0 | 0.00 | 1.10 | 1.06 | 99 | 1001.3 |
| 20260507062931 | 65 | 176 | 2.0 | 8.0 | 0.00 | 1.10 | 1.06 | 99 | 1001.3 |
| 20260507062831 | 65 | 176 | 2.0 | 8.0 | 0.00 | 1.10 | 1.06 | 99 | 1001.3 |
| 20260507062710 | 65 | 176 | 2.0 | 8.0 | 0.00 | 1.10 | 1.06 | 99 | 1001.3 |
| 20260507062610 | 65 | 177 | 4.0 | 8.0 | 0.00 | 1.10 | 1.06 | 99 | 1001.2 |
| 20260507062510 | 65 | 178 | 3.0 | 8.0 | 0.00 | 1.10 | 1.06 | 99 | 1001.3 |
| 20260507062431 | 65 | 177 | 3.0 | 8.0 | 0.00 | 1.10 | 1.06 | 99 | 1001.3 |
| 20260507062310 | 65 | 176 | 4.0 | 8.0 | 0.00 | 1.10 | 1.06 | 99 | 1001.5 |
| 20260507062210 | 65 | 173 | 5.0 | 8.0 | 0.00 | 1.10 | 1.06 | 99 | 1001.3 |
| 20260507062110 | 65 | 171 | 4.0 | 7.0 | 0.00 | 1.10 | 1.06 | 99 | 1001.2 |
| 20260507062010 | 65 | 170 | 3.0 | 7.0 | 0.00 | 1.10 | 1.06 | 99 | 1001.2 |
| 20260507061910 | 65 | 175 | 3.0 | 7.0 | 0.00 | 1.10 | 1.06 | 99 | 1001.3 |
| 20260507061810 | 65 | 178 | 4.0 | 6.0 | 0.00 | 1.10 | 1.06 | 99 | 1001.0 |
| 20260507061710 | 65 | 183 | 3.0 | 6.0 | 0.00 | 1.10 | 1.06 | 99 | 1001.3 |
| 20260507061610 | 65 | 184 | 3.0 | 6.0 | 0.00 | 1.10 | 1.06 | 99 | 1001.3 |
| 20260507061510 | 65 | 187 | 3.0 | 6.0 | 0.00 | 1.10 | 1.06 | 99 | 1001.1 |
| 20260507061410 | 65 | 189 | 3.0 | 6.0 | 0.00 | 1.10 | 1.06 | 99 | 1001.3 |
| 20260507061310 | 65 | 193 | 3.0 | 6.0 | 0.00 | 1.10 | 1.06 | 99 | 1001.1 |
| 20260507061231 | 65 | 195 | 4.0 | 6.0 | 0.00 | 1.10 | 1.06 | 99 | 1001.2 |
| 20260507061110 | 65 | 198 | 2.0 | 4.0 | 0.00 | 1.10 | 1.06 | 99 | 1001.3 |
| 20260507061010 | 66 | 202 | 2.0 | 4.0 | 0.00 | 1.10 | 1.06 | 99 | 1001.5 |
| 20260507060910 | 66 | 202 | 2.0 | 4.0 | 0.00 | 1.10 | 1.06 | 99 | 1001.6 |
| 20260507060810 | 66 | 202 | 2.0 | 4.0 | 0.00 | 1.10 | 1.06 | 99 | 1001.4 |
| 20260507060710 | 66 | 202 | 2.0 | 4.0 | 0.00 | 1.10 | 1.06 | 99 | 1001.2 |
| 20260507060610 | 66 | 0 | 0.0 | 0.0 | 0.00 | 1.10 | 1.06 | 99 | 1001.3 |
| 20260507060510 | 66 | 0 | 0.0 | 0.0 | 0.00 | 1.10 | 1.06 | 99 | 1001.2 |
| 20260507060431 | 66 | 0 | 0.0 | 0.0 | 0.00 | 1.10 | 1.06 | 99 | 1001.2 |
| 20260507060332 | 66 | 0 | 0.0 | 0.0 | 0.00 | 1.10 | 1.06 | 99 | 1001.1 |
| 20260507060210 | 66 | 0 | 0.0 | 0.0 | 0.00 | 1.10 | 1.06 | 99 | 1001.4 |
| 20260507060110 | 66 | 0 | 0.0 | 0.0 | 0.00 | 1.10 | 1.06 | 99 | 1001.3 |
| 20260507060031 | 66 | 0 | 0.0 | 0.0 | 0.00 | 1.10 | 1.06 | 99 | 1001.4 |
| 20260507055910 | 66 | 0 | 0.0 | 0.0 | 0.00 | 1.10 | 1.06 | 99 | 1001.3 |
| 20260507055810 | 66 | 0 | 0.0 | 0.0 | 0.01 | 1.10 | 1.06 | 99 | 1001.4 |
| 20260507055710 | 66 | 0 | 0.0 | 0.0 | 0.01 | 1.10 | 1.06 | 99 | 1001.6 |
| 20260507055610 | 66 | 0 | 0.0 | 0.0 | 0.01 | 1.10 | 1.06 | 99 | 1001.5 |
| 20260507055510 | 66 | 0 | 0.0 | 0.0 | 0.01 | 1.10 | 1.06 | 99 | 1001.6 |
| 20260507055410 | 66 | 0 | 0.0 | 0.0 | 0.01 | 1.10 | 1.06 | 99 | 1001.6 |
| 20260507055310 | 66 | 0 | 0.0 | 0.0 | 0.01 | 1.10 | 1.06 | 99 | 1001.5 |
| 20260507055231 | 66 | 0 | 0.0 | 0.0 | 0.01 | 1.10 | 1.06 | 99 | 1001.5 |
| 20260507055110 | 66 | 112 | 0.0 | 2.0 | 0.01 | 1.10 | 1.06 | 99 | 1001.6 |
| 20260507055010 | 66 | 112 | 0.0 | 4.0 | 0.01 | 1.10 | 1.06 | 99 | 1001.6 |
| 20260507054910 | 66 | 112 | 0.0 | 4.0 | 0.01 | 1.10 | 1.06 | 99 | 1001.6 |
| 20260507054810 | 66 | 117 | 0.0 | 4.0 | 0.01 | 1.10 | 1.06 | 99 | 1001.5 |
| 20260507054710 | 66 | 117 | 0.0 | 6.0 | 0.01 | 1.10 | 1.06 | 99 | 1001.5 |
| 20260507054631 | 66 | 119 | 0.0 | 6.0 | 0.01 | 1.10 | 1.06 | 99 | 1001.6 |
| 20260507054510 | 66 | 121 | 0.0 | 6.0 | 0.01 | 1.10 | 1.06 | 99 | 1001.3 |
| 20260507054410 | 66 | 125 | 0.0 | 7.0 | 0.01 | 1.10 | 1.06 | 99 | 1001.4 |
| 20260507054310 | 66 | 124 | 0.0 | 7.0 | 0.01 | 1.10 | 1.06 | 99 | 1001.5 |
| 20260507054210 | 66 | 125 | 0.0 | 7.0 | 0.01 | 1.10 | 1.06 | 99 | 1001.3 |
| 20260507054110 | 66 | 127 | 1.0 | 7.0 | 0.01 | 1.10 | 1.06 | 99 | 1001.3 |
| 20260507054010 | 66 | 131 | 2.0 | 7.0 | 0.01 | 1.10 | 1.06 | 99 | 1001.4 |
| 20260507053910 | 66 | 136 | 3.0 | 8.0 | 0.01 | 1.10 | 1.06 | 99 | 1001.2 |
| 20260507053831 | 66 | 136 | 2.0 | 8.0 | 0.01 | 1.10 | 1.06 | 99 | 1001.1 |
| 20260507053710 | 66 | 141 | 3.0 | 9.0 | 0.01 | 1.10 | 1.06 | 99 | 1000.8 |
| 20260507053610 | 66 | 140 | 2.0 | 13.0 | 0.01 | 1.10 | 1.06 | 99 | 1000.8 |
| 20260507053510 | 66 | 146 | 2.0 | 13.0 | 0.01 | 1.10 | 1.06 | 99 | 1000.9 |
| 20260507053410 | 66 | 148 | 3.0 | 13.0 | 0.01 | 1.10 | 1.06 | 99 | 1001.0 |
| 20260507053310 | 66 | 149 | 4.0 | 13.0 | 0.01 | 1.10 | 1.06 | 99 | 1001.0 |
| 20260507053210 | 66 | 151 | 3.0 | 13.0 | 0.01 | 1.10 | 1.06 | 99 | 1001.1 |
| 20260507053110 | 66 | 149 | 4.0 | 16.0 | 0.01 | 1.10 | 1.06 | 99 | 1001.2 |
| 20260507053011 | 66 | 149 | 4.0 | 16.0 | 0.01 | 1.10 | 1.06 | 99 | 1001.2 |
| 20260507052910 | 66 | 153 | 4.0 | 16.0 | 0.01 | 1.10 | 1.06 | 99 | 1001.2 |
| 20260507052810 | 66 | 156 | 5.0 | 16.0 | 0.01 | 1.10 | 1.06 | 99 | 1001.1 |
| 20260507052710 | 66 | 158 | 4.0 | 16.0 | 0.01 | 1.10 | 1.06 | 99 | 1001.4 |
| 20260507052610 | 66 | 163 | 7.0 | 16.0 | 0.01 | 1.10 | 1.06 | 99 | 1001.4 |
| 20260507052510 | 66 | 161 | 6.0 | 16.0 | 0.01 | 1.10 | 1.06 | 99 | 1001.1 |
| 20260507052431 | 66 | 161 | 6.0 | 16.0 | 0.02 | 1.10 | 1.06 | 99 | 1001.2 |
| 20260507052310 | 66 | 164 | 4.0 | 16.0 | 0.02 | 1.10 | 1.06 | 99 | 1001.2 |
| 20260507052210 | 66 | 166 | 8.0 | 16.0 | 0.08 | 1.10 | 1.06 | 99 | 1001.1 |
| 20260507052131 | 66 | 169 | 8.0 | 16.0 | 0.12 | 1.10 | 1.06 | 99 | 1001.1 |
| 20260507052010 | 66 | 174 | 8.0 | 11.0 | 0.17 | 1.10 | 1.06 | 99 | 1001.3 |
| 20260507051910 | 66 | 168 | 5.0 | 11.0 | 0.22 | 1.10 | 1.06 | 99 | 1001.4 |
| 20260507051810 | 66 | 167 | 4.0 | 7.0 | 0.34 | 1.10 | 1.06 | 99 | 1001.3 |
| 20260507051710 | 66 | 165 | 3.0 | 7.0 | 0.38 | 1.10 | 1.06 | 99 | 1001.4 |
| 20260507051610 | 66 | 165 | 3.0 | 7.0 | 0.43 | 1.10 | 1.06 | 98 | 1001.3 |
| 20260507051510 | 66 | 164 | 4.0 | 8.0 | 0.47 | 1.10 | 1.06 | 98 | 1001.4 |
| 20260507051410 | 66 | 170 | 2.0 | 8.0 | 0.54 | 1.10 | 1.06 | 98 | 1001.2 |
| 20260507051310 | 66 | 169 | 2.0 | 8.0 | 0.57 | 1.10 | 1.06 | 98 | 1001.1 |
| 20260507051210 | 66 | 170 | 2.0 | 8.0 | 0.61 | 1.10 | 1.06 | 98 | 1001.3 |
| 20260507051110 | 66 | 166 | 4.0 | 9.0 | 0.65 | 1.10 | 1.06 | 98 | 1001.3 |
| 20260507051031 | 66 | 166 | 3.0 | 9.0 | 0.71 | 1.10 | 1.06 | 98 | 1001.3 |
| 20260507050910 | 66 | 165 | 2.0 | 9.0 | 0.73 | 1.10 | 1.06 | 98 | 1001.3 |
| 20260507050810 | 66 | 157 | 3.0 | 9.0 | 0.74 | 1.10 | 1.06 | 98 | 1001.3 |
| 20260507050710 | 66 | 159 | 4.0 | 9.0 | 0.79 | 1.10 | 1.06 | 98 | 1001.1 |
| 20260507050610 | 66 | 157 | 3.0 | 9.0 | 0.84 | 1.10 | 1.06 | 98 | 1001.2 |
| 20260507050510 | 66 | 162 | 4.0 | 9.0 | 0.87 | 1.10 | 1.06 | 98 | 1001.2 |
| 20260507050410 | 66 | 158 | 2.0 | 9.0 | 0.91 | 1.10 | 1.06 | 98 | 1001.1 |
| 20260507050310 | 66 | 155 | 2.0 | 9.0 | 0.91 | 1.10 | 1.06 | 98 | 1001.3 |
| 20260507050210 | 66 | 153 | 3.0 | 9.0 | 0.93 | 1.10 | 1.06 | 98 | 1001.0 |
| 20260507050110 | 66 | 156 | 5.0 | 9.0 | 0.96 | 1.10 | 1.06 | 98 | 1001.3 |
| 20260507050032 | 66 | 156 | 5.0 | 9.0 | 0.97 | 1.10 | 1.06 | 98 | 1001.3 |
| 20260507045910 | 66 | 160 | 3.0 | 11.0 | 0.98 | 1.10 | 1.06 | 98 | 1001.3 |
| 20260507045810 | 66 | 166 | 5.0 | 22.0 | 0.99 | 1.09 | 1.05 | 98 | 1001.5 |
| 20260507045710 | 66 | 168 | 4.0 | 22.0 | 1.00 | 1.09 | 1.05 | 98 | 1001.4 |
| 20260507045610 | 66 | 172 | 6.0 | 22.0 | 1.02 | 1.09 | 1.05 | 98 | 1001.3 |
| 20260507045510 | 66 | 171 | 6.0 | 22.0 | 1.03 | 1.09 | 1.05 | 98 | 1001.2 |
| 20260507045410 | 66 | 171 | 4.0 | 22.0 | 1.03 | 1.09 | 1.05 | 98 | 1001.4 |
| 20260507045331 | 66 | 173 | 4.0 | 22.0 | 1.04 | 1.09 | 1.05 | 98 | 1001.4 |
| 20260507045210 | 67 | 177 | 5.0 | 22.0 | 1.04 | 1.09 | 1.05 | 98 | 1001.1 |
| 20260507045110 | 67 | 181 | 5.0 | 22.0 | 1.04 | 1.09 | 1.05 | 98 | 1001.2 |
| 20260507045010 | 67 | 186 | 7.0 | 22.0 | 1.04 | 1.09 | 1.05 | 97 | 1001.1 |
| 20260507044910 | 68 | 190 | 8.0 | 22.0 | 1.04 | 1.09 | 1.05 | 97 | 1001.1 |
| 20260507044810 | 69 | 198 | 12.0 | 22.0 | 1.04 | 1.09 | 1.05 | 97 | 1001.7 |
| 20260507044710 | 69 | 208 | 8.0 | 16.0 | 1.04 | 1.09 | 1.05 | 98 | 1001.6 |
| 20260507044610 | 69 | 223 | 6.0 | 13.0 | 1.04 | 1.09 | 1.05 | 98 | 1001.5 |
| 20260507044510 | 69 | 238 | 8.0 | 15.0 | 1.04 | 1.09 | 1.05 | 97 | 1001.7 |
| 20260507044410 | 69 | 255 | 5.0 | 15.0 | 1.05 | 1.09 | 1.05 | 97 | 1001.5 |
| 20260507044310 | 69 | 260 | 4.0 | 15.0 | 1.05 | 1.09 | 1.05 | 97 | 1001.4 |
| 20260507044210 | 69 | 268 | 3.0 | 15.0 | 1.05 | 1.09 | 1.05 | 97 | 1001.3 |
| 20260507044131 | 69 | 270 | 3.0 | 15.0 | 1.05 | 1.09 | 1.05 | 97 | 1001.3 |
| 20260507044031 | 69 | 270 | 4.0 | 15.0 | 1.05 | 1.09 | 1.05 | 97 | 1001.2 |
| 20260507043910 | 69 | 272 | 4.0 | 15.0 | 1.05 | 1.09 | 1.05 | 97 | 1001.3 |
| 20260507043810 | 69 | 268 | 5.0 | 15.0 | 1.05 | 1.09 | 1.05 | 97 | 1001.5 |
| 20260507043710 | 69 | 271 | 8.0 | 15.0 | 1.05 | 1.09 | 1.05 | 97 | 1001.4 |
| 20260507043610 | 69 | 273 | 11.0 | 15.0 | 1.05 | 1.09 | 1.05 | 97 | 1001.2 |
| 20260507043510 | 69 | 269 | 11.0 | 16.0 | 1.05 | 1.09 | 1.05 | 97 | 1001.2 |
| 20260507043432 | 69 | 266 | 10.0 | 16.0 | 1.05 | 1.09 | 1.05 | 97 | 1000.9 |
| 20260507043310 | 69 | 274 | 7.0 | 16.0 | 1.05 | 1.09 | 1.05 | 97 | 1000.6 |
| 20260507043210 | 69 | 276 | 7.0 | 16.0 | 1.05 | 1.09 | 1.05 | 97 | 1000.7 |
| 20260507043110 | 68 | 273 | 8.0 | 27.0 | 1.05 | 1.09 | 1.05 | 97 | 1000.5 |
| 20260507043011 | 68 | 274 | 7.0 | 27.0 | 1.05 | 1.09 | 1.05 | 97 | 1000.7 |
| 20260507042931 | 68 | 275 | 7.0 | 27.0 | 1.05 | 1.09 | 1.05 | 97 | 1000.7 |
| 20260507042810 | 68 | 281 | 10.0 | 27.0 | 1.05 | 1.09 | 1.05 | 97 | 1000.6 |
| 20260507042710 | 68 | 280 | 10.0 | 27.0 | 1.05 | 1.09 | 1.05 | 97 | 1000.4 |
| 20260507042610 | 67 | 282 | 7.0 | 27.0 | 1.05 | 1.09 | 1.05 | 97 | 999.8 |
| 20260507042510 | 67 | 282 | 8.0 | 27.0 | 1.05 | 1.09 | 1.05 | 97 | 999.6 |
| 20260507042431 | 67 | 286 | 9.0 | 27.0 | 1.04 | 1.07 | 1.04 | 97 | 999.2 |
| 20260507042310 | 67 | 280 | 9.0 | 27.0 | 1.04 | 1.07 | 1.04 | 97 | 999.2 |
| 20260507042210 | 68 | 276 | 8.0 | 27.0 | 0.98 | 1.02 | 0.98 | 97 | 999.2 |
| 20260507042110 | 68 | 275 | 13.0 | 27.0 | 0.94 | 0.98 | 0.94 | 97 | 999.7 |
| 20260507042010 | 68 | 271 | 7.0 | 22.0 | 0.90 | 0.93 | 0.90 | 97 | 1000.8 |
| 20260507041910 | 68 | 264 | 9.0 | 22.0 | 0.84 | 0.87 | 0.84 | 97 | 1001.0 |
| 20260507041810 | 68 | 252 | 9.0 | 22.0 | 0.72 | 0.76 | 0.72 | 96 | 1001.6 |
| 20260507041710 | 68 | 249 | 9.0 | 22.0 | 0.69 | 0.72 | 0.69 | 96 | 1001.8 |
| 20260507041631 | 68 | 247 | 14.0 | 22.0 | 0.64 | 0.67 | 0.64 | 96 | 1001.7 |
| 20260507041510 | 68 | 240 | 8.0 | 21.0 | 0.59 | 0.63 | 0.59 | 96 | 1001.6 |
| 20260507041410 | 68 | 236 | 11.0 | 21.0 | 0.52 | 0.56 | 0.52 | 96 | 1001.4 |
| 20260507041331 | 68 | 233 | 11.0 | 21.0 | 0.50 | 0.53 | 0.52 | 96 | 1001.4 |
| 20260507041231 | 67 | 221 | 9.0 | 20.0 | 0.45 | 0.48 | 0.45 | 95 | 1000.9 |
| 20260507041131 | 67 | 225 | 8.0 | 18.0 | 0.41 | 0.45 | 0.41 | 95 | 1001.0 |
| 20260507041010 | 67 | 220 | 8.0 | 18.0 | 0.35 | 0.39 | 0.35 | 95 | 1001.5 |
| 20260507040910 | 67 | 221 | 11.0 | 18.0 | 0.33 | 0.37 | 0.33 | 95 | 1001.7 |
| 20260507040810 | 67 | 216 | 8.0 | 18.0 | 0.32 | 0.35 | 0.32 | 94 | 1001.4 |
| 20260507040710 | 67 | 206 | 8.0 | 15.0 | 0.27 | 0.31 | 0.27 | 94 | 1001.4 |
| 20260507040610 | 67 | 192 | 6.0 | 11.0 | 0.22 | 0.26 | 0.22 | 94 | 1001.5 |
| 20260507040531 | 67 | 185 | 6.0 | 11.0 | 0.19 | 0.22 | 0.22 | 94 | 1001.5 |
| 20260507040410 | 67 | 179 | 3.0 | 11.0 | 0.15 | 0.19 | 0.15 | 93 | 1001.1 |
| 20260507040310 | 67 | 171 | 3.0 | 11.0 | 0.15 | 0.19 | 0.15 | 93 | 1001.0 |
| 20260507040210 | 67 | 167 | 4.0 | 11.0 | 0.13 | 0.17 | 0.13 | 93 | 1001.0 |
| 20260507040110 | 67 | 162 | 4.0 | 15.0 | 0.11 | 0.14 | 0.11 | 93 | 1000.4 |
| 20260507040011 | 67 | 163 | 6.0 | 15.0 | 0.09 | 0.13 | 0.09 | 93 | 1000.3 |
| 20260507035910 | 67 | 164 | 4.0 | 22.0 | 0.08 | 0.12 | 0.08 | 92 | 1000.3 |
| 20260507035810 | 66 | 167 | 5.0 | 22.0 | 0.06 | 0.09 | 0.06 | 92 | 1000.3 |
| 20260507035710 | 66 | 167 | 6.0 | 22.0 | 0.05 | 0.08 | 0.05 | 92 | 1000.3 |
| 20260507035610 | 66 | 168 | 6.0 | 22.0 | 0.04 | 0.07 | 0.04 | 91 | 1000.1 |
| 20260507035510 | 67 | 173 | 6.0 | 22.0 | 0.02 | 0.06 | 0.02 | 91 | 1000.2 |
| 20260507035410 | 67 | 173 | 7.0 | 22.0 | 0.02 | 0.06 | 0.02 | 90 | 1000.5 |
| 20260507035331 | 67 | 177 | 7.0 | 22.0 | 0.01 | 0.05 | 0.02 | 90 | 1000.5 |
| 20260507035210 | 68 | 187 | 6.0 | 22.0 | 0.01 | 0.05 | 0.01 | 89 | 1000.9 |
| 20260507035110 | 69 | 197 | 9.0 | 22.0 | 0.01 | 0.05 | 0.01 | 89 | 1000.9 |
| 20260507035010 | 71 | 214 | 11.0 | 22.0 | 0.01 | 0.05 | 0.01 | 88 | 1000.7 |
| 20260507034910 | 72 | 242 | 12.0 | 17.0 | 0.01 | 0.05 | 0.01 | 87 | 1000.4 |
| 20260507034810 | 74 | 271 | 10.0 | 13.0 | 0.01 | 0.05 | 0.01 | 88 | 1000.3 |
| 20260507034710 | 75 | 294 | 4.0 | 13.0 | 0.01 | 0.05 | 0.01 | 89 | 1000.1 |
| 20260507034610 | 75 | 306 | 2.0 | 13.0 | 0.01 | 0.05 | 0.01 | 89 | 999.8 |
| 20260507034510 | 75 | 310 | 2.0 | 14.0 | 0.01 | 0.05 | 0.01 | 89 | 999.6 |
| 20260507034411 | 75 | 316 | 4.0 | 14.0 | 0.00 | 0.04 | 0.00 | 89 | 999.6 |
| 20260507034310 | 75 | 321 | 3.0 | 14.0 | 0.00 | 0.04 | 0.00 | 89 | 999.6 |
| 20260507034210 | 75 | 323 | 2.0 | 14.0 | 0.00 | 0.04 | 0.00 | 89 | 999.8 |
| 20260507034110 | 75 | 325 | 4.0 | 14.0 | 0.00 | 0.04 | 0.00 | 89 | 999.9 |
| 20260507034010 | 75 | 327 | 4.0 | 14.0 | 0.00 | 0.04 | 0.00 | 89 | 999.7 |
| 20260507033910 | 75 | 332 | 3.0 | 14.0 | 0.00 | 0.04 | 0.00 | 89 | 999.7 |
| 20260507033810 | 75 | 335 | 6.0 | 14.0 | 0.00 | 0.04 | 0.00 | 89 | 999.6 |
| 20260507033710 | 75 | 334 | 4.0 | 14.0 | 0.00 | 0.04 | 0.00 | 89 | 999.6 |
| 20260507033610 | 75 | 333 | 5.0 | 14.0 | 0.00 | 0.04 | 0.00 | 89 | 999.6 |
| 20260507033510 | 75 | 335 | 8.0 | 14.0 | 0.00 | 0.04 | 0.00 | 89 | 999.5 |
| 20260507033410 | 75 | 334 | 5.0 | 13.0 | 0.00 | 0.04 | 0.00 | 88 | 999.4 |
| 20260507033310 | 75 | 332 | 5.0 | 13.0 | 0.00 | 0.04 | 0.00 | 88 | 999.4 |
| 20260507033210 | 75 | 334 | 7.0 | 13.0 | 0.00 | 0.04 | 0.00 | 88 | 999.3 |
| 20260507033110 | 75 | 333 | 7.0 | 13.0 | 0.00 | 0.04 | 0.00 | 88 | 999.0 |
| 20260507033011 | 75 | 332 | 7.0 | 13.0 | 0.00 | 0.04 | 0.00 | 88 | 998.8 |
| 20260507032910 | 75 | 329 | 6.0 | 13.0 | 0.00 | 0.04 | 0.00 | 88 | 998.6 |
| 20260507032810 | 74 | 328 | 9.0 | 13.0 | 0.00 | 0.04 | 0.00 | 88 | 998.6 |
| 20260507032710 | 74 | 330 | 9.0 | 13.0 | 0.00 | 0.04 | 0.00 | 88 | 998.6 |
| 20260507032610 | 75 | 334 | 8.0 | 11.0 | 0.00 | 0.04 | 0.00 | 88 | 998.7 |
| 20260507032510 | 75 | 333 | 6.0 | 11.0 | 0.00 | 0.04 | 0.00 | 88 | 998.8 |
| 20260507032431 | 75 | 335 | 6.0 | 11.0 | 0.00 | 0.04 | 0.00 | 88 | 999.0 |
| 20260507032310 | 75 | 341 | 5.0 | 11.0 | 0.00 | 0.04 | 0.00 | 88 | 998.9 |
| 20260507032232 | 75 | 342 | 5.0 | 11.0 | 0.00 | 0.04 | 0.00 | 88 | 999.0 |
| 20260507032110 | 75 | 346 | 7.0 | 11.0 | 0.00 | 0.04 | 0.00 | 88 | 999.1 |
| 20260507032010 | 75 | 349 | 6.0 | 11.0 | 0.00 | 0.04 | 0.00 | 88 | 999.1 |
| 20260507031910 | 75 | 352 | 7.0 | 11.0 | 0.00 | 0.04 | 0.00 | 88 | 999.2 |
| 20260507031810 | 75 | 355 | 7.0 | 9.0 | 0.00 | 0.04 | 0.00 | 88 | 998.9 |
| 20260507031710 | 75 | 353 | 4.0 | 9.0 | 0.00 | 0.04 | 0.00 | 88 | 998.9 |
| 20260507031610 | 75 | 351 | 4.0 | 9.0 | 0.00 | 0.04 | 0.00 | 87 | 998.8 |
| 20260507031510 | 75 | 349 | 4.0 | 9.0 | 0.00 | 0.04 | 0.00 | 87 | 998.8 |
| 20260507031410 | 75 | 349 | 4.0 | 9.0 | 0.00 | 0.04 | 0.00 | 87 | 999.0 |
| 20260507031310 | 75 | 347 | 5.0 | 9.0 | 0.00 | 0.04 | 0.00 | 87 | 999.3 |
| 20260507031210 | 75 | 345 | 5.0 | 9.0 | 0.00 | 0.04 | 0.00 | 87 | 999.2 |
| 20260507031110 | 75 | 342 | 6.0 | 9.0 | 0.00 | 0.04 | 0.00 | 87 | 999.2 |
| 20260507031010 | 75 | 339 | 4.0 | 9.0 | 0.00 | 0.04 | 0.00 | 87 | 999.2 |
| 20260507030931 | 75 | 340 | 4.0 | 9.0 | 0.00 | 0.04 | 0.00 | 87 | 999.2 |
| 20260507030810 | 75 | 335 | 5.0 | 8.0 | 0.00 | 0.04 | 0.00 | 87 | 999.5 |
| 20260507030710 | 75 | 334 | 5.0 | 8.0 | 0.00 | 0.04 | 0.00 | 87 | 999.6 |
| 20260507030634 | 75 | 333 | 4.0 | 8.0 | 0.00 | 0.04 | 0.00 | 87 | 999.7 |
| 20260507030511 | 75 | 335 | 4.0 | 8.0 | 0.00 | 0.04 | 0.00 | 87 | 999.7 |
| 20260507030410 | 75 | 334 | 4.0 | 8.0 | 0.00 | 0.04 | 0.00 | 88 | 999.7 |
| 20260507030310 | 75 | 334 | 4.0 | 8.0 | 0.00 | 0.04 | 0.00 | 88 | 1000.0 |
| 20260507030210 | 75 | 334 | 5.0 | 8.0 | 0.00 | 0.04 | 0.00 | 88 | 999.9 |
| 20260507030110 | 75 | 334 | 5.0 | 8.0 | 0.00 | 0.04 | 0.00 | 88 | 999.9 |
| 20260507030011 | 75 | 334 | 4.0 | 7.0 | 0.00 | 0.04 | 0.00 | 88 | 999.9 |
| 20260507025910 | 75 | 334 | 4.0 | 7.0 | 0.00 | 0.04 | 0.04 | 88 | 999.9 |
| 20260507025810 | 75 | 334 | 4.0 | 7.0 | 0.00 | 0.04 | 0.04 | 88 | 999.9 |
| 20260507025710 | 75 | 336 | 3.0 | 9.0 | 0.00 | 0.04 | 0.04 | 88 | 1000.1 |
| 20260507025610 | 75 | 342 | 3.0 | 9.0 | 0.00 | 0.04 | 0.04 | 88 | 999.9 |
| 20260507025510 | 75 | 344 | 3.0 | 9.0 | 0.00 | 0.04 | 0.04 | 88 | 1000.2 |
| 20260507025410 | 75 | 346 | 4.0 | 9.0 | 0.00 | 0.04 | 0.04 | 88 | 1000.1 |
| 20260507025310 | 75 | 346 | 4.0 | 9.0 | 0.00 | 0.04 | 0.04 | 88 | 1000.2 |
| 20260507025210 | 75 | 345 | 3.0 | 9.0 | 0.00 | 0.04 | 0.04 | 88 | 1000.3 |
| 20260507025131 | 75 | 345 | 3.0 | 9.0 | 0.00 | 0.04 | 0.04 | 88 | 1000.2 |
| 20260507025010 | 75 | 348 | 4.0 | 9.0 | 0.00 | 0.04 | 0.04 | 87 | 1000.3 |
| 20260507024910 | 75 | 348 | 4.0 | 9.0 | 0.00 | 0.04 | 0.04 | 87 | 1000.4 |
| 20260507024810 | 75 | 350 | 3.0 | 9.0 | 0.00 | 0.04 | 0.04 | 87 | 1000.2 |
| 20260507024710 | 75 | 348 | 5.0 | 9.0 | 0.00 | 0.04 | 0.04 | 87 | 1000.2 |
| 20260507024610 | 75 | 344 | 4.0 | 9.0 | 0.00 | 0.04 | 0.04 | 87 | 1000.2 |
| 20260507024510 | 75 | 344 | 4.0 | 9.0 | 0.00 | 0.04 | 0.04 | 87 | 1000.0 |
| 20260507024410 | 75 | 340 | 4.0 | 9.0 | 0.00 | 0.04 | 0.04 | 87 | 1000.0 |
| 20260507024310 | 75 | 338 | 4.0 | 9.0 | 0.00 | 0.04 | 0.04 | 87 | 999.9 |
| 20260507024210 | 75 | 337 | 4.0 | 9.0 | 0.00 | 0.04 | 0.04 | 87 | 1000.1 |
| 20260507024131 | 75 | 336 | 4.0 | 9.0 | 0.00 | 0.04 | 0.04 | 87 | 1000.1 |
| 20260507024010 | 75 | 333 | 4.0 | 9.0 | 0.00 | 0.04 | 0.04 | 87 | 1000.1 |
| 20260507023910 | 75 | 331 | 5.0 | 9.0 | 0.00 | 0.04 | 0.04 | 87 | 1000.3 |
| 20260507023810 | 75 | 328 | 5.0 | 9.0 | 0.00 | 0.04 | 0.04 | 88 | 1000.5 |
| 20260507023710 | 75 | 328 | 4.0 | 9.0 | 0.00 | 0.04 | 0.04 | 88 | 1000.7 |
| 20260507023610 | 75 | 330 | 6.0 | 9.0 | 0.00 | 0.04 | 0.04 | 88 | 1000.8 |
| 20260507023510 | 75 | 328 | 4.0 | 8.0 | 0.00 | 0.04 | 0.04 | 88 | 1000.8 |
| 20260507023410 | 75 | 330 | 4.0 | 8.0 | 0.00 | 0.04 | 0.04 | 88 | 1001.0 |
| 20260507023310 | 75 | 332 | 4.0 | 8.0 | 0.00 | 0.04 | 0.04 | 88 | 1001.0 |
| 20260507023210 | 75 | 335 | 4.0 | 7.0 | 0.00 | 0.04 | 0.04 | 88 | 1000.9 |
| 20260507023110 | 75 | 336 | 4.0 | 7.0 | 0.00 | 0.04 | 0.04 | 88 | 1001.0 |
| 20260507023032 | 75 | 337 | 2.0 | 6.0 | 0.00 | 0.04 | 0.04 | 88 | 1000.8 |
| 20260507022910 | 75 | 339 | 2.0 | 6.0 | 0.00 | 0.04 | 0.04 | 88 | 1000.9 |
| 20260507022810 | 75 | 340 | 2.0 | 6.0 | 0.00 | 0.04 | 0.04 | 88 | 1000.9 |
| 20260507022710 | 75 | 343 | 3.0 | 6.0 | 0.00 | 0.04 | 0.04 | 88 | 1000.9 |
| 20260507022610 | 75 | 346 | 4.0 | 6.0 | 0.00 | 0.04 | 0.04 | 88 | 1001.0 |
| 20260507022510 | 75 | 348 | 3.0 | 6.0 | 0.00 | 0.04 | 0.04 | 88 | 1001.0 |
| 20260507022410 | 75 | 351 | 3.0 | 6.0 | 0.00 | 0.04 | 0.04 | 88 | 1001.0 |
| 20260507022310 | 75 | 355 | 3.0 | 6.0 | 0.00 | 0.04 | 0.04 | 88 | 1001.0 |
| 20260507022231 | 75 | 354 | 4.0 | 6.0 | 0.00 | 0.04 | 0.04 | 88 | 1001.1 |
| 20260507022131 | 75 | 355 | 4.0 | 7.0 | 0.00 | 0.04 | 0.04 | 88 | 1001.1 |
| 20260507022010 | 75 | 355 | 3.0 | 7.0 | 0.00 | 0.04 | 0.04 | 88 | 1001.2 |
| 20260507021910 | 75 | 355 | 2.0 | 7.0 | 0.00 | 0.04 | 0.04 | 88 | 1001.1 |
| 20260507021810 | 75 | 354 | 3.0 | 7.0 | 0.00 | 0.04 | 0.04 | 88 | 1001.0 |
| 20260507021731 | 75 | 352 | 3.0 | 7.0 | 0.00 | 0.04 | 0.04 | 88 | 1001.0 |
| 20260507021610 | 75 | 348 | 3.0 | 7.0 | 0.00 | 0.04 | 0.04 | 88 | 1001.0 |
| 20260507021510 | 75 | 343 | 3.0 | 7.0 | 0.00 | 0.04 | 0.04 | 88 | 1001.1 |
| 20260507021431 | 75 | 342 | 2.0 | 7.0 | 0.00 | 0.04 | 0.04 | 88 | 1001.0 |
| 20260507021310 | 75 | 335 | 4.0 | 7.0 | 0.00 | 0.04 | 0.04 | 88 | 1001.1 |
| 20260507021210 | 75 | 335 | 4.0 | 8.0 | 0.00 | 0.04 | 0.04 | 88 | 1000.7 |
| 20260507021110 | 75 | 332 | 4.0 | 8.0 | 0.00 | 0.04 | 0.04 | 88 | 1001.0 |
| 20260507021010 | 75 | 334 | 2.0 | 8.0 | 0.00 | 0.04 | 0.04 | 88 | 1001.0 |
| 20260507020910 | 75 | 335 | 2.0 | 8.0 | 0.00 | 0.04 | 0.04 | 87 | 1001.1 |
| 20260507020810 | 75 | 334 | 4.0 | 8.0 | 0.00 | 0.04 | 0.04 | 87 | 1001.1 |
| 20260507020731 | 75 | 332 | 4.0 | 8.0 | 0.00 | 0.04 | 0.04 | 87 | 1001.1 |
| 20260507020610 | 76 | 331 | 3.0 | 8.0 | 0.00 | 0.04 | 0.04 | 87 | 1001.3 |
| 20260507020510 | 76 | 331 | 4.0 | 8.0 | 0.00 | 0.04 | 0.04 | 87 | 1001.3 |
| 20260507020410 | 76 | 329 | 4.0 | 8.0 | 0.00 | 0.04 | 0.04 | 87 | 1001.2 |
| 20260507020310 | 76 | 332 | 4.0 | 8.0 | 0.00 | 0.04 | 0.04 | 87 | 1001.3 |
| 20260507020210 | 76 | 333 | 4.0 | 8.0 | 0.00 | 0.04 | 0.04 | 87 | 1001.2 |
| 20260507020110 | 76 | 333 | 4.0 | 8.0 | 0.00 | 0.04 | 0.04 | 87 | 1001.2 |
| 20260507020010 | 76 | 333 | 5.0 | 8.0 | 0.00 | 0.04 | 0.04 | 87 | 1001.2 |
| 20260507015931 | 76 | 333 | 4.0 | 7.0 | 0.00 | 0.04 | 0.04 | 87 | 1001.1 |
| 20260507015831 | 76 | 331 | 4.0 | 7.0 | 0.00 | 0.04 | 0.04 | 87 | 1001.3 |
| 20260507015710 | 76 | 332 | 4.0 | 7.0 | 0.00 | 0.04 | 0.04 | 87 | 1001.1 |
| 20260507015610 | 76 | 336 | 5.0 | 7.0 | 0.00 | 0.04 | 0.04 | 87 | 1001.2 |
| 20260507015510 | 76 | 335 | 4.0 | 7.0 | 0.00 | 0.04 | 0.04 | 87 | 1001.3 |
| 20260507015431 | 76 | 336 | 4.0 | 7.0 | 0.00 | 0.04 | 0.04 | 87 | 1001.2 |
| 20260507015310 | 76 | 336 | 3.0 | 7.0 | 0.00 | 0.04 | 0.04 | 87 | 1001.2 |
| 20260507015210 | 76 | 335 | 4.0 | 7.0 | 0.00 | 0.04 | 0.04 | 87 | 1001.3 |
| 20260507015131 | 76 | 337 | 4.0 | 7.0 | 0.00 | 0.04 | 0.04 | 87 | 1001.3 |
| 20260507015010 | 76 | 338 | 3.0 | 7.0 | 0.00 | 0.04 | 0.04 | 87 | 1001.4 |
| 20260507014910 | 76 | 337 | 4.0 | 7.0 | 0.00 | 0.04 | 0.04 | 87 | 1001.5 |
| 20260507014810 | 76 | 338 | 3.0 | 7.0 | 0.00 | 0.04 | 0.04 | 87 | 1001.5 |
| 20260507014710 | 76 | 336 | 4.0 | 7.0 | 0.00 | 0.04 | 0.04 | 87 | 1001.6 |
| 20260507014631 | 76 | 336 | 3.0 | 7.0 | 0.00 | 0.04 | 0.04 | 87 | 1001.7 |
| 20260507014510 | 75 | 337 | 4.0 | 7.0 | 0.00 | 0.04 | 0.04 | 87 | 1001.8 |
| 20260507014431 | 75 | 337 | 4.0 | 6.0 | 0.00 | 0.04 | 0.04 | 87 | 1001.7 |
| 20260507014310 | 75 | 337 | 4.0 | 6.0 | 0.00 | 0.04 | 0.04 | 88 | 1001.5 |
| 20260507014210 | 75 | 337 | 3.0 | 6.0 | 0.00 | 0.04 | 0.04 | 87 | 1001.6 |
| 20260507014110 | 75 | 335 | 2.0 | 6.0 | 0.00 | 0.04 | 0.04 | 87 | 1001.5 |
| 20260507014010 | 75 | 333 | 4.0 | 6.0 | 0.00 | 0.04 | 0.04 | 88 | 1001.7 |
| 20260507013910 | 75 | 334 | 3.0 | 6.0 | 0.00 | 0.04 | 0.04 | 88 | 1001.5 |
| 20260507013810 | 75 | 335 | 3.0 | 6.0 | 0.00 | 0.04 | 0.04 | 88 | 1001.6 |
| 20260507013710 | 75 | 339 | 4.0 | 6.0 | 0.00 | 0.04 | 0.04 | 88 | 1001.5 |
| 20260507013610 | 75 | 340 | 4.0 | 6.0 | 0.00 | 0.04 | 0.04 | 88 | 1001.4 |
| 20260507013510 | 75 | 343 | 3.0 | 7.0 | 0.00 | 0.04 | 0.04 | 88 | 1001.3 |
| 20260507013410 | 75 | 343 | 4.0 | 7.0 | 0.00 | 0.04 | 0.04 | 88 | 1001.4 |
| 20260507013310 | 75 | 343 | 3.0 | 7.0 | 0.00 | 0.04 | 0.04 | 88 | 1001.4 |
| 20260507013210 | 75 | 344 | 4.0 | 7.0 | 0.00 | 0.04 | 0.04 | 88 | 1001.3 |
| 20260507013110 | 75 | 346 | 3.0 | 7.0 | 0.00 | 0.04 | 0.04 | 88 | 1001.3 |
| 20260507013011 | 75 | 348 | 3.0 | 7.0 | 0.00 | 0.04 | 0.04 | 88 | 1001.4 |
| 20260507012910 | 75 | 350 | 3.0 | 7.0 | 0.00 | 0.04 | 0.04 | 88 | 1001.3 |
| 20260507012810 | 75 | 353 | 2.0 | 7.0 | 0.00 | 0.04 | 0.04 | 88 | 1001.2 |
| 20260507012710 | 75 | 351 | 3.0 | 7.0 | 0.00 | 0.04 | 0.04 | 88 | 1001.3 |
| 20260507012610 | 75 | 352 | 3.0 | 7.0 | 0.00 | 0.04 | 0.04 | 88 | 1001.2 |
| 20260507012510 | 75 | 352 | 3.0 | 6.0 | 0.00 | 0.04 | 0.04 | 88 | 1001.3 |
| 20260507012410 | 75 | 354 | 3.0 | 6.0 | 0.00 | 0.04 | 0.04 | 88 | 1001.3 |
| 20260507012310 | 76 | 359 | 2.0 | 6.0 | 0.00 | 0.04 | 0.04 | 87 | 1001.4 |
| 20260507012231 | 76 | 1 | 2.0 | 6.0 | 0.00 | 0.04 | 0.04 | 87 | 1001.4 |
| 20260507012110 | 76 | 3 | 2.0 | 6.0 | 0.00 | 0.04 | 0.04 | 87 | 1001.3 |
| 20260507012010 | 76 | 6 | 2.0 | 6.0 | 0.00 | 0.04 | 0.04 | 87 | 1001.2 |
| 20260507011910 | 76 | 9 | 2.0 | 6.0 | 0.00 | 0.04 | 0.04 | 87 | 1001.4 |
| 20260507011810 | 76 | 11 | 3.0 | 6.0 | 0.00 | 0.04 | 0.04 | 87 | 1001.4 |
| 20260507011710 | 76 | 15 | 3.0 | 6.0 | 0.00 | 0.04 | 0.04 | 86 | 1001.3 |
| 20260507011610 | 76 | 16 | 3.0 | 6.0 | 0.00 | 0.04 | 0.04 | 86 | 1001.5 |
| 20260507011510 | 76 | 17 | 3.0 | 6.0 | 0.00 | 0.04 | 0.04 | 86 | 1001.6 |
| 20260507011410 | 76 | 18 | 3.0 | 6.0 | 0.00 | 0.04 | 0.04 | 86 | 1001.5 |
| 20260507011310 | 76 | 18 | 3.0 | 6.0 | 0.00 | 0.04 | 0.04 | 86 | 1001.4 |
| 20260507011110 | 76 | 15 | 3.0 | 6.0 | 0.00 | 0.04 | 0.04 | 86 | 1001.5 |
| 20260507011010 | 76 | 12 | 4.0 | 6.0 | 0.00 | 0.04 | 0.04 | 86 | 1001.6 |
| 20260507010910 | 76 | 10 | 3.0 | 6.0 | 0.00 | 0.04 | 0.04 | 86 | 1001.7 |
| 20260507010810 | 77 | 9 | 2.0 | 6.0 | 0.00 | 0.04 | 0.04 | 86 | 1001.7 |
| 20260507010710 | 77 | 8 | 2.0 | 6.0 | 0.00 | 0.04 | 0.04 | 86 | 1001.8 |
| 20260507010613 | 77 | 9 | 3.0 | 6.0 | 0.00 | 0.04 | 0.04 | 85 | 1001.7 |
| 20260507010531 | 77 | 11 | 3.0 | 6.0 | 0.00 | 0.04 | 0.04 | 85 | 1001.6 |
| 20260507010431 | 77 | 10 | 3.0 | 6.0 | 0.00 | 0.04 | 0.04 | 85 | 1001.7 |
| 20260507010310 | 77 | 8 | 3.0 | 6.0 | 0.00 | 0.04 | 0.04 | 85 | 1001.7 |
| 20260507010210 | 77 | 7 | 2.0 | 6.0 | 0.00 | 0.04 | 0.04 | 85 | 1001.6 |
| 20260507010110 | 77 | 10 | 2.0 | 6.0 | 0.00 | 0.04 | 0.04 | 85 | 1001.9 |
| 20260507010010 | 77 | 9 | 3.0 | 6.0 | 0.00 | 0.04 | 0.04 | 85 | 1001.8 |
| 20260507005910 | 77 | 10 | 3.0 | 6.0 | 0.00 | 0.04 | 0.04 | 85 | 1001.9 |
| 20260507005810 | 77 | 7 | 1.0 | 6.0 | 0.00 | 0.04 | 0.04 | 85 | 1001.6 |
| 20260507005710 | 77 | 8 | 1.0 | 9.0 | 0.00 | 0.04 | 0.04 | 85 | 1001.7 |
| 20260507005610 | 77 | 10 | 1.0 | 9.0 | 0.00 | 0.04 | 0.04 | 85 | 1001.7 |
| 20260507005531 | 77 | 6 | 2.0 | 9.0 | 0.00 | 0.04 | 0.04 | 85 | 1001.8 |
| 20260507005410 | 77 | 2 | 2.0 | 9.0 | 0.00 | 0.04 | 0.04 | 85 | 1001.8 |
| 20260507005332 | 77 | 1 | 2.0 | 9.0 | 0.00 | 0.04 | 0.04 | 85 | 1001.8 |
| 20260507005210 | 77 | 358 | 2.0 | 9.0 | 0.00 | 0.04 | 0.04 | 85 | 1001.6 |
| 20260507005131 | 77 | 356 | 2.0 | 9.0 | 0.00 | 0.04 | 0.04 | 85 | 1001.8 |
| 20260507005010 | 78 | 354 | 4.0 | 9.0 | 0.00 | 0.04 | 0.04 | 84 | 1001.9 |
| 20260507004910 | 78 | 351 | 3.0 | 11.0 | 0.00 | 0.04 | 0.04 | 84 | 1002.1 |
| 20260507004810 | 78 | 348 | 4.0 | 11.0 | 0.00 | 0.04 | 0.04 | 84 | 1002.1 |
| 20260507004631 | 78 | 342 | 6.0 | 11.0 | 0.00 | 0.04 | 0.04 | 84 | 1002.1 |
| 20260507004510 | 78 | 339 | 6.0 | 11.0 | 0.00 | 0.04 | 0.04 | 84 | 1002.0 |
| 20260507004410 | 78 | 336 | 4.0 | 11.0 | 0.00 | 0.04 | 0.04 | 84 | 1002.0 |
| 20260507004310 | 78 | 338 | 4.0 | 11.0 | 0.00 | 0.04 | 0.04 | 84 | 1002.1 |
| 20260507004210 | 78 | 337 | 4.0 | 11.0 | 0.00 | 0.04 | 0.04 | 84 | 1001.9 |
| 20260507004110 | 77 | 336 | 6.0 | 11.0 | 0.00 | 0.04 | 0.04 | 85 | 1002.1 |
| 20260507004010 | 77 | 332 | 7.0 | 11.0 | 0.00 | 0.04 | 0.04 | 85 | 1001.9 |
| 20260507003910 | 77 | 335 | 7.0 | 11.0 | 0.00 | 0.04 | 0.04 | 86 | 1002.2 |
| 20260507003810 | 77 | 335 | 4.0 | 7.0 | 0.00 | 0.04 | 0.04 | 86 | 1002.1 |
| 20260507003710 | 77 | 329 | 3.0 | 4.0 | 0.00 | 0.04 | 0.04 | 86 | 1002.3 |
| 20260507003631 | 77 | 320 | 3.0 | 4.0 | 0.00 | 0.04 | 0.04 | 86 | 1002.5 |
| 20260507003531 | 77 | 299 | 2.0 | 4.0 | 0.00 | 0.04 | 0.04 | 86 | 1002.4 |
| 20260507003410 | 77 | 283 | 2.0 | 4.0 | 0.00 | 0.04 | 0.04 | 86 | 1002.6 |
| 20260507003310 | 77 | 273 | 0.0 | 4.0 | 0.00 | 0.04 | 0.04 | 86 | 1002.6 |
| 20260507003231 | 77 | 276 | 0.0 | 4.0 | 0.00 | 0.04 | 0.04 | 86 | 1002.6 |
| 20260507003131 | 77 | 281 | 0.0 | 4.0 | 0.00 | 0.04 | 0.04 | 86 | 1002.7 |
| 20260507003010 | 77 | 286 | 0.0 | 4.0 | 0.00 | 0.04 | 0.04 | 86 | 1002.5 |
| 20260507002910 | 77 | 287 | 0.0 | 4.0 | 0.00 | 0.04 | 0.04 | 86 | 1002.5 |
| 20260507002831 | 77 | 289 | 1.0 | 4.0 | 0.00 | 0.04 | 0.04 | 86 | 1002.7 |
| 20260507002731 | 77 | 292 | 1.0 | 4.0 | 0.00 | 0.04 | 0.04 | 86 | 1002.6 |
| 20260507002631 | 77 | 296 | 2.0 | 4.0 | 0.00 | 0.04 | 0.04 | 86 | 1002.5 |
| 20260507002510 | 76 | 304 | 2.0 | 4.0 | 0.00 | 0.04 | 0.04 | 87 | 1002.5 |
| 20260507002410 | 76 | 309 | 3.0 | 4.0 | 0.00 | 0.04 | 0.04 | 87 | 1002.5 |
| 20260507002310 | 76 | 318 | 2.0 | 4.0 | 0.00 | 0.04 | 0.04 | 87 | 1002.5 |
| 20260507002231 | 76 | 320 | 2.0 | 2.0 | 0.00 | 0.04 | 0.04 | 87 | 1002.6 |
| 20260507002110 | 76 | 325 | 1.0 | 2.0 | 0.00 | 0.04 | 0.04 | 87 | 1002.5 |
| 20260507002010 | 76 | 333 | 0.0 | 2.0 | 0.00 | 0.04 | 0.04 | 87 | 1002.3 |
| 20260507001910 | 76 | 340 | 1.0 | 2.0 | 0.00 | 0.04 | 0.04 | 87 | 1002.5 |
| 20260507001832 | 76 | 344 | 1.0 | 2.0 | 0.00 | 0.04 | 0.04 | 87 | 1002.5 |
| 20260507001710 | 76 | 354 | 2.0 | 2.0 | 0.00 | 0.04 | 0.04 | 87 | 1002.5 |
| 20260507001610 | 76 | 2 | 1.0 | 2.0 | 0.00 | 0.04 | 0.04 | 87 | 1002.7 |
| 20260507001531 | 76 | 6 | 0.0 | 2.0 | 0.00 | 0.04 | 0.04 | 87 | 1002.6 |
| 20260507001410 | 76 | 9 | 0.0 | 2.0 | 0.00 | 0.04 | 0.04 | 87 | 1002.4 |
| 20260507001310 | 76 | 9 | 0.0 | 2.0 | 0.00 | 0.04 | 0.04 | 87 | 1002.2 |
| 20260507001210 | 76 | 8 | 0.0 | 2.0 | 0.00 | 0.04 | 0.04 | 87 | 1002.2 |
| 20260507001110 | 76 | 7 | 1.0 | 2.0 | 0.00 | 0.04 | 0.04 | 87 | 1002.2 |
| 20260507001010 | 76 | 7 | 2.0 | 2.0 | 0.00 | 0.04 | 0.04 | 87 | 1002.5 |
| 20260507000910 | 76 | 7 | 1.0 | 2.0 | 0.00 | 0.04 | 0.04 | 87 | 1002.2 |
| 20260507000810 | 76 | 7 | 2.0 | 2.0 | 0.00 | 0.04 | 0.04 | 87 | 1002.4 |
| 20260507000710 | 76 | 7 | 2.0 | 2.0 | 0.00 | 0.04 | 0.04 | 87 | 1002.3 |
| 20260507000610 | 76 | 5 | 2.0 | 2.0 | 0.00 | 0.04 | 0.04 | 87 | 1002.3 |
| 20260507000510 | 76 | 3 | 2.0 | 2.0 | 0.00 | 0.04 | 0.04 | 87 | 1002.4 |
| 20260507000410 | 76 | 1 | 2.0 | 2.0 | 0.00 | 0.04 | 0.04 | 87 | 1002.2 |
| 20260507000310 | 76 | 360 | 2.0 | 2.0 | 0.00 | 0.04 | 0.04 | 87 | 1002.1 |
| 20260507000212 | 76 | 360 | 2.0 | 2.0 | 0.00 | 0.04 | 0.04 | 87 | 1002.4 |
| 20260507000110 | 76 | 359 | 2.0 | 2.0 | 0.00 | 0.04 | 0.04 | 87 | 1002.3 |
| 20260507000011 | 76 | 358 | 2.0 | 2.0 | 0.00 | 0.04 | 0.04 | 87 | 1002.2 |
| 20260506235910 | 76 | 358 | 2.0 | 2.0 | 0.00 | 0.04 | 0.04 | 87 | 1002.3 |
| 20260506235831 | 76 | 358 | 2.0 | 2.0 | 0.00 | 0.04 | 0.04 | 87 | 1002.3 |
| 20260506235710 | 76 | 358 | 2.0 | 2.0 | 0.00 | 0.04 | 0.04 | 87 | 1002.2 |
| 20260506235631 | 76 | 357 | 2.0 | 2.0 | 0.00 | 0.04 | 0.04 | 87 | 1002.2 |
| 20260506235510 | 76 | 356 | 2.0 | 4.0 | 0.00 | 0.04 | 0.04 | 87 | 1002.2 |
| 20260506235410 | 76 | 356 | 2.0 | 4.0 | 0.00 | 0.04 | 0.04 | 87 | 1002.2 |
| 20260506235310 | 76 | 357 | 1.0 | 4.0 | 0.00 | 0.04 | 0.04 | 87 | 1002.2 |
| 20260506235210 | 76 | 354 | 2.0 | 4.0 | 0.00 | 0.04 | 0.04 | 87 | 1001.9 |
| 20260506235131 | 76 | 355 | 1.0 | 4.0 | 0.00 | 0.04 | 0.04 | 87 | 1002.1 |
| 20260506235010 | 76 | 356 | 1.0 | 4.0 | 0.00 | 0.04 | 0.04 | 87 | 1002.0 |
| 20260506234910 | 76 | 355 | 1.0 | 4.0 | 0.00 | 0.04 | 0.04 | 87 | 1001.8 |
| 20260506234810 | 76 | 353 | 1.0 | 4.0 | 0.00 | 0.04 | 0.04 | 87 | 1002.0 |
| 20260506234710 | 76 | 353 | 2.0 | 4.0 | 0.00 | 0.04 | 0.04 | 87 | 1002.0 |
| 20260506234610 | 76 | 354 | 2.0 | 4.0 | 0.00 | 0.04 | 0.04 | 87 | 1002.0 |
| 20260506234510 | 76 | 355 | 2.0 | 4.0 | 0.00 | 0.04 | 0.04 | 87 | 1001.9 |
| 20260506234410 | 76 | 355 | 2.0 | 4.0 | 0.00 | 0.04 | 0.04 | 87 | 1001.7 |
| 20260506234310 | 76 | 352 | 2.0 | 4.0 | 0.00 | 0.04 | 0.04 | 87 | 1001.8 |
| 20260506234210 | 76 | 352 | 2.0 | 4.0 | 0.00 | 0.04 | 0.04 | 87 | 1002.0 |
| 20260506234131 | 76 | 351 | 2.0 | 4.0 | 0.00 | 0.04 | 0.04 | 87 | 1002.0 |
| 20260506234010 | 76 | 351 | 2.0 | 4.0 | 0.00 | 0.04 | 0.04 | 87 | 1001.9 |
| 20260506233910 | 76 | 351 | 2.0 | 4.0 | 0.00 | 0.04 | 0.04 | 87 | 1001.8 |
| 20260506233810 | 76 | 353 | 2.0 | 4.0 | 0.00 | 0.04 | 0.04 | 87 | 1001.8 |
| 20260506233710 | 76 | 353 | 2.0 | 4.0 | 0.00 | 0.04 | 0.04 | 87 | 1001.8 |
| 20260506233610 | 76 | 353 | 2.0 | 4.0 | 0.00 | 0.04 | 0.04 | 87 | 1001.8 |
| 20260506233510 | 76 | 353 | 2.0 | 4.0 | 0.00 | 0.04 | 0.04 | 87 | 1002.0 |
| 20260506233410 | 76 | 353 | 2.0 | 4.0 | 0.00 | 0.04 | 0.04 | 87 | 1001.9 |
| 20260506233310 | 76 | 353 | 2.0 | 4.0 | 0.00 | 0.04 | 0.04 | 87 | 1001.7 |
| 20260506233231 | 76 | 355 | 2.0 | 4.0 | 0.00 | 0.04 | 0.04 | 87 | 1001.7 |
| 20260506233110 | 76 | 357 | 2.0 | 4.0 | 0.00 | 0.04 | 0.04 | 87 | 1001.8 |
| 20260506233010 | 76 | 357 | 2.0 | 4.0 | 0.00 | 0.04 | 0.04 | 87 | 1001.8 |
| 20260506232910 | 76 | 358 | 2.0 | 4.0 | 0.00 | 0.04 | 0.04 | 87 | 1001.6 |
| 20260506232831 | 76 | 358 | 2.0 | 4.0 | 0.00 | 0.04 | 0.04 | 87 | 1001.5 |
| 20260506232710 | 76 | 358 | 2.0 | 4.0 | 0.00 | 0.04 | 0.04 | 87 | 1001.7 |
| 20260506232610 | 76 | 358 | 2.0 | 4.0 | 0.00 | 0.04 | 0.04 | 87 | 1001.6 |
| 20260506232510 | 76 | 358 | 3.0 | 4.0 | 0.00 | 0.04 | 0.04 | 87 | 1001.6 |
| 20260506232410 | 76 | 358 | 2.0 | 4.0 | 0.00 | 0.04 | 0.04 | 87 | 1001.6 |
| 20260506232310 | 76 | 360 | 2.0 | 4.0 | 0.00 | 0.04 | 0.04 | 87 | 1001.7 |
| 20260506232231 | 76 | 2 | 2.0 | 4.0 | 0.00 | 0.04 | 0.04 | 87 | 1001.6 |
| 20260506232110 | 76 | 2 | 2.0 | 4.0 | 0.00 | 0.04 | 0.04 | 87 | 1001.6 |
| 20260506232010 | 76 | 2 | 2.0 | 4.0 | 0.00 | 0.04 | 0.04 | 87 | 1001.7 |
| 20260506231910 | 76 | 1 | 2.0 | 4.0 | 0.00 | 0.04 | 0.04 | 87 | 1001.7 |
| 20260506231810 | 76 | 1 | 2.0 | 4.0 | 0.00 | 0.04 | 0.04 | 87 | 1001.5 |
| 20260506231710 | 76 | 1 | 2.0 | 4.0 | 0.00 | 0.04 | 0.04 | 87 | 1001.5 |
| 20260506231610 | 76 | 1 | 2.0 | 4.0 | 0.00 | 0.04 | 0.04 | 87 | 1001.6 |
| 20260506231531 | 76 | 1 | 2.0 | 4.0 | 0.00 | 0.04 | 0.04 | 87 | 1001.5 |
| 20260506231410 | 76 | 1 | 2.0 | 4.0 | 0.00 | 0.04 | 0.04 | 87 | 1001.4 |
| 20260506231310 | 76 | 1 | 2.0 | 4.0 | 0.00 | 0.04 | 0.04 | 87 | 1001.4 |
| 20260506231210 | 76 | 359 | 2.0 | 4.0 | 0.00 | 0.04 | 0.04 | 87 | 1001.5 |
| 20260506231110 | 76 | 359 | 3.0 | 4.0 | 0.00 | 0.04 | 0.04 | 86 | 1001.6 |
| 20260506231010 | 76 | 360 | 2.0 | 4.0 | 0.00 | 0.04 | 0.04 | 86 | 1001.6 |
| 20260506230910 | 76 | 1 | 2.0 | 4.0 | 0.00 | 0.04 | 0.04 | 86 | 1001.4 |
| 20260506230810 | 76 | 1 | 2.0 | 4.0 | 0.00 | 0.04 | 0.04 | 86 | 1001.5 |
| 20260506230731 | 76 | 1 | 2.0 | 4.0 | 0.00 | 0.04 | 0.04 | 86 | 1001.3 |
| 20260506230610 | 76 | 1 | 2.0 | 4.0 | 0.00 | 0.04 | 0.04 | 86 | 1001.4 |
| 20260506230510 | 76 | 3 | 2.0 | 4.0 | 0.00 | 0.04 | 0.04 | 86 | 1001.3 |
| 20260506230410 | 77 | 1 | 2.0 | 4.0 | 0.00 | 0.04 | 0.04 | 86 | 1001.2 |
| 20260506230332 | 77 | 1 | 2.0 | 4.0 | 0.00 | 0.04 | 0.04 | 86 | 1001.4 |
| 20260506230210 | 77 | 1 | 2.0 | 4.0 | 0.00 | 0.04 | 0.04 | 86 | 1001.4 |
| 20260506230110 | 77 | 1 | 2.0 | 4.0 | 0.00 | 0.04 | 0.04 | 86 | 1001.4 |
| 20260506230010 | 77 | 2 | 2.0 | 4.0 | 0.00 | 0.04 | 0.04 | 85 | 1001.2 |
| 20260506225910 | 77 | 2 | 2.0 | 4.0 | 0.00 | 0.04 | 0.04 | 85 | 1001.3 |
| 20260506225810 | 77 | 2 | 2.0 | 4.0 | 0.00 | 0.04 | 0.04 | 85 | 1001.4 |
| 20260506225710 | 77 | 4 | 2.0 | 4.0 | 0.00 | 0.04 | 0.04 | 85 | 1001.5 |
| 20260506225610 | 77 | 4 | 2.0 | 4.0 | 0.00 | 0.04 | 0.04 | 85 | 1001.3 |
| 20260506225510 | 77 | 2 | 2.0 | 4.0 | 0.00 | 0.04 | 0.04 | 85 | 1001.5 |
| 20260506225410 | 77 | 5 | 2.0 | 4.0 | 0.00 | 0.04 | 0.04 | 85 | 1001.4 |
| 20260506225310 | 77 | 4 | 2.0 | 4.0 | 0.00 | 0.04 | 0.04 | 85 | 1001.6 |
| 20260506225210 | 77 | 4 | 2.0 | 4.0 | 0.00 | 0.04 | 0.04 | 85 | 1001.4 |
| 20260506225131 | 77 | 4 | 2.0 | 4.0 | 0.00 | 0.04 | 0.04 | 85 | 1001.4 |
| 20260506225010 | 77 | 3 | 1.0 | 4.0 | 0.00 | 0.04 | 0.04 | 85 | 1001.3 |
| 20260506224910 | 77 | 360 | 2.0 | 4.0 | 0.00 | 0.04 | 0.04 | 85 | 1001.5 |
| 20260506224810 | 77 | 360 | 2.0 | 4.0 | 0.00 | 0.04 | 0.04 | 85 | 1001.4 |
| 20260506224710 | 77 | 359 | 2.0 | 4.0 | 0.00 | 0.04 | 0.04 | 85 | 1001.6 |
| 20260506224610 | 77 | 358 | 2.0 | 4.0 | 0.00 | 0.04 | 0.04 | 85 | 1001.6 |
| 20260506224532 | 77 | 358 | 2.0 | 4.0 | 0.00 | 0.04 | 0.04 | 85 | 1001.6 |
| 20260506224410 | 77 | 360 | 2.0 | 4.0 | 0.00 | 0.04 | 0.04 | 85 | 1001.5 |
| 20260506224310 | 77 | 360 | 2.0 | 4.0 | 0.00 | 0.04 | 0.04 | 85 | 1001.4 |
| 20260506224210 | 77 | 1 | 2.0 | 4.0 | 0.00 | 0.04 | 0.04 | 85 | 1001.5 |
| 20260506224110 | 77 | 1 | 2.0 | 4.0 | 0.00 | 0.04 | 0.04 | 85 | 1001.6 |
| 20260506224010 | 77 | 1 | 2.0 | 4.0 | 0.00 | 0.04 | 0.04 | 85 | 1001.3 |
| 20260506223910 | 77 | 2 | 2.0 | 4.0 | 0.00 | 0.04 | 0.04 | 85 | 1001.7 |
| 20260506223831 | 77 | 360 | 2.0 | 4.0 | 0.00 | 0.04 | 0.04 | 85 | 1001.6 |
| 20260506223730 | 78 | 357 | 2.0 | 4.0 | 0.00 | 0.04 | 0.04 | 85 | 1001.6 |
| 20260506223610 | 78 | 357 | 2.0 | 4.0 | 0.00 | 0.04 | 0.04 | 84 | 1001.4 |
| 20260506223510 | 78 | 357 | 2.0 | 4.0 | 0.00 | 0.04 | 0.04 | 84 | 1001.3 |
| 20260506223410 | 78 | 356 | 2.0 | 4.0 | 0.00 | 0.04 | 0.04 | 84 | 1001.4 |
| 20260506223332 | 78 | 356 | 2.0 | 4.0 | 0.00 | 0.04 | 0.04 | 84 | 1001.4 |
| 20260506223231 | 78 | 358 | 2.0 | 4.0 | 0.00 | 0.04 | 0.04 | 84 | 1001.4 |
| 20260506223109 | 78 | 1 | 2.0 | 4.0 | 0.00 | 0.04 | 0.04 | 84 | 1001.3 |
| 20260506223010 | 78 | 3 | 2.0 | 4.0 | 0.00 | 0.04 | 0.04 | 84 | 1001.3 |
| 20260506222909 | 78 | 2 | 2.0 | 4.0 | 0.00 | 0.04 | 0.04 | 84 | 1001.4 |
| 20260506222810 | 78 | 7 | 2.0 | 4.0 | 0.00 | 0.04 | 0.04 | 84 | 1001.2 |
| 20260506222731 | 78 | 8 | 2.0 | 4.0 | 0.00 | 0.04 | 0.04 | 84 | 1001.3 |
| 20260506222610 | 78 | 7 | 2.0 | 4.0 | 0.00 | 0.04 | 0.04 | 84 | 1001.2 |
| 20260506222510 | 78 | 6 | 2.0 | 4.0 | 0.00 | 0.04 | 0.04 | 84 | 1001.2 |
| 20260506222431 | 78 | 4 | 2.0 | 4.0 | 0.00 | 0.04 | 0.04 | 84 | 1001.2 |
| 20260506222310 | 78 | 4 | 2.0 | 6.0 | 0.00 | 0.04 | 0.04 | 84 | 1001.3 |
| 20260506222210 | 78 | 3 | 3.0 | 6.0 | 0.00 | 0.04 | 0.04 | 84 | 1001.0 |
| 20260506222131 | 78 | 3 | 3.0 | 6.0 | 0.00 | 0.04 | 0.04 | 84 | 1001.0 |
| 20260506222031 | 78 | 1 | 2.0 | 6.0 | 0.00 | 0.04 | 0.04 | 83 | 1001.0 |
| 20260506221909 | 78 | 2 | 3.0 | 6.0 | 0.00 | 0.04 | 0.04 | 83 | 1001.2 |
| 20260506221810 | 78 | 360 | 3.0 | 6.0 | 0.00 | 0.04 | 0.04 | 83 | 1001.1 |
| 20260506221710 | 78 | 359 | 3.0 | 6.0 | 0.00 | 0.04 | 0.04 | 83 | 1001.0 |
| 20260506221632 | 78 | 359 | 3.0 | 6.0 | 0.00 | 0.04 | 0.04 | 83 | 1001.1 |
| 20260506221510 | 78 | 359 | 3.0 | 6.0 | 0.00 | 0.04 | 0.04 | 83 | 1001.0 |
| 20260506221410 | 78 | 1 | 3.0 | 6.0 | 0.00 | 0.04 | 0.04 | 83 | 1001.2 |
| 20260506221331 | 78 | 360 | 3.0 | 6.0 | 0.00 | 0.04 | 0.04 | 83 | 1001.2 |
| 20260506221210 | 78 | 1 | 3.0 | 6.0 | 0.00 | 0.04 | 0.04 | 83 | 1000.9 |
| 20260506221131 | 78 | 1 | 3.0 | 6.0 | 0.00 | 0.04 | 0.04 | 83 | 1001.0 |
| 20260506221010 | 79 | 1 | 2.0 | 7.0 | 0.00 | 0.04 | 0.04 | 83 | 1001.1 |
| 20260506220910 | 79 | 4 | 3.0 | 8.0 | 0.00 | 0.04 | 0.04 | 83 | 1000.9 |
| 20260506220810 | 79 | 6 | 3.0 | 8.0 | 0.00 | 0.04 | 0.04 | 83 | 1001.1 |
| 20260506220710 | 79 | 9 | 3.0 | 8.0 | 0.00 | 0.04 | 0.04 | 83 | 1001.1 |
| 20260506220610 | 79 | 10 | 2.0 | 8.0 | 0.00 | 0.04 | 0.04 | 82 | 1001.2 |
| 20260506220531 | 79 | 11 | 2.0 | 8.0 | 0.00 | 0.04 | 0.04 | 82 | 1001.2 |
| 20260506220410 | 79 | 15 | 4.0 | 8.0 | 0.00 | 0.04 | 0.04 | 82 | 1001.0 |
| 20260506220310 | 79 | 17 | 3.0 | 8.0 | 0.00 | 0.04 | 0.04 | 82 | 1000.9 |
| 20260506220210 | 79 | 16 | 2.0 | 8.0 | 0.00 | 0.04 | 0.04 | 82 | 1000.9 |
| 20260506220110 | 79 | 17 | 3.0 | 8.0 | 0.00 | 0.04 | 0.04 | 82 | 1001.1 |
| 20260506220010 | 79 | 16 | 4.0 | 8.0 | 0.00 | 0.04 | 0.04 | 82 | 1000.9 |
| 20260506215931 | 79 | 15 | 3.0 | 8.0 | 0.00 | 0.04 | 0.04 | 82 | 1001.0 |
| 20260506215810 | 79 | 9 | 2.0 | 6.0 | 0.00 | 0.04 | 0.04 | 82 | 1001.0 |
| 20260506215710 | 79 | 8 | 2.0 | 6.0 | 0.00 | 0.04 | 0.04 | 82 | 1001.0 |
| 20260506215610 | 79 | 7 | 2.0 | 6.0 | 0.00 | 0.04 | 0.04 | 82 | 1001.0 |
| 20260506215510 | 79 | 9 | 2.0 | 6.0 | 0.00 | 0.04 | 0.04 | 82 | 1001.0 |
| 20260506215410 | 79 | 6 | 2.0 | 6.0 | 0.00 | 0.04 | 0.04 | 82 | 1000.9 |
| 20260506215310 | 79 | 8 | 2.0 | 6.0 | 0.00 | 0.04 | 0.04 | 82 | 1001.0 |
| 20260506215231 | 79 | 7 | 2.0 | 6.0 | 0.00 | 0.04 | 0.04 | 82 | 1001.1 |
| 20260506215110 | 79 | 7 | 2.0 | 7.0 | 0.00 | 0.04 | 0.04 | 82 | 1001.0 |
| 20260506215010 | 79 | 11 | 2.0 | 7.0 | 0.00 | 0.04 | 0.04 | 81 | 1001.1 |
| 20260506214910 | 80 | 11 | 2.0 | 7.0 | 0.00 | 0.04 | 0.04 | 81 | 1000.9 |
| 20260506214810 | 80 | 12 | 2.0 | 7.0 | 0.00 | 0.04 | 0.04 | 81 | 1000.8 |
| 20260506214710 | 80 | 12 | 2.0 | 8.0 | 0.00 | 0.04 | 0.04 | 81 | 1000.8 |
| 20260506214610 | 80 | 14 | 3.0 | 8.0 | 0.00 | 0.04 | 0.04 | 81 | 1000.9 |
| 20260506214510 | 80 | 12 | 3.0 | 8.0 | 0.00 | 0.04 | 0.04 | 81 | 1000.8 |
| 20260506214432 | 80 | 10 | 4.0 | 8.0 | 0.00 | 0.04 | 0.04 | 80 | 1000.7 |
| 20260506214310 | 80 | 3 | 4.0 | 8.0 | 0.00 | 0.04 | 0.04 | 80 | 1000.8 |
| 20260506214210 | 80 | 1 | 4.0 | 8.0 | 0.00 | 0.04 | 0.04 | 80 | 1000.6 |
| 20260506214110 | 80 | 2 | 4.0 | 8.0 | 0.00 | 0.04 | 0.04 | 80 | 1000.8 |
| 20260506214009 | 80 | 359 | 4.0 | 8.0 | 0.00 | 0.04 | 0.04 | 80 | 1000.6 |
| 20260506213910 | 80 | 359 | 4.0 | 8.0 | 0.00 | 0.04 | 0.04 | 80 | 1000.8 |
| 20260506213810 | 80 | 360 | 4.0 | 8.0 | 0.00 | 0.04 | 0.04 | 80 | 1000.9 |
| 20260506213710 | 80 | 360 | 4.0 | 8.0 | 0.00 | 0.04 | 0.04 | 80 | 1000.9 |
| 20260506213609 | 80 | 357 | 3.0 | 7.0 | 0.00 | 0.04 | 0.04 | 80 | 1000.6 |
| 20260506213510 | 80 | 356 | 4.0 | 7.0 | 0.00 | 0.04 | 0.04 | 80 | 1000.8 |
| 20260506213431 | 80 | 356 | 3.0 | 7.0 | 0.00 | 0.04 | 0.04 | 80 | 1001.0 |
| 20260506213310 | 80 | 360 | 4.0 | 7.0 | 0.00 | 0.04 | 0.04 | 80 | 1000.9 |
| 20260506213210 | 80 | 360 | 3.0 | 7.0 | 0.00 | 0.04 | 0.04 | 79 | 1001.0 |
| 20260506213110 | 80 | 359 | 3.0 | 7.0 | 0.00 | 0.04 | 0.04 | 79 | 1001.0 |
| 20260506213010 | 80 | 357 | 4.0 | 7.0 | 0.00 | 0.04 | 0.04 | 79 | 1000.9 |
| 20260506212910 | 80 | 357 | 4.0 | 7.0 | 0.00 | 0.04 | 0.04 | 79 | 1000.8 |
| 20260506212810 | 80 | 355 | 4.0 | 7.0 | 0.00 | 0.04 | 0.04 | 79 | 1000.9 |
| 20260506212710 | 80 | 354 | 4.0 | 7.0 | 0.00 | 0.04 | 0.04 | 79 | 1001.0 |
| 20260506212610 | 80 | 354 | 3.0 | 7.0 | 0.00 | 0.04 | 0.04 | 79 | 1001.0 |
| 20260506212510 | 80 | 353 | 4.0 | 7.0 | 0.00 | 0.04 | 0.04 | 79 | 1001.1 |
| 20260506212410 | 80 | 354 | 4.0 | 7.0 | 0.00 | 0.04 | 0.04 | 78 | 1001.1 |
| 20260506212310 | 81 | 353 | 4.0 | 7.0 | 0.00 | 0.04 | 0.04 | 78 | 1001.1 |
| 20260506212210 | 81 | 355 | 4.0 | 7.0 | 0.00 | 0.04 | 0.04 | 78 | 1001.0 |
| 20260506212131 | 81 | 355 | 4.0 | 7.0 | 0.00 | 0.04 | 0.04 | 78 | 1001.0 |
| 20260506212010 | 81 | 356 | 4.0 | 7.0 | 0.00 | 0.04 | 0.04 | 78 | 1001.1 |
| 20260506211931 | 81 | 355 | 4.0 | 7.0 | 0.00 | 0.04 | 0.04 | 78 | 1001.1 |
| 20260506211810 | 81 | 354 | 4.0 | 7.0 | 0.00 | 0.04 | 0.04 | 78 | 1001.2 |
| 20260506211710 | 81 | 354 | 4.0 | 7.0 | 0.00 | 0.04 | 0.04 | 78 | 1001.2 |
| 20260506211610 | 81 | 353 | 4.0 | 7.0 | 0.00 | 0.04 | 0.04 | 78 | 1001.0 |
| 20260506211510 | 81 | 355 | 4.0 | 7.0 | 0.00 | 0.04 | 0.04 | 78 | 1001.2 |
| 20260506211410 | 81 | 355 | 4.0 | 7.0 | 0.00 | 0.04 | 0.04 | 78 | 1001.3 |
| 20260506211331 | 81 | 354 | 4.0 | 7.0 | 0.00 | 0.04 | 0.04 | 78 | 1001.3 |
| 20260506211210 | 81 | 349 | 4.0 | 7.0 | 0.00 | 0.04 | 0.04 | 78 | 1001.0 |
| 20260506211131 | 81 | 349 | 4.0 | 9.0 | 0.00 | 0.04 | 0.04 | 78 | 1001.3 |
| 20260506211010 | 81 | 351 | 3.0 | 9.0 | 0.00 | 0.04 | 0.04 | 77 | 1001.3 |
| 20260506210910 | 81 | 351 | 3.0 | 9.0 | 0.00 | 0.04 | 0.04 | 77 | 1001.4 |
| 20260506210810 | 81 | 353 | 4.0 | 9.0 | 0.00 | 0.04 | 0.04 | 77 | 1001.2 |
| 20260506210710 | 81 | 355 | 4.0 | 9.0 | 0.00 | 0.04 | 0.04 | 77 | 1001.2 |
| 20260506210610 | 81 | 356 | 4.0 | 9.0 | 0.00 | 0.04 | 0.04 | 77 | 1001.1 |
| 20260506210531 | 81 | 357 | 4.0 | 9.0 | 0.00 | 0.04 | 0.04 | 77 | 1001.1 |
| 20260506210410 | 81 | 358 | 4.0 | 9.0 | 0.00 | 0.04 | 0.04 | 77 | 1001.1 |
| 20260506210331 | 81 | 1 | 4.0 | 9.0 | 0.00 | 0.04 | 0.04 | 76 | 1001.2 |
| 20260506210210 | 81 | 6 | 4.0 | 9.0 | 0.00 | 0.04 | 0.04 | 76 | 1001.1 |
| 20260506210110 | 81 | 6 | 4.0 | 8.0 | 0.00 | 0.04 | 0.04 | 76 | 1001.1 |
| 20260506210010 | 81 | 5 | 4.0 | 9.0 | 0.00 | 0.04 | 0.04 | 76 | 1001.2 |
| 20260506205910 | 81 | 4 | 4.0 | 9.0 | 0.00 | 0.04 | 0.04 | 76 | 1001.2 |
| 20260506205810 | 81 | 3 | 4.0 | 9.0 | 0.00 | 0.04 | 0.04 | 76 | 1001.3 |
| 20260506205731 | 81 | 360 | 4.0 | 9.0 | 0.00 | 0.04 | 0.04 | 76 | 1001.3 |
| 20260506205610 | 82 | 358 | 4.0 | 9.0 | 0.00 | 0.04 | 0.04 | 76 | 1001.1 |
| 20260506205510 | 82 | 356 | 4.0 | 9.0 | 0.00 | 0.04 | 0.04 | 76 | 1001.3 |